[[{"header":{"parameterUnit":"m.s-1","parameterCategory":1,"la1":31.0,"la2":29.5877,"lo1":-88.7671,"lo2":-86.6584,"dy":0.0162,"dx":0.0185,"nx":115,"ny":88,"refTime":"2023-10-08T06:00:00:Z","depth":0,"parameterNumber":2,"parameterNumberName":"U-component_of_WINDS"},"data":[0.0,0.0,0.0,0.0,0.0,0.0,0.0,0.0,0.0,0.0,0.0,0.0,0.0,0.0,0.0,0.0,0.0,0.0,0.0,0.0,0.0,0.0,0.0,0.0,0.0,0.0,0.0,0.0,0.0,0.0,0.0,0.0,0.0,0.0,0.0,0.0,0.0,0.0,0.0,0.0,0.0,0.0,0.0,0.0,0.0,0.0,0.0,0.0,0.0,0.0,0.0,0.0,0.0,0.0,0.0,0.0,0.0,0.0,0.0,0.0,0.0,0.0,0.0,0.0,0.0,0.0,0.0,0.0,0.0,0.0,0.0,0.0,0.0,0.0,0.0,0.0,0.0,0.0,0.0,0.0,0.0,0.0,0.0,0.0,0.0,0.0,0.0,0.0,0.0,0.0,0.0,0.0,0.0,0.0,0.0,0.0,0.0,0.0,0.0,0.0,0.0,0.0,0.0,0.0,0.0,0.0,0.0,0.0,0.0,0.0,0.0,0.0,0.0,0.0,0.0,0.0,0.0,0.0,0.0,0.0,0.0,0.0,0.0,0.0,0.0,0.0,0.0,0.0,0.0,0.0,0.0,0.0,0.0,0.0,0.0,0.0,0.0,0.0,0.0,0.0,0.0,0.0,0.0,0.0,0.0,0.0,0.0,0.0,0.0,0.0,0.0,0.0,0.0,0.0,0.0,0.0,0.0,0.0,0.0,0.0,0.0,0.0,0.0,0.0,0.0,0.0,0.0,0.0,0.0,0.0,0.0,0.0,0.0,0.0,0.0,0.0,0.0,0.0,0.0,0.0,0.0,0.0,0.0,0.0,0.0,0.0,0.0,0.0,0.0,0.0,0.0,0.0,0.0,0.0,0.0,0.0,0.0,0.0,0.0,0.0,0.0,0.0,0.0,0.0,0.0,0.0,0.0,0.0,0.0,0.0,0.0,0.0,0.0,0.0,0.0,0.0,0.0,0.0,0.0,0.0,0.0,0.0,0.0,0.0,0.0,0.0,0.0,0.0,0.0,0.0,0.0,0.0,0.0,0.0,0.0,0.0,0.0,0.0,0.0,0.0,0.0,0.0,0.0,0.0,0.0,0.0,0.0,0.0,0.0,0.0,0.0,0.0,0.0,0.0,0.0,0.0,0.0,0.0,0.0,0.0,0.0,0.0,0.0,0.0,0.0,0.0,0.0,0.0,0.0,0.0,0.0,0.0,0.0,0.0,0.0,0.0,0.0,0.0,0.0,0.0,0.0,0.0,0.0,0.0,0.0,0.0,0.0,0.0,0.0,0.0,0.0,0.0,0.0,0.0,0.0,0.0,0.0,0.0,0.0,0.0,0.0,0.0,0.0,0.0,0.0,0.0,0.0,0.0,0.0,0.0,0.0,0.0,0.0,0.0,0.0,0.0,0.0,0.0,0.0,0.0,0.0,0.0,0.0,0.0,0.0,0.0,0.0,0.0,0.0,0.0,0.0,0.0,0.0,0.0,0.0,0.0,0.0,0.0,0.0,0.0,0.0,0.0,0.0,0.0,0.0,0.0,0.0,0.0,0.0,0.0,0.0,0.0,0.0,0.0,0.0,0.0,0.0,0.0,0.0,0.0,0.0,0.0,0.0,0.0,0.0,0.0,0.0,0.0,0.0,0.0,0.0,0.0,0.0,0.0,0.0,0.0,0.0,0.0,0.0,0.0,0.0,0.0,0.0,0.0,0.0,0.0,0.0,0.0,0.0,0.0,0.0,0.0,0.0,0.0,0.0,0.0,0.0,0.0,0.0,0.0,0.0,0.0,0.0,0.0,0.0,0.0,0.0,0.0,0.0,0.0,0.0,0.0,0.0,0.0,0.0,0.0,0.0,0.0,0.0,0.0,0.0,0.0,0.0,0.0,0.0,0.0,0.0,0.0,0.0,0.0,0.0,0.0,0.0,0.0,0.0,0.0,0.0,0.0,0.0,0.0,0.0,0.0,0.0,0.0,0.0,0.0,0.0,0.0,0.0,0.0,0.0,0.0,0.0,0.0,0.0,0.0,0.0,0.0,0.0,0.0,0.0,0.0,0.0,0.0,0.0,0.0,0.0,0.0,0.0,0.0,0.0,0.0,0.0,0.0,0.0,0.0,0.0,0.0,0.0,0.0,0.0,0.0,0.0,0.0,0.0,0.0,0.0,0.0,0.0,0.0,0.0,0.0,0.0,0.0,0.0,0.0,0.0,0.0,0.0,0.0,0.0,0.0,0.0,0.0,0.0,0.0,0.0,0.0,0.0,0.0,0.0,0.0,0.0,0.0,0.0,0.0,0.0,0.0,0.0,0.0,0.0,0.0,0.0,0.0,0.0,0.0,0.0,0.0,0.0,0.0,0.0,0.0,0.0,0.0,0.0,0.0,0.0,0.0,0.0,0.0,0.0,0.0,0.0,0.0,0.0,0.0,0.0,0.0,0.0,0.0,0.0,0.0,0.0,0.0,0.0,0.0,0.0,0.0,0.0,0.0,0.0,0.0,0.0,0.0,0.0,0.0,0.0,0.0,0.0,0.0,0.0,0.0,0.0,0.0,0.0,0.0,0.0,0.0,0.0,0.0,0.0,0.0,0.0,0.0,0.0,0.0,0.0,0.0,0.0,0.0,0.0,0.0,0.0,0.0,0.0,0.0,0.0,0.0,0.0,0.0,0.0,0.0,0.0,0.0,0.0,0.0,0.0,0.0,0.0,0.0,0.0,0.0,0.0,0.0,0.0,0.0,0.0,0.0,0.0,0.0,0.0,0.0,0.0,0.0,0.0,0.0,0.0,0.0,0.0,0.0,0.0,0.0,0.0,0.0,0.0,0.0,0.0,0.0,0.0,0.0,0.0,0.0,0.0,0.0,0.0,0.0,0.0,0.0,0.0,0.0,0.0,0.0,0.0,0.0,0.0,0.0,0.0,0.0,0.0,0.0,0.0,0.0,0.0,0.0,0.0,0.0,0.0,0.0,0.0,0.0,0.0,0.0,0.0,0.0,0.0,0.0,0.0,0.0,0.0,0.0,0.0,0.0,0.0,0.0,0.0,0.0,0.0,0.0,0.0,0.0,0.0,0.0,0.0,0.0,0.0,0.0,0.0,0.0,0.0,0.0,0.0,0.0,0.0,0.0,0.0,0.0,0.0,0.0,0.0,0.0,0.0,0.0,0.0,0.0,0.0,0.0,0.0,0.0,0.0,0.0,0.0,0.0,0.0,0.0,0.0,0.0,0.0,0.0,0.0,0.0,0.0,0.0,0.0,0.0,0.0,0.0,0.0,0.0,0.0,0.0,0.0,0.0,0.0,0.0,0.0,0.0,0.0,0.0,0.0,0.0,0.0,0.0,0.0,0.0,0.0,0.0,0.0,0.0,0.0,0.0,0.0,0.0,0.0,0.0,0.0,0.0,0.0,0.0,0.0,0.0,0.0,0.0,0.0,0.0,0.0,0.0,0.0,0.0,0.0,0.0,0.0,0.0,0.0,0.0,0.0,0.0,0.0,0.0,0.0,0.0,0.0,0.0,0.0,0.0,0.0,0.0,0.0,0.0,0.0,0.0,0.0,0.0,0.0,0.0,0.0,0.0,0.0,0.0,0.0,0.0,0.0,0.0,0.0,0.0,0.0,0.0,0.0,0.0,0.0,0.0,0.0,0.0,0.0,0.0,0.0,0.0,0.0,0.0,0.0,0.0,0.0,0.0,0.0,0.0,0.0,0.0,0.0,0.0,0.0,0.0,0.0,0.0,0.0,0.0,0.0,0.0,0.0,0.0,0.0,0.0,0.0,0.0,0.0,0.0,0.0,0.0,0.0,0.0,0.0,0.0,0.0,0.0,0.0,0.0,0.0,0.0,0.0,0.0,0.0,0.0,0.0,0.0,0.0,0.0,0.0,0.0,0.0,0.0,0.0,0.0,0.0,0.0,0.0,0.0,0.0,0.0,0.0,0.0,0.0,0.0,0.0,0.0,0.0,0.0,0.0,0.0,0.0,0.0,0.0,0.0,0.0,0.0,0.0,0.0,0.0,0.0,0.0,0.0,0.0,0.0,0.0,0.0,0.0,0.0,0.0,0.0,0.0,0.0,0.0,0.0,0.0,0.0,0.0,0.0,0.0,0.0,0.0,0.0,0.0,0.0,0.0,0.0,0.0,0.0,0.0,0.0,0.0,0.0,0.0,0.0,0.0,0.0,0.0,0.0,0.0,0.0,0.0,0.0,0.0,0.0,0.0,0.0,0.0,0.0,0.0,0.0,0.0,0.0,0.0,0.0,0.0,0.0,0.0,0.0,0.0,0.0,0.4349,0.0,0.0,0.0,0.0,0.0,0.0,0.0,0.0,0.0,0.0,0.0,0.0,0.0,0.0,0.0,0.0,0.0,0.0,0.0,0.0,0.0,0.0,0.0,0.0,0.0,0.0,0.0,0.0,0.0,0.0,0.0,0.0,0.0,0.0,0.0,0.0,0.0,0.0,0.0,0.0,0.0,0.0,0.0,0.0,0.0,0.0,0.0,0.0,0.0,0.0,0.0,0.0,0.0,0.0,0.0,0.0,0.0,0.0,0.0,0.0,0.0,0.0,0.0,0.0,0.0,0.0,0.0,0.0,0.0,0.0,0.0,0.0,0.0,0.0,0.0,0.0,0.0,0.0,0.0,0.0,0.0,0.0,0.0,0.0,0.0,0.0,0.0,0.0,0.0,0.0,0.0,0.0,0.0,0.0,0.0,0.0,0.0,0.0,0.0,0.0,0.0,0.0,0.0,0.0,0.0,0.0,0.0,0.0,0.0,0.0,0.4867,0.4957,0.4851,0.4637,0.4304,0.0,0.0,0.0,0.0,0.0,0.0,0.0,0.0,0.0,0.0,0.0,0.0,0.0,0.0,0.0,0.0,0.0,0.0,0.0,0.0,0.0,0.0,0.0,0.0,0.0,0.0,0.0,0.0,0.0,0.0,0.0,0.0,0.0,0.0,0.0,0.0,0.0,0.0,0.0,0.0,0.0,0.0,0.0,0.0,0.0,0.0,0.0,0.0,0.0,0.0,0.0,0.0,0.0,0.0,0.0,0.0,0.0,0.0,0.0,0.0,0.0,0.0,0.0,0.0,0.0,0.0,0.0,0.0,0.0,0.0,0.0,0.0,0.0,0.0,0.0,0.0,0.0,0.0,0.0,0.0,0.0,0.0,0.0,0.0,0.0,0.0,0.0,0.0,0.0,0.0,0.0,0.0,0.0,0.0,0.0,0.0,0.0,0.0,0.0,0.0,0.0,0.0,0.0,0.0,0.0,0.0,0.0,0.0,0.0,0.0,0.0,0.0,0.5471,0.5202,0.5046,0.0,0.0,0.0,0.0,0.0,0.0,0.0,0.0,0.0,0.0,0.0,0.0,0.0,0.0,0.0,0.0,0.0,0.0,0.0,0.0,0.0,0.0,0.0,0.0,0.0,0.0,0.0,0.0,0.0,0.0,0.0,0.0,0.0,0.0,0.0,0.0,0.0,0.0,0.0,0.0,0.0,0.0,0.0,0.0,0.0,0.0,0.0,0.0,0.0,0.0,0.0,0.0,0.0,0.0,0.0,0.0,0.0,0.0,0.0,0.0,0.0,0.0,0.0,0.0,0.0,0.0,0.0,0.0,0.0,0.0,0.0,0.0,0.0,0.0,0.0,0.0,0.0,0.0,0.0,0.0,0.0,0.0,0.0,0.0,0.0,0.0,0.0,0.0,0.0,0.0,0.0,0.0,0.0,0.0,0.0,0.0,0.0,0.0,0.0,0.0,0.0,0.0,0.0,0.0,0.0,0.0,0.0,0.0,0.0,0.0,0.6103,0.8362,0.7465,0.0,0.7215,0.0,0.0,0.0,0.0,0.0,0.0,0.0,0.0,0.0,0.0,0.0,0.0,0.0,0.0,0.0,0.0,0.0,0.0,0.0,0.0,0.0,0.0,0.0,0.0,0.0,0.0,0.0,0.0,0.0,0.0,0.0,0.0,0.0,0.0,0.0,0.0,0.0,0.0,0.0,0.0,0.0,0.0,0.0,0.0,0.0,0.0,0.0,0.0,0.0,0.0,0.0,0.0,0.0,0.0,0.0,0.0,0.0,0.0,0.0,0.0,0.0,0.0,0.0,0.0,0.0,0.0,0.0,0.0,0.0,0.0,0.0,0.0,0.0,0.0,0.0,0.0,0.0,0.0,0.0,0.0,0.0,0.0,0.0,0.0,0.0,0.0,0.0,0.0,0.0,0.0,0.0,0.0,0.0,0.0,0.0,0.0,0.0,0.0,0.0,0.0,0.0,0.0,0.0,0.0,0.0,0.0,0.0,0.0,0.0,0.0,0.6558,0.8049,0.7395,0.7016,0.0,0.0,0.0,0.0,0.0,0.0,0.0,0.0,0.0,0.0,0.0,0.0,0.0,0.0,0.0,0.0,0.0,0.0,0.0,0.0,0.0,0.0,0.0,0.0,0.0,0.0,0.0,0.0,0.0,0.0,0.0,0.0,0.0,0.0,0.0,0.0,0.0,0.0,0.0,0.0,0.0,0.0,0.0,0.0,0.0,0.0,0.0,0.0,0.0,0.0,0.0,0.0,0.0,0.0,0.0,0.0,0.0,0.0,0.0,0.0,0.0,0.0,0.0,0.0,0.0,0.0,0.0,0.0,0.0,0.0,0.0,0.0,0.0,0.0,0.0,0.0,0.0,0.0,0.0,0.0,0.0,0.0,0.0,0.0,0.0,0.0,0.0,0.0,0.0,0.0,0.0,0.0,0.0,0.0,0.0,0.0,0.0,0.0,0.0,0.0,0.0,0.0,0.0,0.0,0.0,0.0,0.0,0.0,0.0,0.0,0.6414,0.6848,0.771,0.7107,0.6799,0.701,0.0,0.0,0.0,0.0,0.0,0.0,0.0,0.0,0.0,0.0,0.0,0.0,0.0,0.0,0.0,0.0,0.0,0.0,0.0,0.0,0.0,0.0,0.0,0.0,0.0,0.0,0.0,0.0,0.0,0.0,0.0,0.0,0.0,0.0,0.0,0.0,0.0,0.0,0.0,0.0,0.0,0.0,0.0,0.0,0.0,0.0,0.0,0.0,0.0,0.0,0.0,0.0,0.0,0.0,0.0,0.0,0.0,0.0,0.0,0.0,0.0,0.0,0.0,0.0,0.0,0.0,0.0,0.0,0.0,0.0,0.0,0.0,0.0,0.0,0.0,0.0,0.0,0.0,0.0,0.0,0.0,0.0,0.0,0.0,0.0,0.0,0.0,0.0,0.0,0.0,0.0,0.0,0.0,0.0,0.0,0.0,0.0,0.0,0.0,0.0,0.0,0.0,0.0,0.0,0.0,0.0,0.0,0.0,0.9635,0.759,0.7025,0.8269,0.6986,0.6787,0.0,0.0,0.0,0.0,0.0,0.0,0.0,0.0,0.0,0.0,0.0,0.0,0.0,0.0,0.0,0.0,0.0,0.0,0.0,0.0,0.0,0.0,0.0,0.0,0.0,0.0,0.0,0.0,0.0,0.0,0.0,0.0,0.0,0.0,0.0,0.0,0.0,0.0,0.0,0.0,0.0,0.0,0.0,0.0,0.0,0.0,0.0,0.0,0.0,0.0,0.0,0.0,0.0,0.0,0.0,0.0,0.0,0.0,0.0,0.0,0.0,0.0,0.0,0.0,0.0,0.0,0.0,0.0,0.0,0.0,0.0,0.0,0.0,0.0,0.0,0.0,0.0,0.0,0.0,0.0,0.0,0.0,0.0,0.0,0.0,0.0,0.0,0.0,0.0,0.0,0.0,0.0,0.0,0.0,0.0,0.0,0.0,0.0,0.0,0.0,0.0,0.0,0.0,0.0,0.0,0.0,0.0,0.0,0.0,0.6864,0.7069,0.7592,0.8394,0.7693,0.7531,0.0,0.0,0.0,0.0,0.0,0.0,0.0,0.0,0.0,0.0,0.0,0.0,0.0,0.0,0.0,0.0,0.0,0.0,0.0,0.0,0.0,0.0,0.0,0.0,0.0,0.0,0.0,0.0,0.0,0.0,0.0,0.0,0.0,0.0,0.0,0.0,0.0,0.0,0.0,0.0,0.0,0.0,0.0,0.0,0.0,0.0,0.0,0.0,0.0,0.0,0.0,0.0,0.0,0.0,0.0,0.0,0.0,0.0,0.0,0.0,0.0,0.0,0.0,0.0,0.0,0.0,0.0,0.0,0.0,0.0,0.0,0.0,0.0,0.0,0.0,0.0,0.0,0.0,0.0,0.0,0.0,0.0,0.0,0.0,0.0,0.0,0.0,0.0,0.0,0.0,0.0,0.0,0.0,0.0,0.0,0.0,0.0,0.0,0.0,0.0,0.0,0.0,0.0,0.0,0.0,0.0,0.0,0.0,0.0,0.5935,0.0,0.8084,0.8119,0.7866,0.7567,0.0,0.0,0.0,0.0,0.0,0.0,0.0,0.0,0.0,0.0,0.0,0.0,0.0,0.0,0.0,0.0,0.0,0.0,0.0,0.0,0.0,0.0,0.0,0.0,0.0,0.0,0.0,0.0,0.0,0.0,0.0,0.0,0.0,0.0,0.0,0.0,0.0,0.0,0.0,0.0,0.0,0.0,0.0,0.0,0.0,0.0,0.0,0.0,0.0,0.0,0.0,0.0,0.0,0.0,0.0,0.0,0.0,0.0,0.0,0.0,0.0,0.0,0.0,0.0,0.0,0.0,0.0,0.0,0.0,0.0,0.0,0.0,0.0,0.0,0.0,0.0,0.0,0.0,0.0,0.0,0.0,0.0,0.0,0.0,0.0,0.0,0.0,0.0,0.0,0.0,0.0,0.0,0.0,0.0,0.0,0.0,0.0,0.0,0.0,0.0,0.0,0.0,0.0,0.0,0.0,0.0,0.0,0.0,0.587,0.7487,0.836,0.836,0.7484,0.7332,0.6835,0.0,0.0,0.0,0.0,0.0,0.0,0.0,0.0,0.0,0.0,0.0,0.0,0.0,0.0,0.0,0.0,0.0,0.0,0.0,0.0,0.0,0.0,0.0,0.0,0.0,0.0,0.0,0.0,0.0,0.0,0.0,0.0,0.0,0.0,0.0,0.0,0.0,0.0,0.0,0.0,0.0,0.0,0.0,0.0,0.0,0.0,0.0,0.0,0.0,0.0,0.0,0.0,0.0,0.0,0.0,0.0,0.0,0.0,0.0,0.0,0.0,0.0,0.0,0.0,0.0,0.0,0.0,0.0,0.0,0.0,0.0,0.0,0.0,0.0,0.0,0.0,0.0,0.0,0.0,0.0,0.0,0.0,0.0,0.0,0.0,0.0,0.0,0.0,0.0,0.0,0.0,0.0,0.0,0.0,0.0,0.0,0.0,0.0,0.0,0.0,0.0,0.0,0.0,0.0,0.0,0.0,0.0,0.0,0.0,0.681,0.7173,0.7853,0.8728,0.6985,0.6615,0.0,0.0,0.0,0.0,0.0,0.0,0.0,0.0,0.0,0.0,0.0,0.0,0.0,0.0,0.0,0.0,0.0,0.0,0.0,0.0,0.0,0.0,0.0,0.0,0.0,0.0,0.0,0.0,0.0,0.0,0.0,0.0,0.0,0.0,0.0,0.0,0.0,0.0,0.0,0.0,0.0,0.0,0.0,0.0,0.0,0.0,0.0,0.0,0.0,0.0,0.0,0.0,0.0,0.0,0.0,0.0,0.0,0.0,0.0,0.0,0.0,0.0,0.0,0.0,0.0,0.0,0.0,0.0,0.0,0.0,0.0,0.0,0.0,0.0,0.0,0.0,0.0,0.0,0.0,0.0,0.0,0.0,0.0,0.0,0.0,0.0,0.0,0.0,0.0,0.0,0.0,0.0,0.0,0.0,0.0,0.0,0.0,0.0,0.0,0.0,0.0,0.0,0.0,0.0,0.0,0.0,0.0,0.0,0.0,0.7324,0.7688,0.8167,0.8663,0.7226,0.6814,0.7567,0.0,0.0,0.0,0.0,0.0,0.0,0.0,0.0,0.0,0.0,0.0,0.0,0.0,0.0,0.0,0.0,0.0,0.0,0.0,0.0,0.0,0.0,0.0,0.0,0.0,0.0,0.0,0.0,0.0,0.0,0.0,0.0,0.0,0.0,0.0,0.0,0.0,0.0,0.0,0.0,0.0,0.0,0.0,0.0,0.0,0.0,0.0,0.0,0.0,0.0,0.0,0.0,0.0,0.0,0.0,0.0,0.0,0.0,0.0,0.0,0.0,0.0,0.0,0.0,0.0,0.0,0.0,0.0,0.0,0.0,0.0,0.0,0.0,0.0,0.0,0.0,0.0,0.0,0.0,0.0,0.0,0.0,0.0,0.0,0.0,0.0,0.0,0.0,0.0,0.0,0.0,0.0,0.0,0.0,0.0,0.0,0.0,0.0,0.0,0.0,0.0,0.0,0.0,0.0,0.0,0.0,0.0,0.0,0.8776,0.96,0.9254,0.7677,0.7975,0.7363,0.0,0.0,0.0,0.0,0.0,0.0,0.0,0.0,0.0,0.0,0.0,0.0,0.0,0.0,0.0,0.0,0.0,0.0,0.0,0.0,0.0,0.0,0.0,0.0,0.0,0.0,0.0,0.0,0.0,0.0,0.0,0.0,0.0,0.0,0.0,0.0,0.0,0.0,0.0,0.0,0.0,0.0,0.0,0.0,0.0,0.0,0.0,0.0,0.0,0.0,0.0,0.0,0.0,0.0,0.0,0.0,0.0,0.0,0.0,0.0,0.0,0.0,0.0,0.0,0.0,0.0,0.0,0.0,0.0,0.0,0.0,0.0,0.0,0.0,0.0,0.0,0.0,0.0,0.0,0.0,0.0,0.0,0.0,0.0,0.0,0.0,0.0,0.0,0.0,0.0,0.0,0.0,0.0,0.0,0.0,0.0,0.0,0.0,0.0,0.0,0.0,0.0,0.0,0.0,0.0,0.0,0.0,0.0,0.0,0.9644,1.0382,1.0722,1.0519,0.8876,0.8118,0.0,0.0,0.0,0.0,0.0,0.0,0.0,0.0,0.0,0.0,0.0,0.0,0.0,0.0,0.0,0.0,0.0,0.0,0.0,0.0,0.0,0.0,0.0,0.0,0.0,0.0,0.0,0.0,0.0,0.0,0.0,0.0,0.0,0.0,0.0,0.0,0.0,0.0,0.0,0.0,0.0,0.0,0.0,0.0,0.0,0.0,0.0,0.0,0.0,0.0,0.0,0.0,0.0,0.0,0.0,0.0,0.0,0.0,0.0,0.0,0.0,0.0,0.0,0.0,0.0,0.0,0.0,0.0,0.0,0.0,0.0,0.0,0.0,0.0,0.0,0.0,0.0,0.0,0.0,0.0,0.0,0.0,0.0,0.0,0.0,0.0,0.0,0.0,0.0,0.0,0.0,0.0,0.0,0.0,0.0,0.0,0.0,0.0,0.0,0.0,0.0,0.0,0.0,0.0,0.0,0.0,0.0,0.0,1.1169,1.0483,1.1181,1.1746,1.2062,1.0034,0.8789,0.0,0.0,0.0,0.0,0.0,0.0,0.0,0.0,0.0,0.0,0.0,0.0,0.0,0.0,0.0,0.0,0.0,0.0,0.0,0.0,0.0,0.0,0.0,0.0,0.0,0.0,0.0,0.0,0.0,0.0,0.0,0.0,0.0,0.0,0.0,0.0,0.0,0.0,0.0,0.0,0.0,0.0,0.0,0.0,0.0,0.0,0.0,0.0,0.0,0.0,0.0,0.0,0.0,0.0,0.0,0.0,0.0,0.0,0.0,0.0,0.0,0.0,0.0,0.0,0.0,0.0,0.0,0.0,0.0,0.0,0.0,0.0,0.0,0.0,0.0,0.0,0.0,0.0,0.0,0.0,0.0,0.0,0.0,0.0,0.0,0.0,0.0,0.0,0.0,0.0,0.0,0.0,0.0,0.0,0.0,0.0,0.0,0.0,0.0,0.0,0.0,0.0,0.0,0.0,0.0,0.0,0.0,0.0,1.1522,1.1321,1.1981,1.2412,1.2525,1.1056,0.9421,0.0,0.0,0.0,0.0,0.0,0.0,0.0,0.0,0.0,0.0,0.0,0.0,0.0,0.0,0.0,0.0,0.0,0.0,0.0,0.0,0.0,0.0,0.0,0.0,0.0,0.0,0.0,0.0,0.0,0.0,0.0,0.0,0.0,0.0,0.0,0.0,0.0,0.0,0.0,0.0,0.0,0.0,0.0,0.0,0.0,0.0,0.0,0.0,0.0,0.0,0.0,0.0,0.0,0.0,0.0,0.0,0.0,0.0,0.0,0.0,0.0,0.0,0.0,0.0,0.0,0.0,0.0,0.0,0.0,0.0,0.0,0.0,0.0,0.0,0.0,0.0,0.0,0.0,0.0,0.0,0.0,0.0,0.0,0.0,0.0,0.0,0.0,0.0,0.0,0.0,0.0,0.0,0.0,0.0,0.0,0.0,0.0,0.0,0.0,0.0,0.0,0.0,0.0,0.0,0.0,0.0,0.0,0.0,1.2345,1.2171,1.2742,1.2859,1.2436,1.07,0.975,0.0,0.0,0.0,0.0,0.0,0.0,0.0,0.0,0.0,0.0,0.0,0.0,0.0,0.0,0.0,0.0,0.0,0.0,0.0,0.0,0.0,0.0,0.0,0.0,0.0,0.0,0.0,0.0,0.0,0.0,0.0,0.0,0.0,0.0,0.0,0.0,0.0,0.0,0.0,0.0,0.0,0.0,0.0,0.0,0.0,0.0,0.0,0.0,1.5059,0.0,0.0,0.0,0.0,0.0,0.0,0.0,0.0,0.0,0.0,0.0,0.0,0.0,0.0,0.0,0.0,0.0,0.0,0.0,0.0,0.0,0.0,0.0,0.0,0.0,0.0,0.0,0.0,0.0,0.0,0.0,0.0,0.0,0.0,0.0,0.0,0.0,0.0,0.0,0.0,0.0,0.0,0.0,0.0,0.0,0.0,0.0,0.0,0.0,0.0,0.0,0.0,0.0,0.0,0.0,0.0,0.0,0.0,0.0,1.2629,1.2476,1.3381,1.3556,1.2889,1.0994,1.0112,0.0,0.0,0.0,0.0,0.0,0.0,0.0,0.0,0.0,0.0,0.0,0.0,0.0,0.0,0.0,0.0,0.0,0.0,0.0,0.0,0.0,0.0,0.0,0.0,0.0,0.0,0.0,0.0,0.0,0.0,0.0,0.0,0.0,0.0,0.0,0.0,0.0,0.0,0.0,0.0,0.0,0.0,0.0,0.0,0.0,0.0,0.0,0.0,0.0,0.0,0.0,0.0,0.0,0.0,0.0,0.0,0.0,0.0,0.0,0.0,0.0,0.0,0.0,0.0,0.0,0.0,0.0,0.0,0.0,0.0,0.0,0.0,0.0,0.0,0.0,0.0,0.0,0.0,0.0,0.0,0.0,0.0,0.0,0.0,0.0,0.0,0.0,0.0,0.0,0.0,0.0,0.0,0.0,0.0,0.0,0.0,0.0,0.0,0.0,0.0,0.0,0.0,0.0,0.0,0.0,0.0,0.0,1.2048,1.2709,1.2738,1.3734,1.3972,1.3333,1.1418,1.041,1.0483,0.0,0.0,0.0,0.0,0.0,0.0,0.0,0.0,0.0,0.0,0.0,0.0,0.0,0.0,0.0,0.0,0.0,0.0,0.0,0.0,0.0,0.0,0.0,0.0,0.0,0.0,0.0,0.0,0.0,0.0,0.0,0.0,0.0,0.0,0.0,0.0,0.0,0.0,1.188,1.3436,0.0,0.0,0.0,0.0,0.0,0.0,0.0,0.0,1.5437,0.0,0.0,0.0,0.0,0.0,0.0,0.0,0.0,0.0,0.0,0.0,0.0,0.0,0.0,0.0,0.0,0.0,0.0,0.0,0.0,0.0,0.0,0.0,0.0,0.0,0.0,0.0,0.0,0.0,0.0,0.0,0.0,0.0,0.0,0.0,0.0,0.0,0.0,0.0,0.0,0.0,0.0,0.0,0.0,0.0,0.0,0.0,0.0,0.0,0.0,0.0,0.0,0.0,0.0,0.0,0.0,1.3356,1.293,1.2981,1.3576,1.3415,1.3111,1.2547,1.1097,1.0327,1.0305,0.0,0.0,0.0,0.0,0.0,0.0,0.0,0.0,0.0,0.0,0.0,0.0,0.0,0.0,0.0,0.0,0.0,0.0,0.0,0.0,0.0,0.0,0.0,0.0,0.0,0.0,0.0,0.0,0.0,0.0,0.0,0.0,0.0,0.0,0.0,0.0,0.0,0.0,0.0,1.4711,1.6211,0.0,0.0,0.0,0.0,0.0,0.0,0.0,0.0,1.7631,0.0,0.0,0.0,0.0,0.0,0.0,0.0,0.0,0.0,0.0,0.0,0.0,0.0,0.0,0.0,0.0,0.0,0.0,0.0,0.0,0.0,0.0,0.0,0.0,0.0,0.0,0.0,0.0,0.0,0.0,0.0,0.0,0.0,0.0,0.0,0.0,0.0,0.0,0.0,0.0,0.0,0.0,0.0,0.0,0.0,0.0,0.0,0.0,0.0,0.0,0.0,0.0,0.0,0.0,0.0,1.2599,1.2661,1.2831,1.3065,1.3177,1.292,1.2354,1.0847,1.0261,0.0,0.0,0.0,0.0,0.0,0.0,0.0,0.0,0.0,0.0,0.0,0.0,0.0,0.0,0.0,0.0,0.0,0.0,0.0,0.0,0.0,0.0,0.0,0.0,0.0,0.0,0.0,0.0,0.0,0.0,0.0,0.0,0.0,0.0,0.0,0.0,0.0,0.0,0.0,0.0,1.5184,1.5898,1.5827,0.0,0.0,0.0,0.0,0.0,0.0,1.9389,2.0771,0.0,0.0,0.0,0.0,0.0,0.0,0.0,0.0,0.0,0.0,0.0,0.0,0.0,0.0,0.0,0.0,0.0,0.0,0.0,0.0,0.0,0.0,0.0,0.0,0.0,0.0,0.0,0.0,0.0,0.0,0.0,0.0,0.0,0.0,0.0,0.0,0.0,0.0,0.0,0.0,0.0,0.0,0.0,0.0,0.0,0.0,0.0,0.0,0.0,0.0,0.0,0.0,0.0,0.0,0.0,1.1835,1.2209,1.2344,1.2194,1.2565,1.2485,1.1859,1.0437,1.0073,0.0,0.0,0.0,0.0,0.0,0.0,0.0,0.0,0.0,0.0,0.0,0.0,0.0,0.0,0.0,0.0,0.0,0.0,0.0,0.0,0.0,0.0,0.0,0.0,0.0,0.0,0.0,0.0,0.0,0.0,0.0,0.0,0.0,0.0,0.0,0.0,0.0,0.0,0.0,0.0,0.0,1.6444,1.6023,1.8133,0.0,0.0,0.0,0.0,1.835,2.1668,0.0,0.0,0.0,0.0,0.0,0.0,0.0,0.0,0.0,0.0,0.0,0.0,0.0,0.0,0.0,0.0,0.0,0.0,0.0,0.0,0.0,0.0,0.0,0.0,0.0,0.0,0.0,0.0,0.0,0.0,0.0,0.0,0.0,0.0,0.0,0.0,0.0,0.0,0.0,0.0,0.0,0.0,0.0,0.0,0.0,0.0,0.0,0.0,0.0,0.0,0.0,0.0,0.0,0.0,0.0,0.0,1.3447,1.2206,1.1465,1.1331,1.1129,1.0799,1.0354,0.9595,0.954,0.0,0.0,0.0,0.0,0.0,0.0,0.0,0.0,0.0,0.0,0.0,0.0,0.0,0.0,0.0,0.0,0.0,0.0,0.0,0.0,0.0,0.0,0.0,0.0,0.0,0.0,0.0,0.0,0.0,0.0,0.0,0.0,0.0,0.0,0.0,0.0,0.0,0.0,0.0,0.0,0.0,2.0354,1.8709,2.0638,2.1882,0.0,0.0,2.0278,2.0896,2.4033,0.0,0.0,0.0,0.0,0.0,0.0,0.0,0.0,0.0,0.0,0.0,0.0,0.0,0.0,0.0,0.0,0.0,0.0,0.0,0.0,0.0,0.0,0.0,0.0,0.0,0.0,0.0,0.0,0.0,0.0,0.0,0.0,0.0,0.0,0.0,0.0,0.0,0.0,0.0,0.0,0.0,0.0,0.0,0.0,0.0,0.0,0.0,0.0,0.0,0.0,0.0,0.0,0.0,0.0,0.0,1.3774,1.3698,1.2155,1.1289,1.1192,1.0923,1.054,1.0048,0.907,0.9231,0.0,0.0,0.0,0.0,0.0,0.0,0.0,0.0,0.0,0.0,0.0,0.0,0.0,0.0,0.0,0.0,0.0,0.0,0.0,0.0,0.0,0.0,0.0,0.0,0.0,0.0,0.0,0.0,0.0,0.0,0.0,0.0,0.0,0.0,0.0,0.0,0.0,0.0,0.0,0.0,0.0,0.0,1.9798,2.1408,0.0,0.0,0.0,2.1582,2.2053,0.0,0.0,0.0,0.0,0.0,0.0,0.0,0.0,0.0,0.0,0.0,0.0,0.0,0.0,0.0,0.0,0.0,0.0,0.0,0.0,0.0,0.0,0.0,0.0,0.0,0.0,0.0,0.0,0.0,0.0,0.0,0.0,0.0,0.0,0.0,0.0,0.0,0.0,0.0,0.0,0.0,0.0,0.0,0.0,0.0,0.0,0.0,0.0,0.0,0.0,0.0,0.0,0.0,0.0,0.0,0.0,0.0,1.3975,1.1999,1.0937,1.0887,1.062,1.024,0.9727,0.8644,0.0,0.0,0.0,0.0,0.0,0.0,0.0,0.0,0.0,0.0,0.0,0.0,0.0,0.0,0.0,0.0,0.0,0.0,0.0,0.0,0.0,0.0,0.0,0.0,0.0,0.0,0.0,1.6195,0.0,0.0,0.0,0.0,0.0,0.0,0.0,0.0,0.0,0.0,0.0,0.0,0.0,0.0,2.126,2.0946,2.2315,2.3036,0.0,0.0,2.3179,2.3187,2.2849,2.2767,0.0,0.0,0.0,0.0,0.0,0.0,0.0,0.0,0.0,0.0,0.0,0.0,0.0,0.0,0.0,0.0,0.0,0.0,0.0,0.0,0.0,0.0,0.0,0.0,0.0,0.0,0.0,0.0,0.0,0.0,0.0,0.0,0.0,0.0,0.0,0.0,0.0,0.0,0.0,0.0,0.0,0.0,0.0,0.0,0.0,0.0,0.0,0.0,0.0,0.0,0.0,0.0,0.0,0.0,1.4125,1.4688,1.1706,1.0098,1.0067,0.975,0.9393,0.8966,0.8351,0.9166,0.0,0.0,0.0,0.0,0.0,0.0,0.0,0.0,0.0,0.0,0.0,0.0,0.0,0.0,0.0,0.0,0.0,0.0,0.0,0.0,0.0,0.0,0.0,0.0,0.0,0.0,0.0,0.0,0.0,0.0,0.0,0.0,0.0,0.0,0.0,0.0,0.0,0.0,0.0,0.0,0.0,2.3665,2.2673,2.4079,2.483,0.0,2.4419,2.4984,2.4841,2.4653,2.3939,2.2303,0.0,0.0,0.0,0.0,0.0,0.0,0.0,0.0,0.0,0.0,0.0,0.0,0.0,0.0,0.0,0.0,0.0,0.0,0.0,0.0,0.0,0.0,0.0,0.0,0.0,0.0,0.0,0.0,0.0,0.0,0.0,0.0,0.0,0.0,0.0,0.0,0.0,0.0,0.0,0.0,0.0,0.0,0.0,0.0,0.0,0.0,0.0,0.0,0.0,0.0,0.0,0.0,0.0,1.4694,1.4863,1.1666,1.0019,0.999,0.9601,0.9206,0.8921,0.8598,0.9259,0.0,0.0,0.0,0.0,0.0,0.0,0.0,0.0,0.0,0.0,0.0,0.0,0.0,0.0,0.0,0.0,0.0,0.0,0.0,0.0,0.0,0.0,0.0,0.0,0.0,0.0,0.0,0.0,1.8049,1.8285,1.949,0.0,0.0,0.0,0.0,0.0,0.0,0.0,0.0,0.0,0.0,2.4827,2.4416,2.4928,0.0,0.0,2.4958,2.5487,2.6346,2.5488,2.447,2.3737,2.395,0.0,0.0,0.0,0.0,0.0,0.0,0.0,0.0,0.0,0.0,0.0,0.0,0.0,0.0,0.0,0.0,0.0,0.0,0.0,0.0,0.0,0.0,0.0,0.0,0.0,0.0,0.0,0.0,0.0,0.0,0.0,0.0,0.0,0.0,0.0,0.0,0.0,0.0,0.0,0.0,0.0,0.0,0.0,0.0,0.0,0.0,0.0,0.0,0.0,0.0,0.0,0.0,1.5303,1.4952,1.2174,1.0625,1.0338,0.9944,0.9672,0.9543,0.9133,0.96,0.0,0.0,0.0,0.0,0.0,0.0,0.0,0.0,0.0,0.0,0.0,0.0,0.0,0.0,0.0,0.0,0.0,0.0,0.0,0.0,0.0,0.0,0.0,0.0,0.0,0.0,0.0,0.0,1.9655,1.9612,2.0375,0.0,0.0,0.0,0.0,0.0,0.0,0.0,0.0,0.0,0.0,2.5415,2.5387,2.5543,2.5633,2.5538,2.5359,2.5526,2.6508,2.5548,2.4673,2.4673,0.0,0.0,0.0,0.0,0.0,0.0,0.0,0.0,0.0,0.0,0.0,0.0,0.0,0.0,0.0,0.0,0.0,0.0,0.0,0.0,0.0,0.0,0.0,0.0,0.0,0.0,0.0,1.1248,0.0,0.0,1.3755,0.0,0.0,0.0,0.0,0.0,0.0,0.0,0.0,0.0,0.0,0.0,0.0,0.0,0.0,0.0,0.0,0.0,0.0,0.0,0.0,0.0,0.0,1.5898,1.5114,1.3312,1.1972,1.1107,1.0865,1.0849,1.0997,0.9911,1.0214,1.2123,0.0,0.0,0.0,0.0,0.0,0.0,0.0,0.0,0.0,0.0,0.0,0.0,0.0,0.0,0.0,0.0,0.0,0.0,0.0,0.0,0.0,0.0,0.0,0.0,0.0,0.0,2.3261,2.2962,2.2247,0.0,0.0,0.0,0.0,0.0,0.0,0.0,0.0,0.0,0.0,2.5456,2.5444,2.5313,2.5955,2.6347,2.6274,2.5672,2.5182,2.508,2.4907,2.4707,0.0,0.0,0.0,0.0,0.0,0.0,0.0,0.0,0.0,0.0,0.0,0.0,0.0,0.0,0.0,0.0,0.0,0.0,0.0,0.0,0.0,0.0,0.0,0.0,0.0,0.0,0.0,1.4353,1.4419,0.0,0.0,0.0,0.0,0.0,0.0,0.0,0.0,0.0,0.0,0.0,1.826,1.7428,0.0,0.0,0.0,0.0,0.0,0.0,0.0,0.0,0.0,0.0,0.0,0.0,1.6823,1.5923,1.372,1.2399,1.2026,1.1667,1.1379,1.1174,1.0768,1.1496,1.3465,0.0,0.0,0.0,0.0,0.0,0.0,0.0,0.0,0.0,0.0,0.0,0.0,0.0,0.0,0.0,0.0,0.0,0.0,0.0,0.0,0.0,0.0,0.0,0.0,0.0,2.2583,0.0,0.0,0.0,0.0,0.0,0.0,0.0,0.0,0.0,0.0,0.0,2.5564,2.5412,2.5341,2.5293,2.5302,2.548,2.5795,0.0,0.0,0.0,0.0,0.0,0.0,0.0,0.0,0.0,0.0,0.0,0.0,0.0,0.0,2.7981,2.7098,2.6247,2.5565,2.526,0.0,0.0,0.0,0.0,0.0,0.0,0.0,0.0,0.0,0.0,0.0,0.0,0.0,0.0,1.5752,0.0,1.5951,0.0,0.0,0.0,0.0,0.0,0.0,0.0,0.0,1.8513,1.8318,1.8425,1.7572,1.7622,0.0,1.8943,1.9165,0.0,0.0,0.0,0.0,0.0,0.0,0.0,0.0,1.7477,1.6019,1.4366,1.331,1.2891,1.2474,1.2198,1.1961,1.174,1.2493,1.4304,1.4867,1.539,0.0,0.0,0.0,0.0,0.0,0.0,0.0,0.0,0.0,0.0,0.0,0.0,0.0,0.0,0.0,0.0,0.0,0.0,0.0,0.0,0.0,0.0,0.0,2.3458,0.0,0.0,0.0,0.0,0.0,0.0,0.0,0.0,0.0,2.5564,2.5557,2.5744,2.6206,2.6154,2.5968,2.5718,0.0,0.0,0.0,0.0,0.0,0.0,0.0,2.7636,2.6604,2.7069,2.7443,2.7054,2.7803,2.8468,2.8529,0.0,0.0,2.7759,2.6975,2.6288,2.6109,2.6491,2.7132,2.8132,2.8955,2.9738,0.0,0.0,0.0,0.0,0.0,0.0,0.0,0.0,1.502,1.5433,0.0,1.6107,0.0,0.0,0.0,0.0,2.0257,2.027,0.0,0.0,1.9111,1.8654,1.7941,1.7805,1.7734,1.7856,1.9487,1.9861,1.9162,1.9993,0.0,0.0,0.0,0.0,0.0,0.0,1.7825,1.5466,1.5224,1.4667,1.3686,1.3382,1.3278,1.3339,1.2781,1.3141,1.4642,1.5399,1.6507,1.8117,1.9299,0.0,0.0,0.0,0.0,0.0,0.0,0.0,0.0,0.0,0.0,0.0,0.0,0.0,0.0,0.0,0.0,0.0,0.0,0.0,0.0,2.5,0.0,0.0,0.0,0.0,0.0,0.0,0.0,0.0,0.0,0.0,2.5492,2.5503,2.6115,2.7759,0.0,0.0,0.0,0.0,2.7306,2.6446,2.8389,2.9326,2.7595,2.6005,2.6059,2.9138,0.0,0.0,2.7148,2.7902,2.878,2.8495,2.8263,2.778,2.7828,2.8128,2.8275,2.7873,2.7497,2.7596,2.8856,3.0051,3.077,1.891,0.0,0.0,0.0,0.0,1.8525,1.8118,1.7476,1.8012,1.7725,1.6962,1.7433,0.0,0.0,0.0,0.0,0.0,0.0,2.0159,1.9913,1.9316,1.9218,1.955,1.8715,1.8446,1.8669,1.9773,1.985,1.9104,1.9947,2.0861,2.1738,0.0,0.0,0.0,0.0,1.7549,1.6334,1.5579,1.5018,1.4608,1.4231,1.377,1.3206,1.3195,1.3722,1.4875,1.5168,1.6292,1.8292,1.8775,0.0,0.0,0.0,0.0,0.0,0.0,0.0,0.0,0.0,0.0,0.0,0.0,0.0,0.0,0.0,0.0,0.0,0.0,0.0,2.5082,2.4993,2.4879,0.0,0.0,0.0,0.0,0.0,0.0,0.0,0.0,0.0,2.5519,2.5506,2.6516,0.0,0.0,2.7821,2.8154,2.7389,2.7096,2.8011,2.7157,0.0,2.8877,2.8644,2.8628,2.9691,2.9874,2.9836,2.9828,3.0297,3.0804,3.1091,3.146,3.1219,2.9545,2.8793,2.8777,2.9306,2.9989,3.048,3.0757,3.1994,3.3294,2.1001,1.9787,1.9235,1.9411,2.0018,2.0037,1.9611,1.892,1.9328,1.9175,1.8633,1.9063,1.9508,1.997,2.0645,0.0,0.0,0.0,2.1347,2.1313,2.0766,2.0623,2.0762,2.0081,1.9677,1.9573,2.0361,2.0342,1.9511,2.0104,2.0677,2.1228,0.0,0.0,2.0019,1.929,1.8358,1.7248,1.6581,1.6178,1.598,1.5129,1.4367,1.3711,1.3694,1.4314,1.5588,1.5594,1.6408,1.8198,1.8517,1.9353,0.0,0.0,0.0,0.0,0.0,0.0,0.0,0.0,0.0,0.0,0.0,2.4673,2.4673,0.0,0.0,0.0,2.5094,2.518,2.5043,2.4968,0.0,0.0,0.0,0.0,0.0,0.0,0.0,2.5486,2.5476,2.5719,2.6359,2.6391,2.7174,2.9289,2.9627,2.9493,2.8976,0.0,2.7636,2.8264,2.701,2.6641,2.8574,2.9374,2.9808,2.9891,3.0476,3.0722,3.0614,3.1257,3.2182,3.3053,3.3164,3.2555,3.1087,3.044,3.0295,3.1049,3.1938,3.2469,3.2297,3.3048,3.3999,2.3034,2.2393,2.221,2.1615,2.081,2.0877,2.0433,1.973,1.9708,2.0062,2.0597,2.0736,2.1287,2.2125,2.2441,0.0,2.2802,2.2855,2.2929,2.2987,2.2874,2.2442,2.1806,2.1666,2.1216,2.0523,2.1254,2.1177,2.0446,2.055,2.0485,2.0338,2.1301,2.0952,1.943,2.0018,1.9599,1.8033,1.7928,1.7754,1.7452,1.6048,1.5095,1.4692,1.4307,1.4927,1.6606,1.6414,1.6808,1.7949,1.8488,1.9335,2.0529,0.0,0.0,0.0,0.0,0.0,0.0,0.0,0.0,0.0,0.0,0.0,0.0,0.0,0.0,0.0,2.5063,0.0,2.4996,2.4943,0.0,0.0,0.0,2.5175,2.5361,2.5365,2.5367,2.5464,0.0,0.0,2.7873,2.798,2.8063,2.8568,3.0791,3.158,2.9402,2.8973,2.8613,2.796,2.7766,2.7717,2.7886,2.8974,2.9983,3.0265,3.1402,3.18,3.0779,3.1442,3.3051,3.451,3.3638,3.2634,3.2615,3.2664,3.2822,3.2863,3.3272,3.3589,3.3508,3.3398,3.3766,2.4341,2.4176,2.4124,2.3165,2.1773,2.2507,2.2271,2.1396,2.2027,2.1678,2.0652,2.1309,2.1888,2.2331,2.2407,2.2562,2.2802,2.2863,2.3226,2.3747,2.3113,2.3047,2.3469,2.2819,2.2378,2.2222,2.2397,2.209,2.1355,2.1982,2.1337,1.9653,2.1028,2.095,1.9366,1.8847,1.8423,1.8,1.7929,1.7633,1.7151,1.699,1.6498,1.5608,1.5295,1.5694,1.6792,1.62,1.6567,1.8073,1.8888,1.9777,2.0754,2.14,0.0,0.0,0.0,0.0,0.0,0.0,0.0,0.0,0.0,2.4723,2.4783,0.0,2.4856,0.0,2.4985,2.5031,2.4993,2.4947,0.0,0.0,2.5076,2.5374,2.6048,2.6307,2.6128,2.5367,2.7445,2.9167,2.9602,2.9614,2.941,2.8996,2.9251,2.9817,3.0629,2.9718,2.9051,2.9372,2.9345,2.9336,2.9269,2.9588,3.0397,3.159,3.216,3.2463,3.2747,3.2918,3.3468,3.4624,3.4661,3.4376,3.4282,3.441,3.4494,3.4544,3.4251,3.383,3.3597,3.4144,3.4829,2.4917,2.4923,2.4885,2.4279,2.3322,2.381,2.3659,2.314,2.3523,2.3157,2.2273,2.2831,2.3257,2.351,2.3563,2.3724,2.3953,2.3989,2.4248,2.4654,2.4182,2.4009,2.4075,2.3606,2.3174,2.2789,2.2827,2.2626,2.2222,2.2694,2.228,2.096,2.1901,2.1901,2.0983,1.9746,1.9328,1.9729,1.9207,1.8504,1.767,1.7715,1.7536,1.7075,1.6463,1.6744,1.7948,1.7158,1.7333,1.8676,1.9204,2.004,2.1326,2.1701,2.1053,0.0,0.0,0.0,0.0,0.0,0.0,0.0,0.0,0.0,0.0,0.0,2.4898,2.4847,2.4964,2.5194,2.5684,2.5983,2.6167,2.6218,2.625,2.6448,2.6937,2.7116,2.6963,2.6402,2.795,2.9363,3.0089,3.0204,3.0046,2.9582,2.939,2.9664,3.0572,3.0009,2.9599,3.003,2.9972,2.9907,2.9907,3.1174,3.216,3.2384,3.3012,3.3468,3.3221,3.3638,3.4244,3.485,3.5001,3.5001,3.4982,3.5054,3.5105,3.5117,3.4846,3.4503,3.4292,3.4786,3.5245,2.5184,2.5118,2.5077,2.5018,2.4936,2.4741,2.4654,2.4591,2.4409,2.4339,2.4357,2.4543,2.4749,2.4945,2.5041,2.5206,2.5393,2.5423,2.5415,2.5415,2.5415,2.5009,2.4304,2.4276,2.3874,2.3163,2.3218,2.3171,2.306,2.3256,2.3251,2.3105,2.3196,2.3274,2.3208,2.164,2.1247,2.2008,2.1036,1.9969,1.8881,1.8559,1.8457,1.859,1.7607,1.7734,1.9182,1.8439,1.8417,1.9373,1.9638,2.0463,2.196,2.2025,2.2442,0.0,2.3678,0.0,0.0,0.0,0.0,0.0,0.0,0.0,0.0,2.4879,2.5002,2.5139,2.5064,2.5487,2.6625,2.7504,2.7899,2.7643,2.7675,2.7727,2.7835,2.7854,2.7912,2.8007,2.8026,2.8599,2.9975,3.0204,3.0204,3.0166,3.0128,3.0204,3.0357,3.0233,3.0109,3.0228,3.0045,3.0075,3.0888,3.3029,3.4281,3.3235,3.3901,3.4377,3.3106,3.3941,3.4945,3.5056,3.5073,3.5037,3.5092,3.5107,3.5122,3.5174,3.5152,3.5133,3.5114,3.5152,3.519,2.6025,2.5341,2.5322,2.5322,2.5302,2.5091,2.4855,2.4607,2.4578,2.454,2.457,2.4756,2.4966,2.5125,2.5171,2.5274,2.5379,2.5456,2.5476,2.5476,2.549,2.5374,2.5244,2.5228,2.5125,2.4924,2.4973,2.4627,2.3972,2.4729,2.4429,2.3166,2.381,2.4159,2.412,0.0,0.0,0.0,2.2391,2.1853,2.1223,2.0338,1.9741,1.9363,1.8006,0.0,1.854,1.847,1.8749,1.9559,2.0872,0.0,0.0,0.0,0.0,0.0,0.0,0.0,0.0,0.0,0.0,0.0,2.5897,2.5655,2.496,2.5004,2.5595,2.6807,2.5787,2.5663,2.7252,2.8807,2.9178,2.7872,2.7681,2.7962,2.8567,2.8662,2.8911,2.9631,2.9726,2.9822,3.0109,3.0204,3.0204,3.0261,3.0223,3.0472,3.1102,3.0629,3.0443,3.0948,3.0535,3.1018,3.3574,3.4444,3.4859,3.4632,3.4767,3.4884,3.4564,3.4585,3.4926,3.5072,3.5124,3.5141,3.5107,3.516,3.5174,3.519,3.519,3.519,3.519,3.519,3.519,2.7103,2.6602,2.6207,2.6024,0.0,2.5485,2.5096,2.485,2.4785,2.4737,2.4762,2.493,2.5072,2.522,2.5274,2.5348,2.5453,2.5492,2.5511,2.5511,2.5538,2.555,2.5556,2.5553,2.5545,2.5498,2.555,2.533,2.4927,2.5401,2.5223,2.4397,2.4825,2.5035,2.503,2.4605,2.3964,2.3102,2.2831,2.2535,2.2192,2.147,2.1097,2.1039,1.9888,0.0,0.0,0.0,0.0,0.0,0.0,0.0,0.0,2.3329,0.0,2.3937,2.415,2.445,2.4912,2.523,2.5734,2.6524,2.6692,2.6593,2.6214,2.6186,2.6546,2.7409,2.7418,2.7656,2.8218,2.945,2.986,2.9044,2.893,2.9121,2.9459,2.9555,2.9726,3.0089,3.0204,3.0204,3.0204,3.0204,3.0414,3.0796,3.1197,3.158,3.1866,3.1312,3.1087,3.1874,3.1676,3.2178,3.444,3.5045,3.5043,3.5086,3.5089,3.5091,3.5056,3.502,3.5038,3.5143,3.5174,3.5174,3.5157,3.5193,3.519,3.519,3.519,3.519,3.519,3.519,3.519,2.8133,2.7885,2.7209,2.692,2.6881,2.6005,2.5543,2.5373,0.0,0.0,0.0,2.508,2.5282,2.5466,2.558,2.5669,2.5724,2.5898,2.5878,2.5751,2.5968,2.6065,2.6048,2.6051,2.6049,2.6028,2.6049,2.597,2.5839,2.5901,2.586,2.5705,2.5701,2.5698,2.5696,2.5698,2.4983,2.3605,2.3326,2.3125,2.2893,2.236,2.2243,2.2564,2.1642,2.1408,2.1888,2.1466,2.1547,2.2192,2.2375,2.2819,2.3595,2.3819,2.4031,2.4285,2.4596,2.5097,2.58,2.6068,2.6529,2.7319,2.7608,2.7755,2.7699,2.7483,2.7513,2.7888,2.9175,2.9699,2.9179,2.9756,3.0204,3.0204,3.0204,3.0185,3.0204,3.0204,3.0185,3.0204,3.0204,3.03,3.051,3.0338,3.0586,3.1599,3.2535,3.3054,3.2879,3.2363,3.2095,3.2501,3.281,3.3646,3.4789,3.519,3.5157,3.5124,3.5126,3.511,3.5091,3.511,3.5145,3.5157,3.519,3.519,3.519,3.519,3.519,3.519,3.519,3.519,3.519,3.519,3.519,2.8754,2.8057,2.7874,2.7807,2.7749,2.6881,2.6496,2.64,2.5469,2.5099,2.5171,2.5303,2.579,2.6492,2.652,2.6566,2.6644,2.7395,2.7365,2.6773,2.7481,2.7839,2.783,2.7829,2.7795,2.7749,2.779,2.7443,2.6787,2.6789,2.6464,2.5802,2.5703,2.5722,2.5689,2.5703,2.5542,2.5244,2.4992,2.469,2.4385,2.3325,2.2648,2.2411,2.1542,2.1081,2.1248,2.1825,2.2186,2.2374,2.3088,2.3645,2.3935,2.4732,2.5239,2.5467,2.6191,2.6692,2.6874,2.6911,2.7355,2.832,2.9106,2.925,2.8506,2.7858,2.8082,2.9452,2.9927,3.0085,2.9956,3.0095,3.0204,3.0204,3.0204,3.0204,3.0242,3.0261,3.028,3.028,3.0204,3.0643,3.1369,3.0796,3.0796,3.2325,3.3681,3.4541,3.3949,3.3719,3.3356,3.3089,3.3968,3.4827,3.5133,3.519,3.5174,3.5174,3.5193,3.5176,3.5176,3.5157,3.5176,3.5174,3.519,3.519,3.519,3.519,3.519,3.519,3.519,3.519,3.519,3.519,3.519,3.018,3.0088,2.9162,2.902,2.9361,2.8027,2.743,2.7316,2.6892,2.6698,2.6738,2.6785,2.7033,2.7387,2.7453,2.7492,2.7531,2.7954,2.7942,2.7648,2.8053,2.8262,2.8261,2.8258,2.8073,2.7761,2.8083,2.8213,2.8083,2.7845,2.7498,2.712,2.7075,2.7042,2.7054,2.7056,2.6812,2.6311,2.5668,2.5217,2.5015,2.4218,2.3687,2.3529,2.2933,2.2648,2.2745,2.3071,2.3313,2.3393,2.4217,2.4736,2.4929,2.5743,2.6283,2.6451,2.6823,2.7287,2.777,2.8273,2.8776,2.9276,2.9687,2.9742,2.9323,2.8998,2.9159,2.9958,3.0142,3.0185,3.0138,3.0171,3.0204,3.0204,3.0204,3.0376,3.0758,3.0844,3.092,3.1083,3.1102,3.1446,3.2214,3.1083,3.0968,3.2802,3.4369,3.4999,3.4674,3.4636,3.4503,3.4216,3.4713,3.5114,3.519,3.519,3.519,3.519,3.519,3.519,3.519,3.519,3.519,3.519,3.519,3.519,3.519,3.519,3.519,3.519,3.519,3.519,3.519,3.519,3.519,3.175,3.2167,3.0857,3.0451,3.0602,2.9472,2.8713,2.8309,2.8714,2.8772,2.8559,2.8211,2.8133,2.8324,2.8352,2.8391,2.8487,2.8891,2.8997,2.8843,2.9266,2.9355,2.9197,2.9342,2.9021,2.8357,2.8847,2.9179,2.9162,2.8791,2.8491,2.832,2.8236,2.82,2.8193,2.8205,2.7866,2.7179,2.6223,2.5576,2.5303,2.4828,2.4591,2.4543,2.4229,2.4114,2.4172,2.4152,2.4245,2.4543,2.5208,2.5671,2.5987,2.6786,2.7289,2.7382,2.7586,2.7975,2.8668,2.9415,2.9842,2.9895,2.9912,2.991,2.9907,2.9907,2.9937,3.0087,3.0142,3.0204,3.0261,3.0624,3.0701,3.0548,3.0663,3.1064,3.1599,3.1703,3.1726,3.1889,3.2019,3.2267,3.2535,3.2,3.2153,3.3643,3.4655,3.5152,3.519,3.519,3.519,3.519,3.519,3.519,3.519,3.519,3.519,3.519,3.519,3.519,3.519,3.519,3.519,3.519,3.519,3.519,3.519,3.519,3.519,3.519,3.5193,3.5174,3.5157,3.5193,3.5174,3.3188,3.3243,3.2935,3.2055,3.0862,3.1352,3.0703,2.962,3.0917,3.1149,3.0278,2.8769,2.8614,2.9214,2.9328,2.9397,2.9583,3.1003,3.132,3.0879,3.2226,3.2498,3.1782,3.2478,3.2087,3.0838,3.1328,3.094,2.9833,2.9632,2.9118,2.8379,2.8232,2.8322,2.8256,2.8271,2.8188,2.8062,2.7147,2.6217,2.534,2.5008,2.4826,2.4775,2.4444,2.4339,2.4482,2.4284,2.4617,2.5467,2.5726,2.6134,2.686,2.7755,2.8259,2.8313,2.8986,2.9548,2.9658,2.9805,2.9895,2.9895,2.9929,2.9964,3.0018,2.9943,2.9956,3.0164,3.0219,3.0223,3.0319,3.1503,3.2038,3.1484,3.1938,3.2512,3.2573,3.2596,3.2409,3.1923,3.2516,3.2844,3.3433,3.3949,3.4579,3.4751,3.5018,3.519,3.519,3.519,3.519,3.519,3.519,3.519,3.519,3.519,3.519,3.519,3.519,3.519,3.519,3.519,3.519,3.519,3.519,3.519,3.5174,3.519,3.519,3.5193,3.5176,3.5124,3.5124,3.516,3.5157,3.3665,3.41,3.3593,3.2965,3.2409,3.268,3.2406,3.1832,3.246,3.2527,3.2168,3.1499,3.113,3.0989,3.1499,3.1796,3.1854,3.2556,3.2695,3.2441,3.3105,3.32,3.2949,3.3219,3.318,3.291,3.289,3.2717,3.2365,3.202,3.1659,3.1344,3.1241,3.0994,3.056,3.0472,2.9955,2.8932,2.8534,2.7854,2.6814,2.5589,2.4923,2.4846,2.4663,2.4794,2.5262,2.5225,2.5612,2.6467,2.7026,2.7492,2.7863,2.8705,2.9174,2.9246,2.96,2.9842,2.9859,2.9893,2.991,2.991,3.0414,3.0734,3.075,3.033,3.0418,3.1286,3.0753,3.0548,3.1541,3.2306,3.2539,3.2325,3.2535,3.2917,3.3433,3.3459,3.3516,3.378,3.4044,3.4216,3.4503,3.4904,3.5171,3.519,3.519,3.519,3.519,3.519,3.519,3.519,3.519,3.519,3.519,3.519,3.519,3.519,3.519,3.519,3.519,3.519,3.519,3.519,3.519,3.5193,3.5196,3.5176,3.5157,3.5176,3.5072,3.4982,3.5018,3.5091,3.5091,3.4413,3.4915,3.4367,3.3961,3.375,3.375,3.3589,3.3422,3.3821,3.3777,3.3414,3.4104,3.3813,3.2898,3.3225,3.3388,3.3414,3.3639,3.375,3.3807,3.3982,3.4113,3.4117,3.4117,3.4217,3.4315,3.3964,3.3868,3.4003,3.3653,3.3388,3.3368,3.3336,3.3028,3.2503,3.2394,3.176,3.0606,3.0063,2.9383,2.8482,2.6768,2.5641,2.531,2.4945,2.5142,2.5926,2.5939,2.6437,2.7467,2.8124,2.8592,2.8868,2.9415,2.9789,2.9823,2.9857,3.0007,3.0215,3.0265,3.0395,3.0623,3.1298,3.1656,3.1559,3.1099,3.1473,3.267,3.2107,3.2134,3.2462,3.3112,3.3299,3.3127,3.3226,3.3665,3.4235,3.4318,3.4547,3.5078,3.5018,3.519,3.519,3.519,3.519,3.519,3.519,3.519,3.519,3.519,3.519,3.519,3.519,3.519,3.519,3.519,3.519,3.519,3.519,3.519,3.519,3.519,3.519,3.519,3.519,3.5174,3.5193,3.5157,3.5124,3.5126,3.5037,3.4926,3.4945,3.502,3.5001,3.5864,3.5933,3.5898,3.5449,3.4687,3.4726,3.4238,3.3867,3.5215,3.4999,3.4074,3.5939,3.6151,3.4622,3.3975,3.3456,3.3573,3.4433,3.4821,3.4884,3.5547,3.5896,3.5893,3.5874,3.5506,3.5018,3.4842,3.4393,3.3688,3.3578,3.3395,3.3489,3.357,3.3404,3.3312,3.3262,3.3223,3.28,3.1485,3.0575,3.021,2.8673,2.7316,2.6492,2.5462,2.5432,2.6138,2.6091,2.6798,2.8468,2.86,2.8959,2.9619,2.9859,2.995,2.9945,2.9964,3.0322,3.1023,3.1189,3.1507,3.2172,3.2412,3.2523,3.2542,3.254,3.2937,3.3846,3.4318,3.4159,3.3223,3.4063,3.456,3.4063,3.4598,3.4961,3.5076,3.5018,3.5133,3.519,3.519,3.519,3.519,3.519,3.519,3.519,3.519,3.519,3.519,3.519,3.519,3.519,3.519,3.519,3.519,3.519,3.519,3.519,3.519,3.519,3.519,3.519,3.519,3.519,3.519,3.519,3.519,3.5157,3.5143,3.5108,3.5019,3.4945,3.4945,3.4927,3.4908,3.6281,3.6874,3.7441,3.7461,3.7207,3.7187,3.6992,3.6797,3.7363,3.7339,3.685,3.7168,3.7256,3.7165,3.6294,3.5894,3.5976,3.6791,3.7192,3.722,3.7536,3.7653,3.7669,3.765,3.7536,3.7165,3.6618,3.6208,3.601,3.6407,3.638,3.5884,3.5811,3.5301,3.436,3.414,3.3881,3.3336,3.2635,3.2283,3.1922,3.0444,2.9308,2.879,2.7433,2.7062,2.7831,2.7782,2.8263,2.9401,2.9441,2.9574,2.9874,3.0454,3.081,3.0864,3.1317,3.177,3.2036,3.211,3.2241,3.2545,3.3111,3.3429,3.3525,3.3922,3.4413,3.4718,3.4983,3.4827,3.4617,3.4885,3.5095,3.4885,3.4999,3.519,3.519,3.519,3.519,3.519,3.519,3.519,3.519,3.519,3.519,3.519,3.519,3.519,3.519,3.519,3.519,3.519,3.519,3.519,3.519,3.519,3.519,3.519,3.519,3.519,3.519,3.519,3.519,3.519,3.519,3.5193,3.5193,3.516,3.5126,3.5054,3.4982,3.4945,3.4927,3.4908,3.4908,3.7137,3.7754,3.8359,3.8613,3.8613,3.8613,3.8613,3.8652,3.8887,3.8867,3.8574,3.8242,3.8337,3.8559,3.8258,3.8149,3.8161,3.8483,3.8612,3.8606,3.8609,3.8726,3.8921,3.8726,3.8746,3.8804,3.8121,3.7731,3.7767,3.8241,3.817,3.7624,3.7623,3.6917,3.5678,3.5444,3.5029,3.4283,3.3861,3.3522,3.2977,3.1668,3.0658,3.015,2.909,2.8564,2.8825,2.8802,2.9129,2.9839,2.9959,3.0092,3.0392,3.1222,3.1713,3.1787,3.2241,3.273,3.2939,3.2997,3.3146,3.3432,3.3961,3.4301,3.4358,3.4887,3.5152,3.519,3.519,3.519,3.519,3.519,3.519,3.519,3.519,3.519,3.519,3.519,3.519,3.519,3.519,3.519,3.519,3.519,3.519,3.519,3.519,3.519,3.519,3.519,3.519,3.519,3.519,3.519,3.519,3.519,3.519,3.519,3.519,3.519,3.519,3.519,3.519,3.519,3.5174,3.5193,3.5176,3.5143,3.5108,3.5073,3.5001,3.4945,3.4945,3.4908,3.4908,3.8584,3.8633,3.8633,3.8789,3.8848,3.8867,3.8711,3.8945,3.959,3.9512,3.9062,3.9512,3.9413,3.9016,3.9493,3.9839,3.9669,3.9166,3.8873,3.8863,3.8824,3.9195,3.9761,3.9175,3.9136,3.9644,3.9,3.8648,3.8609,3.8729,3.8677,3.8556,3.8505,3.8033,3.717,3.6975,3.6644,3.5827,3.5015,3.4186,3.3234,3.2398,3.1527,3.0682,3.0335,2.9865,2.9098,2.9003,2.9336,3.0007,3.0164,3.0506,3.1286,3.2124,3.2599,3.258,3.2676,3.307,3.3713,3.3884,3.4247,3.4742,3.51,3.504,3.504,3.5152,3.519,3.519,3.519,3.519,3.519,3.519,3.519,3.519,3.519,3.519,3.519,3.519,3.519,3.519,3.519,3.519,3.519,3.519,3.519,3.519,3.519,3.519,3.519,3.519,3.519,3.519,3.519,3.519,3.519,3.519,3.519,3.519,3.519,3.519,3.519,3.519,3.519,3.519,3.519,3.5193,3.5193,3.516,3.516,3.5126,3.5054,3.5,3.4982,3.4964,3.4945,3.9491,3.957,4.0156,4.0391,4.0391,4.0391,4.0391,4.041,4.0703,4.0625,4.0469,4.0664,4.0624,4.0443,4.0628,4.0737,4.0698,4.043,4.0313,4.0327,4.0307,4.0405,4.0561,4.0424,4.0112,3.9917,4.019,3.9995,3.9621,3.9993,4.0023,3.9511,3.9388,3.8955,3.8085,3.7521,3.7014,3.6729,3.5922,3.5288,3.487,3.3994,3.3282,3.2923,3.2264,3.1527,3.0744,3.0085,2.9865,3.0132,3.0636,3.1321,3.2159,3.3013,3.3391,3.3318,3.398,3.447,3.468,3.4757,3.4868,3.5155,3.5174,3.519,3.519,3.519,3.519,3.519,3.519,3.519,3.519,3.519,3.519,3.519,3.519,3.519,3.519,3.519,3.519,3.519,3.519,3.519,3.519,3.519,3.519,3.519,3.519,3.519,3.519,3.519,3.519,3.519,3.519,3.519,3.519,3.519,3.519,3.519,3.519,3.519,3.519,3.519,3.519,3.519,3.519,3.519,3.5174,3.5193,3.5176,3.5196,3.5143,3.5089,3.5054,3.5037,3.5019,4.0371,4.0449,4.0976,4.1191,4.1191,4.1191,4.1191,4.1191,4.1191,4.1348,4.1582,4.1641,4.1831,4.2023,4.207,4.2064,4.2025,4.1752,4.1752,4.1869,4.1283,4.1108,4.1108,4.1108,4.0854,4.0464,4.0834,4.0815,4.0346,4.0793,4.0818,4.035,4.0285,3.9818,3.8988,3.8423,3.7936,3.7267,3.6651,3.6035,3.5313,3.4659,3.4108,3.3641,3.2847,3.2267,3.1885,3.1187,3.0715,3.081,3.1672,3.2553,3.316,3.3881,3.4282,3.4301,3.4718,3.5171,3.519,3.5152,3.519,3.519,3.519,3.519,3.519,3.519,3.519,3.519,3.519,3.519,3.519,3.519,3.519,3.519,3.519,3.519,3.519,3.519,3.519,3.519,3.519,3.519,3.519,3.519,3.519,3.519,3.519,3.519,3.519,3.519,3.519,3.519,3.519,3.519,3.519,3.519,3.519,3.519,3.519,3.519,3.519,3.519,3.519,3.519,3.519,3.519,3.5174,3.519,3.5193,3.5193,3.5193,3.5141,3.5124,3.5107,3.5089,4.1191,4.1191,4.1191,4.1191,4.123,4.1289,4.1289,4.1211,4.1426,4.1797,4.2246,4.2558,4.2926,4.3523,4.3525,4.3537,4.3528,4.2825,4.2806,4.2942,4.2201,4.1459,4.1342,4.1186,4.103,4.101,4.1166,4.1225,4.1166,4.1265,4.1213,4.1345,4.1226,4.0773,4.0085,3.9896,3.9007,3.7767,3.7365,3.6502,3.5093,3.4709,3.4179,3.3388,3.2774,3.2535,3.2669,3.2306,3.1889,3.1809,3.3051,3.3799,3.4159,3.4808,3.5078,3.5021,3.5171,3.519,3.519,3.519,3.519,3.519,3.519,3.519,3.519,3.519,3.519,3.519,3.519,3.519,3.519,3.519,3.519,3.519,3.519,3.519,3.519,3.519,3.519,3.519,3.519,3.519,3.519,3.519,3.519,3.519,3.519,3.519,3.519,3.519,3.519,3.519,3.519,3.519,3.519,3.519,3.519,3.519,3.519,3.519,3.519,3.519,3.519,3.519,3.519,3.519,3.519,3.519,3.519,3.5174,3.5174,3.519,3.5174,3.5157,3.5176,4.1191,4.1191,4.1191,4.1191,4.1289,4.1816,4.1706,4.1343,4.2481,4.2662,4.2681,4.3607,4.3908,4.3798,4.4298,4.4239,4.3833,4.3509,4.343,4.3587,4.3313,4.2611,4.2006,4.14,4.1166,4.1264,4.1791,4.2045,4.2064,4.2054,4.2373,4.2968,4.2304,4.1916,4.1591,4.0961,4.0182,3.9169,3.8442,3.7657,3.6676,3.629,3.5767,3.4901,3.4443,3.406,3.3738,3.3528,3.3414,3.3356,3.3681,3.4292,3.4789,3.5076,3.519,3.519,3.519,3.519,3.519,3.519,3.519,3.519,3.519,3.519,3.519,3.519,3.519,3.519,3.519,3.519,3.519,3.519,3.519,3.519,3.519,3.519,3.519,3.519,3.519,3.519,3.519,3.519,3.519,3.519,3.519,3.519,3.519,3.519,3.519,3.519,3.519,3.519,3.519,3.519,3.519,3.519,3.519,3.519,3.519,3.519,3.519,3.519,3.519,3.519,3.519,3.519,3.519,3.519,3.519,3.519,3.519,3.519,3.519,3.5174,3.5174,4.1191,4.1191,4.1191,4.1387,4.1738,4.2207,4.23,4.2349,4.3117,4.3563,4.3564,4.4245,4.4729,4.4796,4.5156,4.5183,4.4793,4.4426,4.4465,4.4738,4.4406,4.3743,4.3001,4.2357,4.2181,4.224,4.2708,4.2923,4.2942,4.2955,4.3236,4.3461,4.3173,4.2707,4.2202,4.1838,4.0942,3.989,3.9221,3.8592,3.7806,3.7521,3.6942,3.6137,3.5571,3.4923,3.4541,3.4503,3.4503,3.4483,3.4522,3.4732,3.5133,3.519,3.519,3.519,3.519,3.519,3.519,3.519,3.519,3.519,3.519,3.519,3.519,3.519,3.519,3.519,3.519,3.519,3.519,3.519,3.519,3.519,3.519,3.519,3.519,3.519,3.519,3.519,3.519,3.519,3.519,3.519,3.519,3.519,3.519,3.519,3.519,3.519,3.519,3.519,3.519,3.519,3.519,3.519,3.519,3.519,3.519,3.519,3.519,3.519,3.519,3.519,3.519,3.519,3.519,3.519,3.519,3.519,3.519,3.5229,3.5267,3.5209,3.519,4.1191,4.1191,4.1191,4.166,4.2324,4.25,4.2915,4.3478,4.3891,4.4239,4.4602,4.4756,4.5267,4.6162,4.586,4.6059,4.6136,4.5379,4.5597,4.5695,4.5441,4.4738,4.4133,4.3567,4.3411,4.3469,4.37,4.3817,4.3814,4.3829,4.3919,4.407,4.3938,4.335,4.3007,4.2682,4.1708,4.0701,4.0487,3.9883,3.9077,3.8666,3.8094,3.6991,3.5974,3.5512,3.5324,3.5229,3.5114,3.5171,3.519,3.5152,3.519,3.519,3.519,3.519,3.519,3.519,3.519,3.519,3.519,3.519,3.519,3.519,3.519,3.519,3.519,3.519,3.519,3.519,3.519,3.519,3.519,3.519,3.519,3.519,3.519,3.519,3.519,3.519,3.519,3.519,3.519,3.519,3.519,3.519,3.519,3.519,3.519,3.519,3.519,3.519,3.519,3.519,3.519,3.519,3.519,3.519,3.519,3.519,3.519,3.519,3.519,3.519,3.519,3.519,3.519,3.519,3.5229,3.5324,3.542,3.542,3.54,3.5267,3.5209,4.1191,4.1191,4.1191,4.166,4.2441,4.3105,4.345,4.3692,4.4989,4.5181,4.4949,4.5269,4.568,4.6044,4.5944,4.5949,4.6144,4.5889,4.6066,4.6202,4.6163,4.5948,4.5382,4.4465,4.3801,4.3911,4.4343,4.4601,4.468,4.4679,4.4941,4.5436,4.488,4.4532,4.4293,4.4065,4.3858,4.2916,4.2656,4.1792,4.0668,4.0247,3.9437,3.7945,3.6746,3.6258,3.6069,3.5572,3.5229,3.519,3.519,3.519,3.519,3.519,3.519,3.519,3.519,3.519,3.519,3.519,3.519,3.519,3.519,3.519,3.519,3.519,3.519,3.519,3.519,3.519,3.519,3.519,3.519,3.519,3.519,3.519,3.519,3.519,3.519,3.519,3.519,3.519,3.519,3.519,3.519,3.519,3.519,3.519,3.519,3.519,3.519,3.519,3.519,3.519,3.519,3.519,3.519,3.519,3.519,3.519,3.519,3.519,3.519,3.519,3.519,3.519,3.519,3.5362,3.5439,3.5553,3.5763,3.5954,3.6012,3.5668,3.5802,4.1543,4.1211,4.1191,4.1894,4.2988,4.3496,4.4116,4.4826,4.5673,4.5814,4.5438,4.563,4.5786,4.5944,4.5852,4.588,4.6016,4.6086,4.6167,4.6277,4.628,4.628,4.6199,4.5421,4.4821,4.4874,4.5122,4.5356,4.5409,4.5443,4.5631,4.6094,4.5699,4.5214,4.4942,4.4881,4.4289,4.3642,4.3522,4.3008,4.2323,4.1664,4.0551,3.871,3.7321,3.6491,3.6415,3.5668,3.5267,3.519,3.519,3.519,3.519,3.519,3.519,3.519,3.519,3.519,3.519,3.519,3.519,3.519,3.519,3.519,3.519,3.519,3.519,3.519,3.519,3.519,3.519,3.519,3.519,3.519,3.519,3.519,3.519,3.519,3.519,3.519,3.519,3.519,3.519,3.519,3.519,3.519,3.519,3.519,3.519,3.519,3.519,3.519,3.519,3.519,3.519,3.519,3.519,3.519,3.519,3.519,3.519,3.519,3.519,3.519,3.519,3.519,3.5229,3.542,3.584,3.6279,3.6585,3.6757,3.691,3.6929,3.7196,4.1816,4.1191,4.1191,4.2168,4.3555,4.3711,4.4629,4.601,4.6143,4.6022,4.5974,4.5785,4.5757,4.5833,4.5796,4.5815,4.5928,4.6049,4.6162,4.6277,4.63,4.63,4.6195,4.5975,4.5811,4.6029,4.5852,4.5811,4.5862,4.5985,4.5962,4.6103,4.6167,4.5799,4.5234,4.4967,4.4754,4.43,4.4113,4.384,4.3575,4.2879,4.1659,3.9849,3.8322,3.7196,3.6795,3.6012,3.5381,3.5209,3.519,3.519,3.519,3.519,3.519,3.519,3.519,3.519,3.519,3.519,3.519,3.519,3.519,3.519,3.519,3.519,3.519,3.519,3.519,3.519,3.519,3.519,3.519,3.519,3.519,3.519,3.519,3.519,3.519,3.519,3.519,3.519,3.519,3.519,3.519,3.519,3.519,3.519,3.519,3.5209,3.5209,3.519,3.519,3.519,3.519,3.5209,3.5209,3.5458,3.54,3.5381,3.5324,3.519,3.519,3.519,3.519,3.5209,3.542,3.5783,3.6279,3.6967,3.7464,3.7693,3.796,3.8209,3.8514,4.1328,4.1191,4.1191,4.2168,4.3574,4.3711,4.4687,4.6016,4.6131,4.6065,4.5969,4.5804,4.5731,4.5715,4.5654,4.5737,4.5908,4.6041,4.6176,4.6277,4.63,4.63,4.6249,4.6064,4.5969,4.5899,4.5859,4.5854,4.5886,4.593,4.601,4.6092,4.6167,4.6014,4.5908,4.5822,4.5578,4.5258,4.511,4.4821,4.4405,4.3908,4.302,4.1204,3.9752,3.8667,3.7559,3.6719,3.5974,3.5305,3.5209,3.5229,3.5286,3.5286,3.5267,3.519,3.519,3.519,3.519,3.519,3.519,3.519,3.519,3.519,3.519,3.519,3.519,3.519,3.519,3.519,3.519,3.519,3.519,3.519,3.519,3.519,3.519,3.519,3.519,3.519,3.519,3.519,3.519,3.519,3.519,3.519,3.519,3.519,3.519,3.5209,3.5231,3.5229,3.519,3.519,3.519,3.5209,3.5267,3.5802,3.5878,3.5802,3.5668,3.5305,3.5209,3.5515,3.5458,3.5324,3.563,3.6107,3.7368,3.8514,3.8667,3.8667,3.882,3.903,3.9489,4.1562,4.1269,4.1641,4.2539,4.3652,4.4199,4.5078,4.6113,4.6133,4.6076,4.599,4.5838,4.5731,4.5684,4.5676,4.5742,4.5908,4.6041,4.6176,4.6273,4.63,4.63,4.6273,4.6013,4.592,4.5856,4.5775,4.5727,4.5756,4.5856,4.5927,4.6006,4.6133,4.617,4.6063,4.5875,4.5866,4.579,4.5655,4.5457,4.4979,4.442,4.3095,4.1879,4.0516,3.924,3.8514,3.7559,3.6967,3.6623,3.6528,3.626,3.6012,3.584,3.5687,3.5362,3.5229,3.5209,3.519,3.519,3.519,3.5209,3.5264,3.5245,3.5209,3.519,3.5229,3.519,3.519,3.519,3.519,3.519,3.519,3.519,3.519,3.519,3.519,3.519,3.519,3.519,3.519,3.519,3.519,3.519,3.519,3.519,3.519,3.519,3.519,3.5343,3.5422,3.5709,3.588,3.6432,3.6375,3.6222,3.6107,3.6451,3.6814,3.6738,3.6279,3.605,3.6069,3.626,3.6031,3.5897,3.6031,3.6585,3.8323,3.9814,3.9661,3.9527,3.9642,3.989,4.0158,4.1777,4.1269,4.2041,4.289,4.3735,4.4609,4.5469,4.6133,4.616,4.6102,4.6079,4.5907,4.5781,4.5719,4.5722,4.5786,4.593,4.6045,4.6138,4.6273,4.63,4.63,4.624,4.6091,4.5949,4.5878,4.5761,4.5637,4.5668,4.5783,4.5861,4.5903,4.6047,4.608,4.5958,4.5769,4.5679,4.5619,4.5522,4.5522,4.5237,4.4302,4.2979,4.2049,4.0539,3.9735,3.8916,3.8343,3.7846,3.7617,3.7502,3.7368,3.6871,3.6738,3.6413,3.5821,3.5553,3.54,3.5267,3.5763,3.5878,3.5668,3.5564,3.5621,3.5723,3.5763,3.5458,3.5267,3.519,3.519,3.519,3.519,3.519,3.519,3.519,3.519,3.519,3.519,3.519,3.519,3.519,3.519,3.5174,3.519,3.519,3.519,3.519,3.519,3.5248,3.563,3.5878,3.632,3.6835,3.775,3.7922,3.775,3.7655,3.7712,3.819,3.8419,3.7674,3.6948,3.7043,3.712,3.7177,3.7063,3.7043,3.7254,3.8744,3.9814,4.0157,4.0253,4.0081,4.0043,4.0196,4.1289,4.1268,4.2032,4.2814,4.3682,4.4559,4.543,4.6152,4.6187,4.615,4.6098,4.5935,4.5849,4.5781,4.568,4.5774,4.594,4.5986,4.6105,4.6277,4.63,4.63,4.6277,4.615,4.5996,4.5919,4.5815,4.5712,4.5668,4.5737,4.5776,4.5793,4.5841,4.5832,4.5803,4.5654,4.5505,4.549,4.54,4.5381,4.5432,4.5147,4.4131,4.3152,4.2311,4.1262,3.9622,3.9069,3.8725,3.796,3.7827,3.7712,3.7559,3.7559,3.7538,3.723,3.6733,3.6026,3.5649,3.6389,3.6695,3.6236,3.6243,3.676,3.6919,3.6509,3.5935,3.5229,3.5209,3.5286,3.5343,3.5324,3.5248,3.5286,3.5381,3.5305,3.5229,3.519,3.519,3.519,3.519,3.5174,3.5193,3.5174,3.519,3.519,3.5229,3.5305,3.5556,3.6129,3.6413,3.6873,3.7733,3.8667,3.9049,3.8935,3.8858,3.8858,3.9221,3.9661,3.8839,3.8018,3.7941,3.8037,3.8132,3.8172,3.8057,3.8458,3.9356,3.9833,4.0196,4.0291,4.0291,4.0291,4.0272,4.1172,4.1264,4.2497,4.3225,4.3705,4.5032,4.5854,4.6143,4.6195,4.6162,4.6096,4.5996,4.5916,4.5747,4.5376,4.5473,4.5904,4.6079,4.6176,4.6273,4.63,4.63,4.6273,4.617,4.6041,4.591,4.5809,4.5731,4.5684,4.5731,4.5775,4.5752,4.5764,4.5744,4.5679,4.556,4.5456,4.54,4.5339,4.532,4.5265,4.4921,4.4327,4.3579,4.3158,4.1972,4.0864,4.0406,4.0005,3.9355,3.9183,3.8916,3.8572,3.8419,3.8362,3.8169,3.8072,3.729,3.6372,3.7223,3.7034,3.6386,3.6408,3.7117,3.7763,3.7299,3.6594,3.6324,3.5583,3.5458,3.5954,3.6375,3.626,3.6126,3.5933,3.5611,3.5477,3.5229,3.519,3.519,3.5174,3.5193,3.5348,3.5785,3.5728,3.5537,3.5935,3.6394,3.6778,3.7352,3.7484,3.7483,3.8495,3.9584,3.9814,3.9871,3.9718,3.968,3.9699,3.9947,3.9584,3.9126,3.8992,3.9126,3.9374,3.9318,3.907,3.9318,3.989,4.0101,4.0234,4.0387,4.0521,4.031,4.0251,4.1144,4.1214,4.2641,4.3316,4.3587,4.517,4.5969,4.616,4.6195,4.6169,4.6064,4.5996,4.5891,4.5764,4.5409,4.5501,4.6053,4.6197,4.6273,4.6296,4.63,4.63,4.6273,4.6181,4.6091,4.594,4.5883,4.5791,4.5706,4.5687,4.5706,4.5722,4.5665,4.5623,4.5541,4.5456,4.538,4.5319,4.5298,4.5298,4.5203,4.4785,4.4363,4.3904,4.3407,4.2738,4.1934,4.1476,4.1017,4.1074,4.031,3.989,3.9737,3.9489,3.9279,3.9145,3.9144,3.861,3.7921,3.7953,3.7488,3.7012,3.6929,3.8212,3.8483,3.7717,3.7182,3.7493,3.5956,3.5952,3.67,3.7674,3.7655,3.7252,3.6791,3.6334,3.6012,3.605,3.5649,3.519,3.5193,3.5179,3.5522,3.632,3.6396,3.5995,3.647,3.7311,3.7866,3.8383,3.8554,3.8476,3.9088,4.0005,4.0138,4.0329,4.0329,4.0329,4.0329,4.0234,3.989,3.9852,3.9833,4.0101,4.0406,4.0043,3.9567,3.9929,4.0292,4.031,4.0386,4.0653,4.0729,4.0573,4.0361,4.1116,4.1084,4.1942,4.2692,4.339,4.4436,4.5345,4.6027,4.6221,4.6209,4.6074,4.5861,4.5775,4.5887,4.5747,4.5771,4.6191,4.6131,4.6211,4.6273,4.63,4.63,4.6277,4.6249,4.6187,4.6057,4.5929,4.5847,4.5767,4.5587,4.5551,4.5515,4.5513,4.5438,4.54,4.538,4.5339,4.5277,4.5277,4.5277,4.5338,4.5169,4.4882,4.4268,4.4039,4.3675,4.2756,4.2125,4.1877,4.2259,4.1304,4.0903,4.0979,4.0654,4.0387,4.0177,4.0157,3.9623,3.9126,3.9238,3.9392,3.922,3.9141,3.9202,3.9025,3.9095,3.8877,3.8387,3.6788,3.6446,3.7596,3.8782,3.8839,3.8169,3.7575,3.7307,3.7137,3.7273,3.6757,3.563,3.5441,3.5883,3.6724,3.7752,3.7502,3.7101,3.7234,3.8056,3.8629,3.9108,3.9451,3.9623,3.989,4.0253,4.0272,4.0329,4.0329,4.0329,4.0329,4.0329,4.0215,4.0311,4.0616,4.0749,4.0939,4.0499,4.0138,4.0251,4.0365,4.0382,4.0572,4.103,4.1504,4.1648,4.113,4.1587,4.1059,4.1332,4.2151,4.3308,4.4364,4.5258,4.5944,4.6211,4.6196,4.5991,4.533,4.5322,4.5667,4.5412,4.5577,4.6128,4.6221,4.6269,4.6277,4.63,4.63,4.63,4.6273,4.6192,4.6057,4.5959,4.5815,4.5659,4.5514,4.5457,4.5418,4.5399,4.5399,4.5398,4.5357,4.5297,4.5277,4.5277,4.5277,4.5298,4.5338,4.5186,4.4878,4.4841,4.4402,4.3634,4.3271,4.3023,4.2698,4.2125,4.2068,4.2163,4.1858,4.1476,4.1055,4.096,4.0521,3.9928,4.0079,3.9957,3.9365,3.9312,3.9442,3.9248,3.9238,3.9262,3.8632,3.7839,3.7526,3.8482,3.9524,3.9737,3.8858,3.836,3.8169,3.815,3.8285,3.8094,3.7063,3.7082,3.7389,3.8401,3.9451,3.8858,3.8284,3.8476,3.8763,3.9393,3.9833,4.0157,4.0119,4.0253,4.0845,4.0941,4.0692,4.0368,4.0444,4.0501,4.0501,4.0635,4.1131,4.1377,4.1489,4.1675,4.1656,4.133,4.0642,4.0471,4.0604,4.1041,4.1632,4.2101,4.2663,4.2318,4.1995,4.1363,4.1089,4.1706,4.2911,4.3957,4.4878,4.5607,4.6108,4.619,4.5949,4.5214,4.5233,4.5619,4.5502,4.5526,4.6128,4.6269,4.6277,4.63,4.63,4.63,4.63,4.6277,4.6216,4.6057,4.5929,4.5815,4.5677,4.5494,4.5438,4.5416,4.5376,4.5378,4.5378,4.5337,4.5277,4.5277,4.5277,4.5277,4.5277,4.5297,4.5317,4.522,4.5222,4.497,4.4357,4.3975,4.3804,4.3479,4.3097,4.2947,4.2966,4.2851,4.2354,4.1858,4.1437,4.1132,4.0558,4.0269,4.0109,3.971,3.9543,3.9632,3.9615,3.9623,3.9783,3.9857,3.9123,3.8896,3.9604,4.0038,4.0177,3.9412,3.9317,3.9164,3.9069,3.9126,3.8973,3.8572,3.8744,3.8858,3.9374,4.0253,4.0119,3.9698,4.0004,4.0157,4.0444,4.075,4.0826,4.0635,4.0291,4.1017,4.1705,4.117,4.0807,4.1533,4.1456,4.1036,4.1189,4.174,4.21,4.2096,4.2376,4.2826,4.2443,4.1585,4.1149,4.0905,4.1627,4.2519,4.3217,4.3758,4.3777,4.2304,4.2077,4.1322,4.1416,4.2215,4.3132,4.4022,4.4956,4.5858,4.6157,4.5999,4.5744,4.5789,4.5975,4.5877,4.6053,4.621,4.63,4.63,4.63,4.63,4.63,4.63,4.6273,4.6236,4.6164,4.5988,4.5815,4.5764,4.5493,4.5417,4.5375,4.5337,4.5317,4.5316,4.5297,4.5277,4.5277,4.5277,4.5297,4.5319,4.5298,4.5297,4.536,4.5319,4.5125,4.4891,4.4494,4.4397,4.4465,4.367,4.3558,4.3902,4.3424,4.2756,4.1915,4.1762,4.1285,4.0501,4.0406,4.0386,4.0194,3.9966,4.0116,4.0383,4.0442,4.0389,4.0392,4.0382,4.0333,4.0472,4.0306,4.0195,4.0138,4.0005,3.9928,3.9794,3.9756,3.9584,3.947,3.989,4.0272,4.054,4.0864,4.1036,4.1113,4.1476,4.1629,4.159,4.1628,4.1648,4.1476,4.1113,4.2106,4.2659,4.1551,4.1302,4.2143,4.2392,4.1934,4.199,4.2579,4.2785,4.2781,4.3114,4.3596,4.3118,4.2431,4.2379,4.2435,4.2815,4.3573,4.4308,4.4668,4.4516,4.2324,4.2135,4.1338,4.139,4.2093,4.3073,4.3964,4.4773,4.5579,4.5959,4.588,4.5841,4.5866,4.5958,4.6088,4.6181,4.6277,4.63,4.63,4.63,4.63,4.63,4.6296,4.6269,4.6231,4.613,4.5938,4.5783,4.5723,4.5495,4.5359,4.5316,4.5297,4.5297,4.5297,4.5277,4.5277,4.5277,4.5317,4.5319,4.5419,4.536,4.538,4.5531,4.5419,4.5321,4.522,4.4861,4.4973,4.5113,4.4281,4.4494,4.4743,4.4303,4.394,4.3289,4.3079,4.2794,4.2202,4.1896,4.1399,4.0845,4.0482,4.0539,4.0459,4.0499,4.061,4.0779,4.0917,4.0792,4.0588,4.0398,4.0291,4.0272,4.0215,4.0215,4.0157,4.0177,4.0119,4.0081,4.031,4.0329,4.052,4.1266,4.159,4.2259,4.2641,4.2393,4.2278,4.2374,4.2431,4.2393,4.2412,4.3424,4.3748,4.2945,4.2333,4.2831,4.3004,4.2737,4.2984,4.3399,4.364,4.3691,4.3999,4.4289,4.3867,4.362,4.3947,4.4194,4.4056,4.4075,4.4573,4.4819,4.4781,4.2474,4.2555,4.1705,4.1589,4.2112,4.2772,4.3669,4.472,4.5279,4.5564,4.5796,4.5841,4.5859,4.5949,4.6072,4.6187,4.63,4.63,4.63,4.63,4.63,4.63,4.6277,4.624,4.6215,4.6107,4.5975,4.5852,4.615,4.5611,4.5379,4.5317,4.5277,4.5277,4.5277,4.5277,4.5277,4.5277,4.5317,4.536,4.5438,4.5457,4.5475,4.5545,4.5528,4.5419,4.5381,4.5381,4.5381,4.5258,4.5258,4.5339,4.5319,4.5201,4.4857,4.4263,4.3633,4.331,4.2832,4.266,4.2068,4.1476,4.1189,4.1055,4.0807,4.0647,4.1112,4.1261,4.1177,4.1253,4.1258,4.1032,4.1055,4.1074,4.0692,4.0711,4.0368,4.0368,4.0329,4.0329,4.0769,4.0673,4.0501,4.1418,4.2125,4.2985,4.3806,4.3367,4.2985,4.3157,4.3348,4.3405,4.3463,4.4208,4.4762,4.4723,4.4149,4.373,4.3635,4.3578,4.3633,4.4012,4.4306,4.4425,4.4241,4.4232,4.4662,4.4751,4.4619,4.4499,4.4405,4.4543,4.4857,4.4895,4.487,4.2808,4.3313,4.2419,4.2019,4.2106,4.2159,4.3195,4.4918,4.4731,4.5112,4.5792,4.582,4.5822,4.5862,4.6117,4.6277,4.63,4.63,4.63,4.63,4.63,4.63,4.6273,4.6236,4.6209,4.6135,4.6065,4.6143,4.6679,4.6147,4.5649,4.5339,4.5317,4.5297,4.5277,4.5277,4.5277,4.5277,4.5298,4.538,4.5457,4.5512,4.5545,4.5632,4.5632,4.5547,4.551,4.551,4.5437,4.5381,4.5362,4.538,4.536,4.5337,4.4762,4.415,4.3443,4.331,4.3233,4.3252,4.3004,4.2679,4.2832,4.2431,4.182,4.1246,4.1615,4.2101,4.2234,4.2382,4.2453,4.2449,4.2469,4.2049,4.1457,4.1093,4.0578,4.0425,4.0348,4.0635,4.1399,4.1418,4.075,4.1323,4.2316,4.3195,4.3806,4.3711,4.3501,4.4036,4.4265,4.4647,4.4743,4.4914,4.5182,4.5048,4.4857,4.4055,4.461,4.4668,4.4664,4.4469,4.4535,4.4444,4.4033,4.4075,4.4575,4.4751,4.4751,4.4631,4.4518,4.4644,4.4821,4.4865,4.4865,4.3347,4.3382,4.2419,4.1996,4.188,4.1431,4.2568,4.4663,4.4676,4.4769,4.4938,4.5634,4.5472,4.5153,4.5928,4.6195,4.628,4.63,4.63,4.63,4.63,4.63,4.6269,4.6226,4.6216,4.6138,4.6124,4.6287,4.6814,4.6468,4.5954,4.5534,4.5379,4.5319,4.5277,4.5277,4.5277,4.5277,4.5277,4.538,4.5457,4.5494,4.5616,4.5731,4.5746,4.5665,4.5629,4.568,4.558,4.5455,4.5438,4.5495,4.5582,4.5419,4.5048,4.501,4.4704,4.4609,4.4571,4.4551,4.4284,4.3921,4.4112,4.3654,4.2889,4.2393,4.245,4.2898,4.3448,4.3672,4.3615,4.3561,4.3349,4.2775,4.2183,4.1648,4.1113,4.0692,4.0616,4.0807,4.159,4.1724,4.1074,4.1285,4.2278,4.3195,4.371,4.3748,4.3959,4.4475,4.4551,4.4895,4.5201,4.5125,4.4762,4.4571,4.4571,4.4532,4.4973,4.526,4.5105,4.4889,4.4763,4.4516,4.417,4.4222,4.4549,4.4655,4.4712,4.4655,4.458,4.4688,4.477,4.4815,4.4815,4.2686,4.2869,4.2226,4.1938,4.1911,4.1568,4.242,4.3642,4.3665,4.3707,4.406,4.4594,4.4656,4.4443,4.522,4.5753,4.5753,4.6144,4.63,4.63,4.63,4.6273,4.6255,4.6228,4.6196,4.6122,4.6153,4.6344,4.6842,4.6858,4.6392,4.5571,4.54,4.5339,4.5298,4.5277,4.5277,4.5277,4.5298,4.538,4.5458,4.5513,4.5668,4.5791,4.581,4.5742,4.5723,4.5805,4.5727,4.5594,4.5635,4.5668,4.5715,4.5549,4.54,4.5342,4.5285,4.5167,4.5126,4.5163,4.4934,4.48,4.4953,4.4666,4.4303,4.3884,4.3886,4.4096,4.4633,4.5013,4.4766,4.4479,4.398,4.3443,4.2851,4.2259,4.1686,4.1113,4.1036,4.1055,4.1342,4.1667,4.1743,4.1858,4.2316,4.3309,4.3996,4.4187,4.4399,4.4781,4.4513,4.436,4.4781,4.501,4.4551,4.4036,4.3958,4.4187,4.4934,4.5163,4.5258,4.5216,4.4995,4.4678,4.4348,4.4372,4.4308,4.4538,4.4632,4.4595,4.4576,4.4613,4.4685,4.4738,4.4712,4.1412,4.2077,4.1828,4.1749,4.1975,4.1988,4.2174,4.224,4.216,4.2408,4.3053,4.3361,4.3491,4.3548,4.4382,4.4852,4.5125,4.5594,4.5945,4.6222,4.63,4.6273,4.6255,4.6196,4.6169,4.6102,4.6105,4.6263,4.6778,4.6839,4.6477,4.5569,4.5495,4.5438,4.5317,4.5297,4.5277,4.5277,4.5298,4.5339,4.5438,4.5513,4.5582,4.5727,4.5742,4.5742,4.58,4.5827,4.5841,4.5805,4.5795,4.5761,4.57,4.5715,4.5616,4.5531,4.5476,4.5419,4.5338,4.5297,4.5297,4.5201,4.5277,4.5163,4.4895,4.4781,4.4727,4.4728,4.5126,4.5222,4.5012,4.4956,4.461,4.415,4.3654,4.308,4.2526,4.1705,4.0883,4.1036,4.1495,4.1762,4.1762,4.1877,4.2756,4.3633,4.4282,4.4588,4.482,4.5107,4.4842,4.4287,4.4709,4.4939,4.3924,4.3484,4.3309,4.369,4.4647,4.5144,4.5258,4.5235,4.517,4.4853,4.4525,4.4063,4.3936,4.4331,4.4632,4.4587,4.456,4.4524,4.457,4.4632,4.4632,4.1587,4.1185,4.0965,4.0963,4.1052,4.1067,4.1457,4.1912,4.1296,4.1524,4.2298,4.2934,4.2976,4.2624,4.3524,4.4028,4.4294,4.4996,4.5195,4.5648,4.598,4.6273,4.6264,4.6222,4.6176,4.6146,4.6114,4.6102,4.6395,4.6629,4.6588,4.5748,4.5584,4.5457,4.5317,4.5277,4.5277,4.5277,4.5298,4.5298,4.536,4.5457,4.5547,4.558,4.556,4.5541,4.5571,4.5555,4.5522,4.5507,4.5565,4.5565,4.553,4.5727,4.575,4.5659,4.5568,4.5515,4.5436,4.5376,4.5317,4.5297,4.5277,4.5277,4.5258,4.5277,4.5277,4.5277,4.5277,4.5277,4.5277,4.5258,4.5201,4.48,4.4437,4.3883,4.3329,4.2163,4.096,4.1094,4.1571,4.1781,4.18,4.2335,4.3194,4.3977,4.4704,4.5107,4.5167,4.538,4.5381,4.5016,4.5111,4.4957,4.3827,4.3331,4.3369,4.371,4.459,4.4991,4.5277,4.5173,4.5065,4.4948,4.4694,4.4329,4.4202,4.4511,4.4738,4.464,4.4578,4.457,4.4515,4.4551,4.4524,4.0799,4.0315,4.0121,4.0298,4.0662,4.0706,4.0764,4.0771,4.0725,4.0745,4.0951,4.1731,4.1995,4.1774,4.268,4.3482,4.3782,4.4543,4.526,4.5699,4.5816,4.6147,4.6231,4.6222,4.6169,4.6138,4.6056,4.6033,4.6111,4.624,4.6189,4.577,4.5618,4.5495,4.5339,4.5277,4.5277,4.5277,4.5277,4.5277,4.5277,4.5361,4.5457,4.5475,4.5455,4.5417,4.547,4.5488,4.5541,4.5607,4.5703,4.5747,4.578,4.588,4.5874,4.5795,4.5719,4.562,4.5534,4.5457,4.5379,4.5319,4.5277,4.5277,4.5277,4.5277,4.5277,4.5277,4.5277,4.5277,4.5277,4.5277,4.5277,4.5029,4.4838,4.4494,4.3749,4.2755,4.1475,4.0616,4.1285,4.2125,4.2335,4.3061,4.3883,4.4513,4.5201,4.5317,4.5436,4.5515,4.5552,4.5586,4.5563,4.4975,4.3867,4.3618,4.3752,4.4192,4.4647,4.4972,4.5275,4.5087,4.4934,4.4948,4.4919,4.4783,4.4758,4.484,4.4789,4.4685,4.4632,4.4597,4.457,4.4496,4.4496,3.94,3.9384,3.9232,3.9576,4.0282,4.0314,4.0004,3.9605,4.0024,4.0087,3.989,4.0451,4.0749,4.1422,4.1987,4.2873,4.363,4.4195,4.5084,4.5679,4.588,4.606,4.6162,4.6196,4.6154,4.6104,4.6035,4.6003,4.6011,4.6104,4.6054,4.5761,4.5632,4.5547,4.5361,4.5277,4.5277,4.5277,4.5277,4.5277,4.5277,4.5297,4.538,4.5419,4.5419,4.5419,4.5493,4.558,4.561,4.5703,4.5808,4.5893,4.591,4.5953,4.596,4.5899,4.5847,4.5742,4.5632,4.555,4.5438,4.536,4.5319,4.5277,4.5277,4.5277,4.5277,4.5277,4.5277,4.5277,4.5277,4.5277,4.5277,4.5277,4.5125,4.5029,4.4206,4.3461,4.2277,4.0998,4.1667,4.2622,4.3233,4.394,4.4456,4.5086,4.5337,4.5434,4.5494,4.5534,4.5569,4.562,4.5668,4.4895,4.4172,4.4135,4.4383,4.4479,4.4876,4.5125,4.5233,4.5024,4.4957,4.5038,4.501,4.4919,4.4895,4.4919,4.4846,4.4764,4.4712,4.4678,4.4542,4.4496,4.4496,3.7992,3.8457,3.8381,3.8426,3.8565,3.8546,3.8796,3.9167,3.8739,3.9168,4.0001,3.9893,4.0422,4.2032,4.2225,4.2795,4.3382,4.3929,4.4394,4.4966,4.5448,4.5772,4.6045,4.619,4.6122,4.6056,4.6003,4.5991,4.598,4.598,4.5905,4.5713,4.5677,4.5565,4.5339,4.5277,4.5277,4.5277,4.5277,4.5277,4.5277,4.5297,4.5317,4.5298,4.5216,4.5192,4.5213,4.5282,4.5342,4.5472,4.5718,4.588,4.5941,4.5975,4.5975,4.5972,4.5925,4.5893,4.578,4.5632,4.5512,4.5438,4.5361,4.5277,4.5277,4.5277,4.5277,4.5277,4.5277,4.5277,4.5277,4.5277,4.5277,4.5277,4.5201,4.5201,4.48,4.4494,4.3883,4.3386,4.3482,4.4074,4.4475,4.4895,4.5029,4.543,4.5373,4.5472,4.5764,4.5705,4.5624,4.5673,4.5758,4.5841,4.5538,4.5098,4.5163,4.5132,4.5027,4.5137,4.5137,4.4915,4.4915,4.4976,4.5038,4.5014,4.5014,4.4991,4.4962,4.4865,4.4815,4.4731,4.4578,4.4496,4.4496]},{"header":{"parameterUnit":"m.s-1","parameterCategory":1,"la1":31.0,"la2":29.5877,"lo1":-88.7671,"lo2":-86.6584,"dy":0.0162,"dx":0.0185,"nx":115,"ny":88,"refTime":"2023-10-08T06:00:00:Z","depth":0,"parameterNumber":3,"parameterNumberName":"V-component_of_WINDS"},"data":[0.0,0.0,0.0,0.0,0.0,0.0,0.0,0.0,0.0,0.0,0.0,0.0,0.0,0.0,0.0,0.0,0.0,0.0,0.0,0.0,0.0,0.0,0.0,0.0,0.0,0.0,0.0,0.0,0.0,0.0,0.0,0.0,0.0,0.0,0.0,0.0,0.0,0.0,0.0,0.0,0.0,0.0,0.0,0.0,0.0,0.0,0.0,0.0,0.0,0.0,0.0,0.0,0.0,0.0,0.0,0.0,0.0,0.0,0.0,0.0,0.0,0.0,0.0,0.0,0.0,0.0,0.0,0.0,0.0,0.0,0.0,0.0,0.0,0.0,0.0,0.0,0.0,0.0,0.0,0.0,0.0,0.0,0.0,0.0,0.0,0.0,0.0,0.0,0.0,0.0,0.0,0.0,0.0,0.0,0.0,0.0,0.0,0.0,0.0,0.0,0.0,0.0,0.0,0.0,0.0,0.0,0.0,0.0,0.0,0.0,0.0,0.0,0.0,0.0,0.0,0.0,0.0,0.0,0.0,0.0,0.0,0.0,0.0,0.0,0.0,0.0,0.0,0.0,0.0,0.0,0.0,0.0,0.0,0.0,0.0,0.0,0.0,0.0,0.0,0.0,0.0,0.0,0.0,0.0,0.0,0.0,0.0,0.0,0.0,0.0,0.0,0.0,0.0,0.0,0.0,0.0,0.0,0.0,0.0,0.0,0.0,0.0,0.0,0.0,0.0,0.0,0.0,0.0,0.0,0.0,0.0,0.0,0.0,0.0,0.0,0.0,0.0,0.0,0.0,0.0,0.0,0.0,0.0,0.0,0.0,0.0,0.0,0.0,0.0,0.0,0.0,0.0,0.0,0.0,0.0,0.0,0.0,0.0,0.0,0.0,0.0,0.0,0.0,0.0,0.0,0.0,0.0,0.0,0.0,0.0,0.0,0.0,0.0,0.0,0.0,0.0,0.0,0.0,0.0,0.0,0.0,0.0,0.0,0.0,0.0,0.0,0.0,0.0,0.0,0.0,0.0,0.0,0.0,0.0,0.0,0.0,0.0,0.0,0.0,0.0,0.0,0.0,0.0,0.0,0.0,0.0,0.0,0.0,0.0,0.0,0.0,0.0,0.0,0.0,0.0,0.0,0.0,0.0,0.0,0.0,0.0,0.0,0.0,0.0,0.0,0.0,0.0,0.0,0.0,0.0,0.0,0.0,0.0,0.0,0.0,0.0,0.0,0.0,0.0,0.0,0.0,0.0,0.0,0.0,0.0,0.0,0.0,0.0,0.0,0.0,0.0,0.0,0.0,0.0,0.0,0.0,0.0,0.0,0.0,0.0,0.0,0.0,0.0,0.0,0.0,0.0,0.0,0.0,0.0,0.0,0.0,0.0,0.0,0.0,0.0,0.0,0.0,0.0,0.0,0.0,0.0,0.0,0.0,0.0,0.0,0.0,0.0,0.0,0.0,0.0,0.0,0.0,0.0,0.0,0.0,0.0,0.0,0.0,0.0,0.0,0.0,0.0,0.0,0.0,0.0,0.0,0.0,0.0,0.0,0.0,0.0,0.0,0.0,0.0,0.0,0.0,0.0,0.0,0.0,0.0,0.0,0.0,0.0,0.0,0.0,0.0,0.0,0.0,0.0,0.0,0.0,0.0,0.0,0.0,0.0,0.0,0.0,0.0,0.0,0.0,0.0,0.0,0.0,0.0,0.0,0.0,0.0,0.0,0.0,0.0,0.0,0.0,0.0,0.0,0.0,0.0,0.0,0.0,0.0,0.0,0.0,0.0,0.0,0.0,0.0,0.0,0.0,0.0,0.0,0.0,0.0,0.0,0.0,0.0,0.0,0.0,0.0,0.0,0.0,0.0,0.0,0.0,0.0,0.0,0.0,0.0,0.0,0.0,0.0,0.0,0.0,0.0,0.0,0.0,0.0,0.0,0.0,0.0,0.0,0.0,0.0,0.0,0.0,0.0,0.0,0.0,0.0,0.0,0.0,0.0,0.0,0.0,0.0,0.0,0.0,0.0,0.0,0.0,0.0,0.0,0.0,0.0,0.0,0.0,0.0,0.0,0.0,0.0,0.0,0.0,0.0,0.0,0.0,0.0,0.0,0.0,0.0,0.0,0.0,0.0,0.0,0.0,0.0,0.0,0.0,0.0,0.0,0.0,0.0,0.0,0.0,0.0,0.0,0.0,0.0,0.0,0.0,0.0,0.0,0.0,0.0,0.0,0.0,0.0,0.0,0.0,0.0,0.0,0.0,0.0,0.0,0.0,0.0,0.0,0.0,0.0,0.0,0.0,0.0,0.0,0.0,0.0,0.0,0.0,0.0,0.0,0.0,0.0,0.0,0.0,0.0,0.0,0.0,0.0,0.0,0.0,0.0,0.0,0.0,0.0,0.0,0.0,0.0,0.0,0.0,0.0,0.0,0.0,0.0,0.0,0.0,0.0,0.0,0.0,0.0,0.0,0.0,0.0,0.0,0.0,0.0,0.0,0.0,0.0,0.0,0.0,0.0,0.0,0.0,0.0,0.0,0.0,0.0,0.0,0.0,0.0,0.0,0.0,0.0,0.0,0.0,0.0,0.0,0.0,0.0,0.0,0.0,0.0,0.0,0.0,0.0,0.0,0.0,0.0,0.0,0.0,0.0,0.0,0.0,0.0,0.0,0.0,0.0,0.0,0.0,0.0,0.0,0.0,0.0,0.0,0.0,0.0,0.0,0.0,0.0,0.0,0.0,0.0,0.0,0.0,0.0,0.0,0.0,0.0,0.0,0.0,0.0,0.0,0.0,0.0,0.0,0.0,0.0,0.0,0.0,0.0,0.0,0.0,0.0,0.0,0.0,0.0,0.0,0.0,0.0,0.0,0.0,0.0,0.0,0.0,0.0,0.0,0.0,0.0,0.0,0.0,0.0,0.0,0.0,0.0,0.0,0.0,0.0,0.0,0.0,0.0,0.0,0.0,0.0,0.0,0.0,0.0,0.0,0.0,0.0,0.0,0.0,0.0,0.0,0.0,0.0,0.0,0.0,0.0,0.0,0.0,0.0,0.0,0.0,0.0,0.0,0.0,0.0,0.0,0.0,0.0,0.0,0.0,0.0,0.0,0.0,0.0,0.0,0.0,0.0,0.0,0.0,0.0,0.0,0.0,0.0,0.0,0.0,0.0,0.0,0.0,0.0,0.0,0.0,0.0,0.0,0.0,0.0,0.0,0.0,0.0,0.0,0.0,0.0,0.0,0.0,0.0,0.0,0.0,0.0,0.0,0.0,0.0,0.0,0.0,0.0,0.0,0.0,0.0,0.0,0.0,0.0,0.0,0.0,0.0,0.0,0.0,0.0,0.0,0.0,0.0,0.0,0.0,0.0,0.0,0.0,0.0,0.0,0.0,0.0,0.0,0.0,0.0,0.0,0.0,0.0,0.0,0.0,0.0,0.0,0.0,0.0,0.0,0.0,0.0,0.0,0.0,0.0,0.0,0.0,0.0,0.0,0.0,0.0,0.0,0.0,0.0,0.0,0.0,0.0,0.0,0.0,0.0,0.0,0.0,0.0,0.0,0.0,0.0,0.0,0.0,0.0,0.0,0.0,0.0,0.0,0.0,0.0,0.0,0.0,0.0,0.0,0.0,0.0,0.0,0.0,0.0,0.0,0.0,0.0,0.0,0.0,0.0,0.0,0.0,0.0,0.0,0.0,0.0,0.0,0.0,0.0,0.0,0.0,0.0,0.0,0.0,0.0,0.0,0.0,0.0,0.0,0.0,0.0,0.0,0.0,0.0,0.0,0.0,0.0,0.0,0.0,0.0,0.0,0.0,0.0,0.0,0.0,0.0,0.0,0.0,0.0,0.0,0.0,0.0,0.0,0.0,0.0,0.0,0.0,0.0,0.0,0.0,0.0,0.0,0.0,0.0,0.0,0.0,0.0,0.0,0.0,0.0,0.0,0.0,0.0,0.0,0.0,0.0,0.0,0.0,0.0,0.0,0.0,0.0,0.0,0.0,0.0,0.0,0.0,0.0,0.0,0.0,0.0,0.0,0.0,0.0,0.0,0.0,0.0,0.0,0.0,0.0,0.0,0.0,0.0,0.0,0.0,0.0,0.0,0.0,0.0,0.0,0.0,0.0,0.0,0.0,0.0,0.0,0.0,0.0,0.0,0.0,0.0,0.0,0.0,0.0,0.0,0.0,0.0,0.0,0.0,0.0,0.0,0.0,0.0,0.0,0.0,0.0,0.0,0.0,0.0,0.0,0.0,0.0,0.0,0.0,0.0,0.0,0.0,0.0,0.1948,0.0,0.0,0.0,0.0,0.0,0.0,0.0,0.0,0.0,0.0,0.0,0.0,0.0,0.0,0.0,0.0,0.0,0.0,0.0,0.0,0.0,0.0,0.0,0.0,0.0,0.0,0.0,0.0,0.0,0.0,0.0,0.0,0.0,0.0,0.0,0.0,0.0,0.0,0.0,0.0,0.0,0.0,0.0,0.0,0.0,0.0,0.0,0.0,0.0,0.0,0.0,0.0,0.0,0.0,0.0,0.0,0.0,0.0,0.0,0.0,0.0,0.0,0.0,0.0,0.0,0.0,0.0,0.0,0.0,0.0,0.0,0.0,0.0,0.0,0.0,0.0,0.0,0.0,0.0,0.0,0.0,0.0,0.0,0.0,0.0,0.0,0.0,0.0,0.0,0.0,0.0,0.0,0.0,0.0,0.0,0.0,0.0,0.0,0.0,0.0,0.0,0.0,0.0,0.0,0.0,0.0,0.0,0.0,0.0,0.0,-0.1146,-0.0206,0.121,0.1921,0.1905,0.0,0.0,0.0,0.0,0.0,0.0,0.0,0.0,0.0,0.0,0.0,0.0,0.0,0.0,0.0,0.0,0.0,0.0,0.0,0.0,0.0,0.0,0.0,0.0,0.0,0.0,0.0,0.0,0.0,0.0,0.0,0.0,0.0,0.0,0.0,0.0,0.0,0.0,0.0,0.0,0.0,0.0,0.0,0.0,0.0,0.0,0.0,0.0,0.0,0.0,0.0,0.0,0.0,0.0,0.0,0.0,0.0,0.0,0.0,0.0,0.0,0.0,0.0,0.0,0.0,0.0,0.0,0.0,0.0,0.0,0.0,0.0,0.0,0.0,0.0,0.0,0.0,0.0,0.0,0.0,0.0,0.0,0.0,0.0,0.0,0.0,0.0,0.0,0.0,0.0,0.0,0.0,0.0,0.0,0.0,0.0,0.0,0.0,0.0,0.0,0.0,0.0,0.0,0.0,0.0,0.0,0.0,0.0,0.0,0.0,0.0,0.0,0.1389,0.2384,0.274,0.0,0.0,0.0,0.0,0.0,0.0,0.0,0.0,0.0,0.0,0.0,0.0,0.0,0.0,0.0,0.0,0.0,0.0,0.0,0.0,0.0,0.0,0.0,0.0,0.0,0.0,0.0,0.0,0.0,0.0,0.0,0.0,0.0,0.0,0.0,0.0,0.0,0.0,0.0,0.0,0.0,0.0,0.0,0.0,0.0,0.0,0.0,0.0,0.0,0.0,0.0,0.0,0.0,0.0,0.0,0.0,0.0,0.0,0.0,0.0,0.0,0.0,0.0,0.0,0.0,0.0,0.0,0.0,0.0,0.0,0.0,0.0,0.0,0.0,0.0,0.0,0.0,0.0,0.0,0.0,0.0,0.0,0.0,0.0,0.0,0.0,0.0,0.0,0.0,0.0,0.0,0.0,0.0,0.0,0.0,0.0,0.0,0.0,0.0,0.0,0.0,0.0,0.0,0.0,0.0,0.0,0.0,0.0,0.0,0.0,0.036,0.053,0.1948,0.0,0.5739,0.0,0.0,0.0,0.0,0.0,0.0,0.0,0.0,0.0,0.0,0.0,0.0,0.0,0.0,0.0,0.0,0.0,0.0,0.0,0.0,0.0,0.0,0.0,0.0,0.0,0.0,0.0,0.0,0.0,0.0,0.0,0.0,0.0,0.0,0.0,0.0,0.0,0.0,0.0,0.0,0.0,0.0,0.0,0.0,0.0,0.0,0.0,0.0,0.0,0.0,0.0,0.0,0.0,0.0,0.0,0.0,0.0,0.0,0.0,0.0,0.0,0.0,0.0,0.0,0.0,0.0,0.0,0.0,0.0,0.0,0.0,0.0,0.0,0.0,0.0,0.0,0.0,0.0,0.0,0.0,0.0,0.0,0.0,0.0,0.0,0.0,0.0,0.0,0.0,0.0,0.0,0.0,0.0,0.0,0.0,0.0,0.0,0.0,0.0,0.0,0.0,0.0,0.0,0.0,0.0,0.0,0.0,0.0,0.0,0.0,0.0243,0.0775,0.1982,0.3652,0.0,0.0,0.0,0.0,0.0,0.0,0.0,0.0,0.0,0.0,0.0,0.0,0.0,0.0,0.0,0.0,0.0,0.0,0.0,0.0,0.0,0.0,0.0,0.0,0.0,0.0,0.0,0.0,0.0,0.0,0.0,0.0,0.0,0.0,0.0,0.0,0.0,0.0,0.0,0.0,0.0,0.0,0.0,0.0,0.0,0.0,0.0,0.0,0.0,0.0,0.0,0.0,0.0,0.0,0.0,0.0,0.0,0.0,0.0,0.0,0.0,0.0,0.0,0.0,0.0,0.0,0.0,0.0,0.0,0.0,0.0,0.0,0.0,0.0,0.0,0.0,0.0,0.0,0.0,0.0,0.0,0.0,0.0,0.0,0.0,0.0,0.0,0.0,0.0,0.0,0.0,0.0,0.0,0.0,0.0,0.0,0.0,0.0,0.0,0.0,0.0,0.0,0.0,0.0,0.0,0.0,0.0,0.0,0.0,0.0,-0.0392,0.0329,0.1377,0.2395,0.3808,0.5651,0.0,0.0,0.0,0.0,0.0,0.0,0.0,0.0,0.0,0.0,0.0,0.0,0.0,0.0,0.0,0.0,0.0,0.0,0.0,0.0,0.0,0.0,0.0,0.0,0.0,0.0,0.0,0.0,0.0,0.0,0.0,0.0,0.0,0.0,0.0,0.0,0.0,0.0,0.0,0.0,0.0,0.0,0.0,0.0,0.0,0.0,0.0,0.0,0.0,0.0,0.0,0.0,0.0,0.0,0.0,0.0,0.0,0.0,0.0,0.0,0.0,0.0,0.0,0.0,0.0,0.0,0.0,0.0,0.0,0.0,0.0,0.0,0.0,0.0,0.0,0.0,0.0,0.0,0.0,0.0,0.0,0.0,0.0,0.0,0.0,0.0,0.0,0.0,0.0,0.0,0.0,0.0,0.0,0.0,0.0,0.0,0.0,0.0,0.0,0.0,0.0,0.0,0.0,0.0,0.0,0.0,0.0,0.0,-0.1333,-0.0348,0.0956,0.2548,0.354,0.4643,0.0,0.0,0.0,0.0,0.0,0.0,0.0,0.0,0.0,0.0,0.0,0.0,0.0,0.0,0.0,0.0,0.0,0.0,0.0,0.0,0.0,0.0,0.0,0.0,0.0,0.0,0.0,0.0,0.0,0.0,0.0,0.0,0.0,0.0,0.0,0.0,0.0,0.0,0.0,0.0,0.0,0.0,0.0,0.0,0.0,0.0,0.0,0.0,0.0,0.0,0.0,0.0,0.0,0.0,0.0,0.0,0.0,0.0,0.0,0.0,0.0,0.0,0.0,0.0,0.0,0.0,0.0,0.0,0.0,0.0,0.0,0.0,0.0,0.0,0.0,0.0,0.0,0.0,0.0,0.0,0.0,0.0,0.0,0.0,0.0,0.0,0.0,0.0,0.0,0.0,0.0,0.0,0.0,0.0,0.0,0.0,0.0,0.0,0.0,0.0,0.0,0.0,0.0,0.0,0.0,0.0,0.0,0.0,0.0,-0.098,0.0154,0.1373,0.2606,0.3465,0.457,0.0,0.0,0.0,0.0,0.0,0.0,0.0,0.0,0.0,0.0,0.0,0.0,0.0,0.0,0.0,0.0,0.0,0.0,0.0,0.0,0.0,0.0,0.0,0.0,0.0,0.0,0.0,0.0,0.0,0.0,0.0,0.0,0.0,0.0,0.0,0.0,0.0,0.0,0.0,0.0,0.0,0.0,0.0,0.0,0.0,0.0,0.0,0.0,0.0,0.0,0.0,0.0,0.0,0.0,0.0,0.0,0.0,0.0,0.0,0.0,0.0,0.0,0.0,0.0,0.0,0.0,0.0,0.0,0.0,0.0,0.0,0.0,0.0,0.0,0.0,0.0,0.0,0.0,0.0,0.0,0.0,0.0,0.0,0.0,0.0,0.0,0.0,0.0,0.0,0.0,0.0,0.0,0.0,0.0,0.0,0.0,0.0,0.0,0.0,0.0,0.0,0.0,0.0,0.0,0.0,0.0,0.0,0.0,0.0,-0.0181,0.0,0.1608,0.2367,0.3461,0.4547,0.0,0.0,0.0,0.0,0.0,0.0,0.0,0.0,0.0,0.0,0.0,0.0,0.0,0.0,0.0,0.0,0.0,0.0,0.0,0.0,0.0,0.0,0.0,0.0,0.0,0.0,0.0,0.0,0.0,0.0,0.0,0.0,0.0,0.0,0.0,0.0,0.0,0.0,0.0,0.0,0.0,0.0,0.0,0.0,0.0,0.0,0.0,0.0,0.0,0.0,0.0,0.0,0.0,0.0,0.0,0.0,0.0,0.0,0.0,0.0,0.0,0.0,0.0,0.0,0.0,0.0,0.0,0.0,0.0,0.0,0.0,0.0,0.0,0.0,0.0,0.0,0.0,0.0,0.0,0.0,0.0,0.0,0.0,0.0,0.0,0.0,0.0,0.0,0.0,0.0,0.0,0.0,0.0,0.0,0.0,0.0,0.0,0.0,0.0,0.0,0.0,0.0,0.0,0.0,0.0,0.0,0.0,0.0,-0.032,0.1036,0.1399,0.172,0.1953,0.3636,0.4676,0.0,0.0,0.0,0.0,0.0,0.0,0.0,0.0,0.0,0.0,0.0,0.0,0.0,0.0,0.0,0.0,0.0,0.0,0.0,0.0,0.0,0.0,0.0,0.0,0.0,0.0,0.0,0.0,0.0,0.0,0.0,0.0,0.0,0.0,0.0,0.0,0.0,0.0,0.0,0.0,0.0,0.0,0.0,0.0,0.0,0.0,0.0,0.0,0.0,0.0,0.0,0.0,0.0,0.0,0.0,0.0,0.0,0.0,0.0,0.0,0.0,0.0,0.0,0.0,0.0,0.0,0.0,0.0,0.0,0.0,0.0,0.0,0.0,0.0,0.0,0.0,0.0,0.0,0.0,0.0,0.0,0.0,0.0,0.0,0.0,0.0,0.0,0.0,0.0,0.0,0.0,0.0,0.0,0.0,0.0,0.0,0.0,0.0,0.0,0.0,0.0,0.0,0.0,0.0,0.0,0.0,0.0,0.0,0.0,0.0942,0.1378,0.2086,0.3027,0.3753,0.4784,0.0,0.0,0.0,0.0,0.0,0.0,0.0,0.0,0.0,0.0,0.0,0.0,0.0,0.0,0.0,0.0,0.0,0.0,0.0,0.0,0.0,0.0,0.0,0.0,0.0,0.0,0.0,0.0,0.0,0.0,0.0,0.0,0.0,0.0,0.0,0.0,0.0,0.0,0.0,0.0,0.0,0.0,0.0,0.0,0.0,0.0,0.0,0.0,0.0,0.0,0.0,0.0,0.0,0.0,0.0,0.0,0.0,0.0,0.0,0.0,0.0,0.0,0.0,0.0,0.0,0.0,0.0,0.0,0.0,0.0,0.0,0.0,0.0,0.0,0.0,0.0,0.0,0.0,0.0,0.0,0.0,0.0,0.0,0.0,0.0,0.0,0.0,0.0,0.0,0.0,0.0,0.0,0.0,0.0,0.0,0.0,0.0,0.0,0.0,0.0,0.0,0.0,0.0,0.0,0.0,0.0,0.0,0.0,0.0,0.1424,0.1775,0.2342,0.3153,0.4005,0.5042,0.6265,0.0,0.0,0.0,0.0,0.0,0.0,0.0,0.0,0.0,0.0,0.0,0.0,0.0,0.0,0.0,0.0,0.0,0.0,0.0,0.0,0.0,0.0,0.0,0.0,0.0,0.0,0.0,0.0,0.0,0.0,0.0,0.0,0.0,0.0,0.0,0.0,0.0,0.0,0.0,0.0,0.0,0.0,0.0,0.0,0.0,0.0,0.0,0.0,0.0,0.0,0.0,0.0,0.0,0.0,0.0,0.0,0.0,0.0,0.0,0.0,0.0,0.0,0.0,0.0,0.0,0.0,0.0,0.0,0.0,0.0,0.0,0.0,0.0,0.0,0.0,0.0,0.0,0.0,0.0,0.0,0.0,0.0,0.0,0.0,0.0,0.0,0.0,0.0,0.0,0.0,0.0,0.0,0.0,0.0,0.0,0.0,0.0,0.0,0.0,0.0,0.0,0.0,0.0,0.0,0.0,0.0,0.0,0.0,0.2413,0.2505,0.2588,0.2719,0.4466,0.5449,0.0,0.0,0.0,0.0,0.0,0.0,0.0,0.0,0.0,0.0,0.0,0.0,0.0,0.0,0.0,0.0,0.0,0.0,0.0,0.0,0.0,0.0,0.0,0.0,0.0,0.0,0.0,0.0,0.0,0.0,0.0,0.0,0.0,0.0,0.0,0.0,0.0,0.0,0.0,0.0,0.0,0.0,0.0,0.0,0.0,0.0,0.0,0.0,0.0,0.0,0.0,0.0,0.0,0.0,0.0,0.0,0.0,0.0,0.0,0.0,0.0,0.0,0.0,0.0,0.0,0.0,0.0,0.0,0.0,0.0,0.0,0.0,0.0,0.0,0.0,0.0,0.0,0.0,0.0,0.0,0.0,0.0,0.0,0.0,0.0,0.0,0.0,0.0,0.0,0.0,0.0,0.0,0.0,0.0,0.0,0.0,0.0,0.0,0.0,0.0,0.0,0.0,0.0,0.0,0.0,0.0,0.0,0.0,0.0,0.2926,0.2977,0.3406,0.4411,0.5439,0.6486,0.0,0.0,0.0,0.0,0.0,0.0,0.0,0.0,0.0,0.0,0.0,0.0,0.0,0.0,0.0,0.0,0.0,0.0,0.0,0.0,0.0,0.0,0.0,0.0,0.0,0.0,0.0,0.0,0.0,0.0,0.0,0.0,0.0,0.0,0.0,0.0,0.0,0.0,0.0,0.0,0.0,0.0,0.0,0.0,0.0,0.0,0.0,0.0,0.0,0.0,0.0,0.0,0.0,0.0,0.0,0.0,0.0,0.0,0.0,0.0,0.0,0.0,0.0,0.0,0.0,0.0,0.0,0.0,0.0,0.0,0.0,0.0,0.0,0.0,0.0,0.0,0.0,0.0,0.0,0.0,0.0,0.0,0.0,0.0,0.0,0.0,0.0,0.0,0.0,0.0,0.0,0.0,0.0,0.0,0.0,0.0,0.0,0.0,0.0,0.0,0.0,0.0,0.0,0.0,0.0,0.0,0.0,0.0,0.2502,0.2907,0.3445,0.4275,0.5465,0.624,0.7022,0.0,0.0,0.0,0.0,0.0,0.0,0.0,0.0,0.0,0.0,0.0,0.0,0.0,0.0,0.0,0.0,0.0,0.0,0.0,0.0,0.0,0.0,0.0,0.0,0.0,0.0,0.0,0.0,0.0,0.0,0.0,0.0,0.0,0.0,0.0,0.0,0.0,0.0,0.0,0.0,0.0,0.0,0.0,0.0,0.0,0.0,0.0,0.0,0.0,0.0,0.0,0.0,0.0,0.0,0.0,0.0,0.0,0.0,0.0,0.0,0.0,0.0,0.0,0.0,0.0,0.0,0.0,0.0,0.0,0.0,0.0,0.0,0.0,0.0,0.0,0.0,0.0,0.0,0.0,0.0,0.0,0.0,0.0,0.0,0.0,0.0,0.0,0.0,0.0,0.0,0.0,0.0,0.0,0.0,0.0,0.0,0.0,0.0,0.0,0.0,0.0,0.0,0.0,0.0,0.0,0.0,0.0,0.0,0.2793,0.2536,0.3893,0.5046,0.5907,0.6742,0.7229,0.0,0.0,0.0,0.0,0.0,0.0,0.0,0.0,0.0,0.0,0.0,0.0,0.0,0.0,0.0,0.0,0.0,0.0,0.0,0.0,0.0,0.0,0.0,0.0,0.0,0.0,0.0,0.0,0.0,0.0,0.0,0.0,0.0,0.0,0.0,0.0,0.0,0.0,0.0,0.0,0.0,0.0,0.0,0.0,0.0,0.0,0.0,0.0,0.0,0.0,0.0,0.0,0.0,0.0,0.0,0.0,0.0,0.0,0.0,0.0,0.0,0.0,0.0,0.0,0.0,0.0,0.0,0.0,0.0,0.0,0.0,0.0,0.0,0.0,0.0,0.0,0.0,0.0,0.0,0.0,0.0,0.0,0.0,0.0,0.0,0.0,0.0,0.0,0.0,0.0,0.0,0.0,0.0,0.0,0.0,0.0,0.0,0.0,0.0,0.0,0.0,0.0,0.0,0.0,0.0,0.0,0.0,0.0,0.1543,0.267,0.4079,0.5033,0.5537,0.6115,0.7215,0.0,0.0,0.0,0.0,0.0,0.0,0.0,0.0,0.0,0.0,0.0,0.0,0.0,0.0,0.0,0.0,0.0,0.0,0.0,0.0,0.0,0.0,0.0,0.0,0.0,0.0,0.0,0.0,0.0,0.0,0.0,0.0,0.0,0.0,0.0,0.0,0.0,0.0,0.0,0.0,0.0,0.0,0.0,0.0,0.0,0.0,0.0,0.0,0.327,0.0,0.0,0.0,0.0,0.0,0.0,0.0,0.0,0.0,0.0,0.0,0.0,0.0,0.0,0.0,0.0,0.0,0.0,0.0,0.0,0.0,0.0,0.0,0.0,0.0,0.0,0.0,0.0,0.0,0.0,0.0,0.0,0.0,0.0,0.0,0.0,0.0,0.0,0.0,0.0,0.0,0.0,0.0,0.0,0.0,0.0,0.0,0.0,0.0,0.0,0.0,0.0,0.0,0.0,0.0,0.0,0.0,0.0,0.0,0.1299,0.2453,0.3995,0.5068,0.5671,0.6348,0.7381,0.0,0.0,0.0,0.0,0.0,0.0,0.0,0.0,0.0,0.0,0.0,0.0,0.0,0.0,0.0,0.0,0.0,0.0,0.0,0.0,0.0,0.0,0.0,0.0,0.0,0.0,0.0,0.0,0.0,0.0,0.0,0.0,0.0,0.0,0.0,0.0,0.0,0.0,0.0,0.0,0.0,0.0,0.0,0.0,0.0,0.0,0.0,0.0,0.0,0.0,0.0,0.0,0.0,0.0,0.0,0.0,0.0,0.0,0.0,0.0,0.0,0.0,0.0,0.0,0.0,0.0,0.0,0.0,0.0,0.0,0.0,0.0,0.0,0.0,0.0,0.0,0.0,0.0,0.0,0.0,0.0,0.0,0.0,0.0,0.0,0.0,0.0,0.0,0.0,0.0,0.0,0.0,0.0,0.0,0.0,0.0,0.0,0.0,0.0,0.0,0.0,0.0,0.0,0.0,0.0,0.0,0.0,0.0263,0.128,0.2217,0.3971,0.5294,0.5971,0.686,0.7668,0.8376,0.0,0.0,0.0,0.0,0.0,0.0,0.0,0.0,0.0,0.0,0.0,0.0,0.0,0.0,0.0,0.0,0.0,0.0,0.0,0.0,0.0,0.0,0.0,0.0,0.0,0.0,0.0,0.0,0.0,0.0,0.0,0.0,0.0,0.0,0.0,0.0,0.0,0.0,-0.0597,0.0176,0.0,0.0,0.0,0.0,0.0,0.0,0.0,0.0,0.3885,0.0,0.0,0.0,0.0,0.0,0.0,0.0,0.0,0.0,0.0,0.0,0.0,0.0,0.0,0.0,0.0,0.0,0.0,0.0,0.0,0.0,0.0,0.0,0.0,0.0,0.0,0.0,0.0,0.0,0.0,0.0,0.0,0.0,0.0,0.0,0.0,0.0,0.0,0.0,0.0,0.0,0.0,0.0,0.0,0.0,0.0,0.0,0.0,0.0,0.0,0.0,0.0,0.0,0.0,0.0,0.0,-0.1286,-0.0706,0.0425,0.2181,0.4652,0.5941,0.5951,0.6934,0.8069,0.9279,0.0,0.0,0.0,0.0,0.0,0.0,0.0,0.0,0.0,0.0,0.0,0.0,0.0,0.0,0.0,0.0,0.0,0.0,0.0,0.0,0.0,0.0,0.0,0.0,0.0,0.0,0.0,0.0,0.0,0.0,0.0,0.0,0.0,0.0,0.0,0.0,0.0,0.0,0.0,-0.0674,-0.0071,0.0,0.0,0.0,0.0,0.0,0.0,0.0,0.0,0.8081,0.0,0.0,0.0,0.0,0.0,0.0,0.0,0.0,0.0,0.0,0.0,0.0,0.0,0.0,0.0,0.0,0.0,0.0,0.0,0.0,0.0,0.0,0.0,0.0,0.0,0.0,0.0,0.0,0.0,0.0,0.0,0.0,0.0,0.0,0.0,0.0,0.0,0.0,0.0,0.0,0.0,0.0,0.0,0.0,0.0,0.0,0.0,0.0,0.0,0.0,0.0,0.0,0.0,0.0,0.0,-0.1715,-0.1163,0.014,0.2157,0.3997,0.5352,0.6126,0.6745,0.8089,0.0,0.0,0.0,0.0,0.0,0.0,0.0,0.0,0.0,0.0,0.0,0.0,0.0,0.0,0.0,0.0,0.0,0.0,0.0,0.0,0.0,0.0,0.0,0.0,0.0,0.0,0.0,0.0,0.0,0.0,0.0,0.0,0.0,0.0,0.0,0.0,0.0,0.0,0.0,0.0,-0.0962,0.0104,0.1873,0.0,0.0,0.0,0.0,0.0,0.0,0.7201,0.9194,0.0,0.0,0.0,0.0,0.0,0.0,0.0,0.0,0.0,0.0,0.0,0.0,0.0,0.0,0.0,0.0,0.0,0.0,0.0,0.0,0.0,0.0,0.0,0.0,0.0,0.0,0.0,0.0,0.0,0.0,0.0,0.0,0.0,0.0,0.0,0.0,0.0,0.0,0.0,0.0,0.0,0.0,0.0,0.0,0.0,0.0,0.0,0.0,0.0,0.0,0.0,0.0,0.0,0.0,0.0,-0.2167,-0.1364,0.0054,0.2041,0.3367,0.4699,0.6108,0.6554,0.8012,0.0,0.0,0.0,0.0,0.0,0.0,0.0,0.0,0.0,0.0,0.0,0.0,0.0,0.0,0.0,0.0,0.0,0.0,0.0,0.0,0.0,0.0,0.0,0.0,0.0,0.0,0.0,0.0,0.0,0.0,0.0,0.0,0.0,0.0,0.0,0.0,0.0,0.0,0.0,0.0,0.0,0.0179,0.2038,0.2994,0.0,0.0,0.0,0.0,0.5089,0.762,0.0,0.0,0.0,0.0,0.0,0.0,0.0,0.0,0.0,0.0,0.0,0.0,0.0,0.0,0.0,0.0,0.0,0.0,0.0,0.0,0.0,0.0,0.0,0.0,0.0,0.0,0.0,0.0,0.0,0.0,0.0,0.0,0.0,0.0,0.0,0.0,0.0,0.0,0.0,0.0,0.0,0.0,0.0,0.0,0.0,0.0,0.0,0.0,0.0,0.0,0.0,0.0,0.0,0.0,0.0,0.0,-0.2675,-0.1391,0.0075,0.1744,0.367,0.4893,0.5361,0.6381,0.7864,0.0,0.0,0.0,0.0,0.0,0.0,0.0,0.0,0.0,0.0,0.0,0.0,0.0,0.0,0.0,0.0,0.0,0.0,0.0,0.0,0.0,0.0,0.0,0.0,0.0,0.0,0.0,0.0,0.0,0.0,0.0,0.0,0.0,0.0,0.0,0.0,0.0,0.0,0.0,0.0,0.0,-0.0844,0.2588,0.3965,0.4801,0.0,0.0,0.5056,0.555,0.7693,0.0,0.0,0.0,0.0,0.0,0.0,0.0,0.0,0.0,0.0,0.0,0.0,0.0,0.0,0.0,0.0,0.0,0.0,0.0,0.0,0.0,0.0,0.0,0.0,0.0,0.0,0.0,0.0,0.0,0.0,0.0,0.0,0.0,0.0,0.0,0.0,0.0,0.0,0.0,0.0,0.0,0.0,0.0,0.0,0.0,0.0,0.0,0.0,0.0,0.0,0.0,0.0,0.0,0.0,0.0,-0.3022,-0.2912,-0.1492,0.0049,0.1748,0.3418,0.461,0.5315,0.6147,0.7746,0.0,0.0,0.0,0.0,0.0,0.0,0.0,0.0,0.0,0.0,0.0,0.0,0.0,0.0,0.0,0.0,0.0,0.0,0.0,0.0,0.0,0.0,0.0,0.0,0.0,0.0,0.0,0.0,0.0,0.0,0.0,0.0,0.0,0.0,0.0,0.0,0.0,0.0,0.0,0.0,0.0,0.0,0.2694,0.3775,0.0,0.0,0.0,0.5231,0.5193,0.0,0.0,0.0,0.0,0.0,0.0,0.0,0.0,0.0,0.0,0.0,0.0,0.0,0.0,0.0,0.0,0.0,0.0,0.0,0.0,0.0,0.0,0.0,0.0,0.0,0.0,0.0,0.0,0.0,0.0,0.0,0.0,0.0,0.0,0.0,0.0,0.0,0.0,0.0,0.0,0.0,0.0,0.0,0.0,0.0,0.0,0.0,0.0,0.0,0.0,0.0,0.0,0.0,0.0,0.0,0.0,0.0,-0.3194,-0.1633,0.0024,0.1676,0.307,0.4268,0.5254,0.5941,0.0,0.0,0.0,0.0,0.0,0.0,0.0,0.0,0.0,0.0,0.0,0.0,0.0,0.0,0.0,0.0,0.0,0.0,0.0,0.0,0.0,0.0,0.0,0.0,0.0,0.0,0.0,0.0707,0.0,0.0,0.0,0.0,0.0,0.0,0.0,0.0,0.0,0.0,0.0,0.0,0.0,0.0,0.1114,0.2804,0.3684,0.4321,0.0,0.0,0.5351,0.514,0.6336,0.7728,0.0,0.0,0.0,0.0,0.0,0.0,0.0,0.0,0.0,0.0,0.0,0.0,0.0,0.0,0.0,0.0,0.0,0.0,0.0,0.0,0.0,0.0,0.0,0.0,0.0,0.0,0.0,0.0,0.0,0.0,0.0,0.0,0.0,0.0,0.0,0.0,0.0,0.0,0.0,0.0,0.0,0.0,0.0,0.0,0.0,0.0,0.0,0.0,0.0,0.0,0.0,0.0,0.0,0.0,-0.3326,-0.3492,-0.1749,-0.0044,0.1482,0.2773,0.3915,0.4894,0.5848,0.7489,0.0,0.0,0.0,0.0,0.0,0.0,0.0,0.0,0.0,0.0,0.0,0.0,0.0,0.0,0.0,0.0,0.0,0.0,0.0,0.0,0.0,0.0,0.0,0.0,0.0,0.0,0.0,0.0,0.0,0.0,0.0,0.0,0.0,0.0,0.0,0.0,0.0,0.0,0.0,0.0,0.0,0.1759,0.3287,0.4029,0.4714,0.0,0.5358,0.5425,0.5792,0.6548,0.7205,0.7516,0.0,0.0,0.0,0.0,0.0,0.0,0.0,0.0,0.0,0.0,0.0,0.0,0.0,0.0,0.0,0.0,0.0,0.0,0.0,0.0,0.0,0.0,0.0,0.0,0.0,0.0,0.0,0.0,0.0,0.0,0.0,0.0,0.0,0.0,0.0,0.0,0.0,0.0,0.0,0.0,0.0,0.0,0.0,0.0,0.0,0.0,0.0,0.0,0.0,0.0,0.0,0.0,0.0,-0.3291,-0.3431,-0.1614,0.0044,0.1471,0.2867,0.4003,0.4894,0.6275,0.7804,0.0,0.0,0.0,0.0,0.0,0.0,0.0,0.0,0.0,0.0,0.0,0.0,0.0,0.0,0.0,0.0,0.0,0.0,0.0,0.0,0.0,0.0,0.0,0.0,0.0,0.0,0.0,0.0,0.1857,0.2651,0.3833,0.0,0.0,0.0,0.0,0.0,0.0,0.0,0.0,0.0,0.0,0.2391,0.3649,0.4283,0.0,0.0,0.5362,0.5592,0.6386,0.6829,0.7132,0.72,0.7437,0.0,0.0,0.0,0.0,0.0,0.0,0.0,0.0,0.0,0.0,0.0,0.0,0.0,0.0,0.0,0.0,0.0,0.0,0.0,0.0,0.0,0.0,0.0,0.0,0.0,0.0,0.0,0.0,0.0,0.0,0.0,0.0,0.0,0.0,0.0,0.0,0.0,0.0,0.0,0.0,0.0,0.0,0.0,0.0,0.0,0.0,0.0,0.0,0.0,0.0,0.0,0.0,-0.3253,-0.3212,-0.1495,0.0093,0.1522,0.2875,0.4106,0.5263,0.6636,0.7914,0.0,0.0,0.0,0.0,0.0,0.0,0.0,0.0,0.0,0.0,0.0,0.0,0.0,0.0,0.0,0.0,0.0,0.0,0.0,0.0,0.0,0.0,0.0,0.0,0.0,0.0,0.0,0.0,0.2588,0.315,0.4284,0.0,0.0,0.0,0.0,0.0,0.0,0.0,0.0,0.0,0.0,0.2952,0.4021,0.4504,0.4983,0.5545,0.5448,0.56,0.6548,0.6905,0.7133,0.7133,0.0,0.0,0.0,0.0,0.0,0.0,0.0,0.0,0.0,0.0,0.0,0.0,0.0,0.0,0.0,0.0,0.0,0.0,0.0,0.0,0.0,0.0,0.0,0.0,0.0,0.0,0.0,0.3146,0.0,0.0,0.4436,0.0,0.0,0.0,0.0,0.0,0.0,0.0,0.0,0.0,0.0,0.0,0.0,0.0,0.0,0.0,0.0,0.0,0.0,0.0,0.0,0.0,0.0,-0.3271,-0.2801,-0.134,0.0157,0.166,0.2684,0.4165,0.6065,0.6717,0.7767,0.9387,0.0,0.0,0.0,0.0,0.0,0.0,0.0,0.0,0.0,0.0,0.0,0.0,0.0,0.0,0.0,0.0,0.0,0.0,0.0,0.0,0.0,0.0,0.0,0.0,0.0,0.0,0.358,0.3843,0.4073,0.0,0.0,0.0,0.0,0.0,0.0,0.0,0.0,0.0,0.0,0.3408,0.335,0.4349,0.4752,0.5301,0.6187,0.575,0.5525,0.6137,0.6732,0.7085,0.0,0.0,0.0,0.0,0.0,0.0,0.0,0.0,0.0,0.0,0.0,0.0,0.0,0.0,0.0,0.0,0.0,0.0,0.0,0.0,0.0,0.0,0.0,0.0,0.0,0.0,0.0,0.4082,0.4135,0.0,0.0,0.0,0.0,0.0,0.0,0.0,0.0,0.0,0.0,0.0,0.4258,0.3864,0.0,0.0,0.0,0.0,0.0,0.0,0.0,0.0,0.0,0.0,0.0,0.0,-0.3118,-0.2593,-0.117,0.0298,0.1851,0.2936,0.4311,0.6067,0.7263,0.8663,1.0332,0.0,0.0,0.0,0.0,0.0,0.0,0.0,0.0,0.0,0.0,0.0,0.0,0.0,0.0,0.0,0.0,0.0,0.0,0.0,0.0,0.0,0.0,0.0,0.0,0.0,0.3224,0.0,0.0,0.0,0.0,0.0,0.0,0.0,0.0,0.0,0.0,0.0,0.2856,0.3855,0.4298,0.4574,0.4632,0.4953,0.5365,0.0,0.0,0.0,0.0,0.0,0.0,0.0,0.0,0.0,0.0,0.0,0.0,0.0,0.0,0.5693,0.5329,0.5102,0.5027,0.5254,0.0,0.0,0.0,0.0,0.0,0.0,0.0,0.0,0.0,0.0,0.0,0.0,0.0,0.0,0.4517,0.0,0.4877,0.0,0.0,0.0,0.0,0.0,0.0,0.0,0.0,0.2974,0.3189,0.3581,0.3257,0.3306,0.0,0.3468,0.3336,0.0,0.0,0.0,0.0,0.0,0.0,0.0,0.0,-0.2768,-0.2216,-0.091,0.0523,0.2013,0.3401,0.4897,0.646,0.7882,0.9287,1.0681,1.0605,1.0676,0.0,0.0,0.0,0.0,0.0,0.0,0.0,0.0,0.0,0.0,0.0,0.0,0.0,0.0,0.0,0.0,0.0,0.0,0.0,0.0,0.0,0.0,0.0,0.4295,0.0,0.0,0.0,0.0,0.0,0.0,0.0,0.0,0.0,0.3026,0.2912,0.3161,0.4092,0.4965,0.5401,0.5057,0.0,0.0,0.0,0.0,0.0,0.0,0.0,0.7925,0.7628,0.7634,0.7675,0.7758,0.732,0.7164,0.7778,0.0,0.0,0.59,0.5734,0.5588,0.549,0.557,0.5458,0.4897,0.4198,0.3651,0.0,0.0,0.0,0.0,0.0,0.0,0.0,0.0,0.4307,0.4425,0.0,0.4695,0.0,0.0,0.0,0.0,0.2937,0.2984,0.0,0.0,0.2941,0.2955,0.2962,0.306,0.3127,0.3108,0.3305,0.3324,0.3121,0.2988,0.0,0.0,0.0,0.0,0.0,0.0,-0.2268,-0.1762,-0.0565,0.0769,0.2107,0.4059,0.5808,0.7318,0.854,0.9592,1.0348,1.0732,1.1292,1.2048,1.3264,0.0,0.0,0.0,0.0,0.0,0.0,0.0,0.0,0.0,0.0,0.0,0.0,0.0,0.0,0.0,0.0,0.0,0.0,0.0,0.0,0.5887,0.0,0.0,0.0,0.0,0.0,0.0,0.0,0.0,0.0,0.0,0.3583,0.3357,0.3496,0.4521,0.0,0.0,0.0,0.0,0.6054,0.6471,0.6489,0.677,0.7783,0.7518,0.7472,0.8286,0.0,0.0,0.7785,0.7476,0.7443,0.7902,0.7178,0.635,0.6042,0.6043,0.601,0.5925,0.5719,0.5427,0.5283,0.5029,0.4736,0.6144,0.0,0.0,0.0,0.0,0.6064,0.5669,0.5094,0.555,0.5419,0.4904,0.5372,0.0,0.0,0.0,0.0,0.0,0.0,0.3193,0.3243,0.3146,0.3259,0.3403,0.33,0.3253,0.3334,0.3487,0.35,0.3455,0.3159,0.2009,0.0,0.0,0.0,0.0,0.0,-0.2116,-0.1537,-0.0476,0.0787,0.2151,0.4081,0.6095,0.8093,0.9111,0.9788,1.008,1.0135,1.063,1.1709,1.2077,0.0,0.0,0.0,0.0,0.0,0.0,0.0,0.0,0.0,0.0,0.0,0.0,0.0,0.0,0.0,0.0,0.0,0.0,0.0,0.5791,0.6,0.5973,0.0,0.0,0.0,0.0,0.0,0.0,0.0,0.0,0.0,0.353,0.3755,0.4378,0.0,0.0,0.5597,0.592,0.5947,0.6007,0.621,0.627,0.0,0.7535,0.7876,0.8007,0.7817,0.7657,0.7647,0.8062,0.8047,0.8038,0.8331,0.7917,0.7423,0.7366,0.6647,0.6182,0.6229,0.6306,0.634,0.6257,0.593,0.5646,0.6722,0.6286,0.6343,0.6495,0.6649,0.6656,0.6325,0.592,0.6373,0.6276,0.592,0.624,0.6198,0.5821,0.5195,0.0,0.0,0.0,0.3429,0.3519,0.3475,0.3497,0.3614,0.3541,0.347,0.3495,0.3636,0.3633,0.3616,0.3409,0.2265,0.0324,0.0,0.0,0.0131,-0.1011,-0.1485,-0.1131,-0.0145,0.1025,0.2353,0.4625,0.6623,0.8239,0.9107,0.9655,0.9883,0.9982,1.0303,1.0934,1.1237,1.14,0.0,0.0,0.0,0.0,0.0,0.0,0.0,0.0,0.0,0.0,0.0,0.7133,0.7133,0.0,0.0,0.0,0.5563,0.5352,0.5609,0.5937,0.0,0.0,0.0,0.0,0.0,0.0,0.0,0.3016,0.3411,0.3786,0.3998,0.4416,0.5036,0.6025,0.6028,0.6,0.6093,0.0,0.619,0.6331,0.6298,0.6581,0.7456,0.7871,0.7987,0.7591,0.7669,0.7731,0.7917,0.8084,0.8248,0.8471,0.8269,0.7966,0.804,0.7238,0.6647,0.6671,0.6716,0.6754,0.6718,0.6349,0.6148,0.6823,0.658,0.711,0.7232,0.7115,0.7036,0.6886,0.6649,0.6834,0.7006,0.7193,0.7089,0.6917,0.6659,0.5336,0.0,0.3969,0.3773,0.3683,0.3692,0.3776,0.3755,0.3649,0.3772,0.3741,0.3619,0.3748,0.3734,0.3605,0.3577,0.2561,0.0755,0.0558,0.0457,0.0382,-0.0262,-0.0642,-0.0709,0.0274,0.1436,0.2803,0.5526,0.7322,0.8019,0.8725,0.9282,0.9636,0.996,1.01,1.0,1.0674,1.0883,1.0517,0.0,0.0,0.0,0.0,0.0,0.0,0.0,0.0,0.0,0.0,0.0,0.0,0.0,0.0,0.0,0.5786,0.0,0.537,0.5873,0.0,0.0,0.0,0.5466,0.4415,0.493,0.4816,0.3352,0.0,0.0,0.4789,0.5186,0.5582,0.5747,0.6475,0.6712,0.625,0.6291,0.6474,0.6777,0.6666,0.6782,0.7537,0.7628,0.7545,0.7546,0.7829,0.7929,0.7745,0.7912,0.824,0.8604,0.8387,0.8136,0.8132,0.7766,0.7427,0.706,0.6921,0.6834,0.6741,0.6492,0.6334,0.6579,0.6591,0.6634,0.6862,0.7127,0.6881,0.6915,0.7211,0.7477,0.7412,0.7212,0.7285,0.7217,0.6987,0.5795,0.4796,0.3969,0.3723,0.3679,0.3761,0.3764,0.3805,0.377,0.387,0.3896,0.3768,0.3899,0.3845,0.3622,0.3285,0.2337,0.0772,0.1056,0.1052,0.0592,-0.0164,-0.0724,-0.0983,0.0078,0.1892,0.4435,0.6479,0.7737,0.8212,0.8742,0.9107,0.9308,0.9166,0.923,0.9609,0.999,1.0186,1.0066,1.0612,0.0,0.0,0.0,0.0,0.0,0.0,0.0,0.0,0.0,0.7031,0.6815,0.0,0.6544,0.0,0.6114,0.6009,0.6,0.6105,0.0,0.0,0.5905,0.5742,0.53,0.5592,0.5494,0.4816,0.5584,0.6133,0.5955,0.6092,0.6117,0.5899,0.6018,0.627,0.658,0.6452,0.6573,0.6916,0.7113,0.7314,0.7501,0.7514,0.7579,0.7803,0.8018,0.8094,0.8165,0.8207,0.8344,0.8633,0.8481,0.8332,0.8468,0.8103,0.7647,0.7421,0.7202,0.7114,0.6988,0.6947,0.7007,0.5982,0.6041,0.6032,0.6279,0.6743,0.6884,0.712,0.7407,0.7871,0.7917,0.7724,0.7473,0.7166,0.6797,0.5766,0.4773,0.3955,0.3853,0.3841,0.3905,0.3884,0.3856,0.3813,0.3897,0.3878,0.3813,0.382,0.3837,0.3768,0.3139,0.2145,0.0824,0.1196,0.1196,0.0733,-0.0043,-0.0548,-0.0818,0.0671,0.2642,0.4983,0.6492,0.7671,0.8606,0.8892,0.9234,0.9594,0.9413,0.946,0.9722,0.9891,1.0101,1.0229,1.0351,0.9985,0.0,0.0,0.0,0.0,0.0,0.0,0.0,0.0,0.0,0.0,0.0,0.6381,0.6426,0.6282,0.6165,0.6048,0.6058,0.6041,0.5993,0.594,0.5863,0.5726,0.5825,0.5793,0.5612,0.5941,0.6241,0.6396,0.642,0.6318,0.6153,0.6113,0.6238,0.6568,0.6584,0.663,0.6933,0.7265,0.7526,0.7526,0.7773,0.8018,0.7924,0.8154,0.8344,0.8283,0.8387,0.8459,0.8447,0.8322,0.8322,0.8399,0.8093,0.7783,0.7544,0.7407,0.7334,0.7289,0.7315,0.7411,0.5238,0.5167,0.5273,0.5546,0.5987,0.6745,0.7128,0.7343,0.799,0.8262,0.8209,0.7503,0.6864,0.6277,0.5437,0.4615,0.3852,0.3913,0.3968,0.3968,0.3968,0.3905,0.3741,0.3791,0.3835,0.3824,0.3729,0.3774,0.3963,0.3062,0.2034,0.0958,0.1114,0.1118,0.081,0.0094,-0.0325,-0.0384,0.1563,0.3386,0.5148,0.621,0.7551,0.9067,0.9068,0.933,0.9933,0.996,1.0,1.0031,1.0114,1.0258,1.0533,1.0212,1.0287,0.0,0.9747,0.0,0.0,0.0,0.0,0.0,0.0,0.0,0.0,0.6376,0.6292,0.6619,0.6365,0.6119,0.5964,0.5972,0.5994,0.6065,0.6009,0.5957,0.5917,0.5921,0.5933,0.5953,0.5957,0.6079,0.6371,0.642,0.642,0.6412,0.6404,0.642,0.6453,0.6564,0.6675,0.6771,0.7213,0.7499,0.763,0.8082,0.8309,0.7979,0.8217,0.8491,0.8178,0.8463,0.8551,0.8174,0.8097,0.8169,0.8102,0.7863,0.7706,0.7557,0.7472,0.7468,0.7464,0.7472,0.748,0.4355,0.4298,0.4408,0.4522,0.4632,0.5391,0.6312,0.7289,0.7456,0.7444,0.7278,0.6691,0.6109,0.5513,0.5007,0.4343,0.368,0.3691,0.3694,0.3694,0.3866,0.3849,0.366,0.377,0.3923,0.3948,0.4011,0.4066,0.3958,0.2763,0.1762,0.091,0.0935,0.1002,0.1,0.0,0.0,0.0,0.2008,0.3952,0.5985,0.7102,0.8227,0.9444,0.8928,0.0,0.9345,0.931,0.945,0.9752,1.018,0.0,0.0,0.0,0.0,0.0,0.0,0.0,0.0,0.0,0.0,0.0,0.6577,0.6337,0.6455,0.6119,0.6086,0.656,0.637,0.622,0.6292,0.632,0.6269,0.6115,0.6073,0.6071,0.6137,0.6158,0.6211,0.6298,0.6319,0.6339,0.64,0.642,0.642,0.6432,0.6424,0.6477,0.6611,0.658,0.661,0.6861,0.726,0.759,0.7906,0.7873,0.7808,0.7836,0.7947,0.8134,0.8218,0.8463,0.8546,0.8016,0.7787,0.771,0.7863,0.7714,0.7557,0.748,0.748,0.748,0.748,0.748,0.748,0.4171,0.4213,0.4209,0.4238,0.0,0.4608,0.5277,0.6253,0.6583,0.6686,0.6519,0.5928,0.5386,0.4959,0.4457,0.4015,0.3577,0.3583,0.3585,0.3585,0.3079,0.2798,0.2742,0.3421,0.3761,0.3811,0.399,0.4125,0.4171,0.2726,0.1598,0.0905,0.0975,0.1093,0.1202,0.0483,0.0209,0.0403,0.1897,0.367,0.5533,0.6924,0.8151,0.9312,0.9063,0.0,0.0,0.0,0.0,0.0,0.0,0.0,0.0,1.0023,0.0,0.9732,0.8969,0.8479,0.8335,0.7593,0.7258,0.748,0.709,0.6692,0.6354,0.6468,0.6557,0.6644,0.6773,0.6703,0.645,0.6394,0.6347,0.624,0.6215,0.6256,0.6262,0.6282,0.6319,0.6396,0.642,0.642,0.642,0.642,0.6465,0.6546,0.6631,0.6712,0.6773,0.6656,0.6679,0.6921,0.7095,0.7355,0.7714,0.7689,0.7609,0.7778,0.794,0.8021,0.8174,0.8327,0.825,0.7791,0.7557,0.7557,0.7633,0.7561,0.748,0.748,0.748,0.748,0.748,0.748,0.748,0.4016,0.4354,0.4249,0.4203,0.4197,0.4235,0.4504,0.499,0.0,0.0,0.0,0.516,0.4743,0.449,0.4051,0.3722,0.3615,0.364,0.3637,0.3562,0.2558,0.188,0.1536,0.2508,0.3083,0.3253,0.3545,0.3823,0.4035,0.2437,0.1412,0.0954,0.1066,0.1122,0.1178,0.1122,0.0927,0.0618,0.1836,0.3301,0.5023,0.6623,0.7986,0.9116,0.9298,0.9588,1.009,0.9839,0.9706,0.9939,0.9962,0.9922,0.9894,0.9866,0.9709,0.9383,0.877,0.8336,0.8196,0.7722,0.7607,0.7898,0.7592,0.7113,0.6522,0.6916,0.7115,0.6824,0.7072,0.7062,0.6536,0.6461,0.642,0.642,0.642,0.6416,0.642,0.642,0.6416,0.642,0.642,0.644,0.6485,0.6448,0.6501,0.6717,0.6915,0.7101,0.6989,0.6879,0.6822,0.6982,0.7124,0.7228,0.7395,0.748,0.7633,0.7787,0.7868,0.8025,0.8021,0.8025,0.7872,0.7633,0.748,0.748,0.748,0.748,0.748,0.748,0.748,0.748,0.748,0.748,0.748,0.3149,0.4131,0.4166,0.4218,0.4209,0.4197,0.4256,0.4359,0.5008,0.5164,0.5007,0.4291,0.3969,0.39,0.3845,0.3793,0.3804,0.3789,0.3724,0.3584,0.3435,0.2252,0.0304,0.0425,0.0971,0.188,0.237,0.2522,0.2402,0.158,0.104,0.0957,0.101,0.1011,0.0841,0.101,0.1115,0.1213,0.2296,0.38,0.5686,0.7076,0.8299,0.9283,0.9479,0.9552,0.9516,0.966,0.9762,0.9671,0.9741,0.9673,0.9368,0.9308,0.9062,0.8645,0.851,0.8352,0.8024,0.7971,0.7844,0.7654,0.7663,0.7496,0.7173,0.6946,0.6937,0.7003,0.6772,0.6601,0.6641,0.6465,0.642,0.642,0.642,0.642,0.6428,0.6432,0.6436,0.6436,0.642,0.6513,0.6668,0.6546,0.6546,0.6871,0.7159,0.7342,0.7216,0.7167,0.709,0.7033,0.722,0.7403,0.7468,0.748,0.7557,0.7557,0.7561,0.7638,0.7638,0.7633,0.7638,0.7557,0.748,0.748,0.748,0.748,0.748,0.748,0.748,0.748,0.748,0.748,0.748,0.211,0.3162,0.3194,0.3563,0.4257,0.4064,0.4099,0.4326,0.45,0.4588,0.4474,0.4182,0.398,0.3849,0.3797,0.3803,0.3808,0.3742,0.3679,0.3517,0.2269,0.1049,0.0123,0.0432,0.0858,0.1333,0.1533,0.1664,0.1533,0.1216,0.108,0.1243,0.136,0.124,0.0945,0.1359,0.1523,0.1379,0.2189,0.3432,0.5089,0.6659,0.7811,0.8448,0.9034,0.9323,0.919,0.9321,0.9242,0.9038,0.9235,0.9187,0.8767,0.8864,0.8794,0.8595,0.8329,0.8212,0.8094,0.8041,0.7913,0.7708,0.7678,0.7623,0.7447,0.7297,0.7135,0.6985,0.6613,0.6416,0.6544,0.6482,0.642,0.642,0.642,0.6457,0.6538,0.6697,0.6713,0.6607,0.6611,0.6684,0.6921,0.6607,0.6583,0.6972,0.7305,0.7439,0.737,0.7362,0.7334,0.7273,0.7378,0.7464,0.748,0.748,0.748,0.748,0.748,0.748,0.748,0.748,0.748,0.748,0.748,0.748,0.748,0.748,0.748,0.748,0.748,0.748,0.748,0.748,0.748,0.1317,0.2249,0.2225,0.2865,0.3825,0.388,0.4099,0.4294,0.4227,0.4236,0.4205,0.4153,0.4016,0.3918,0.3859,0.3864,0.3877,0.3804,0.3432,0.265,0.083,0.0064,0.0319,0.0896,0.114,0.1114,0.107,0.1083,0.1018,0.1005,0.1182,0.1484,0.1603,0.154,0.1293,0.1787,0.1887,0.1603,0.2121,0.3084,0.4405,0.6018,0.6993,0.7503,0.8461,0.8896,0.8738,0.885,0.8824,0.8571,0.868,0.8652,0.8381,0.851,0.8604,0.8568,0.8237,0.8088,0.8153,0.8019,0.7857,0.7731,0.7666,0.7596,0.7526,0.7526,0.7326,0.6946,0.6613,0.642,0.6432,0.6509,0.6526,0.6493,0.6518,0.6603,0.6717,0.6883,0.6961,0.6851,0.6806,0.6859,0.6915,0.6802,0.6834,0.7151,0.7366,0.7472,0.748,0.748,0.748,0.748,0.748,0.748,0.748,0.748,0.748,0.748,0.748,0.748,0.748,0.748,0.748,0.748,0.748,0.748,0.748,0.748,0.748,0.748,0.7561,0.7557,0.7633,0.7561,0.7557,0.1014,0.1597,0.187,0.2171,0.2429,0.3641,0.411,0.4097,0.4276,0.4308,0.4188,0.3979,0.3958,0.4041,0.3926,0.4001,0.4223,0.4219,0.2809,0.0,0.0,0.0355,0.0971,0.1205,0.1191,0.1144,0.1094,0.1013,0.0781,0.097,0.1144,0.1487,0.1665,0.1794,0.1914,0.1977,0.2033,0.2147,0.2315,0.2987,0.4184,0.5316,0.619,0.6696,0.7883,0.8262,0.7955,0.8362,0.8536,0.8336,0.8235,0.824,0.834,0.8419,0.8371,0.8186,0.8175,0.8125,0.8016,0.7847,0.7731,0.7731,0.7601,0.754,0.7484,0.7466,0.733,0.6964,0.663,0.6424,0.6444,0.6696,0.681,0.6692,0.6716,0.6836,0.6924,0.7003,0.7037,0.6786,0.6911,0.7056,0.7106,0.7216,0.735,0.7387,0.7443,0.748,0.748,0.748,0.748,0.748,0.748,0.748,0.748,0.748,0.748,0.748,0.748,0.748,0.748,0.748,0.748,0.748,0.748,0.748,0.7557,0.748,0.748,0.7561,0.7638,0.7787,0.7787,0.7714,0.7633,-0.0661,0.0298,0.022,0.0503,0.0919,0.1498,0.2195,0.2995,0.3914,0.385,0.3168,0.3728,0.3685,0.2984,0.3728,0.4186,0.4194,0.2562,0.1142,0.0,0.0,0.0435,0.1151,0.1233,0.1231,0.1149,0.1149,0.1071,0.106,0.1398,0.159,0.1643,0.2048,0.2235,0.2271,0.2398,0.2489,0.2531,0.2371,0.2928,0.4247,0.5206,0.6041,0.6657,0.7306,0.7877,0.8208,0.8196,0.8076,0.8155,0.8198,0.8209,0.8055,0.8163,0.8228,0.8042,0.7931,0.7857,0.7792,0.7661,0.7596,0.7596,0.7513,0.7521,0.7453,0.7281,0.7162,0.7223,0.6747,0.6493,0.6704,0.6867,0.6991,0.6871,0.6915,0.6997,0.7106,0.7265,0.7277,0.7257,0.7236,0.7273,0.7334,0.7419,0.7476,0.748,0.748,0.748,0.748,0.748,0.748,0.748,0.748,0.748,0.748,0.748,0.748,0.748,0.748,0.748,0.748,0.748,0.748,0.748,0.748,0.7561,0.7642,0.7638,0.7633,0.7638,0.8016,0.8318,0.8165,0.8021,0.8021,-0.1653,-0.0686,-0.075,-0.0519,0.0,0.0,0.0586,0.1532,0.2662,0.2955,0.285,0.381,0.3405,0.2156,0.2761,0.3141,0.285,0.0954,0.0147,0.0295,0.0371,0.0744,0.1266,0.1266,0.1195,0.1198,0.1186,0.1109,0.1187,0.1616,0.1823,0.1822,0.2331,0.2527,0.2487,0.2621,0.2709,0.2678,0.2366,0.2959,0.4193,0.5082,0.5802,0.6428,0.6742,0.7269,0.7988,0.7745,0.7643,0.7876,0.8065,0.8064,0.787,0.8019,0.7982,0.7852,0.7722,0.769,0.7744,0.7546,0.7508,0.7564,0.7514,0.7527,0.7431,0.7251,0.7194,0.7392,0.7045,0.683,0.6974,0.7114,0.7078,0.7041,0.7138,0.7233,0.7277,0.7451,0.7501,0.7536,0.7443,0.748,0.748,0.748,0.748,0.748,0.748,0.748,0.748,0.748,0.748,0.748,0.748,0.748,0.748,0.748,0.748,0.748,0.748,0.748,0.748,0.748,0.748,0.748,0.748,0.7557,0.7561,0.7633,0.7787,0.7868,0.8169,0.8546,0.847,0.8327,0.8403,-0.1017,-0.0549,-0.0235,0.0,0.0,0.0,0.0,0.0,0.0,0.1681,0.3732,0.4095,0.3163,0.136,0.0815,0.0292,0.0293,0.015,0.0456,0.1142,0.1164,0.1254,0.1332,0.1331,0.124,0.1223,0.1217,0.1201,0.125,0.1539,0.1677,0.1755,0.2347,0.2482,0.2402,0.2545,0.2542,0.2437,0.2478,0.3011,0.4111,0.4862,0.5434,0.5752,0.6054,0.6341,0.6578,0.6991,0.7369,0.7628,0.7663,0.7759,0.7936,0.7792,0.7676,0.7536,0.754,0.756,0.7735,0.7632,0.7564,0.7724,0.7557,0.7509,0.7513,0.7438,0.7453,0.7504,0.7451,0.7261,0.7062,0.724,0.7346,0.724,0.7354,0.7431,0.7456,0.7443,0.7468,0.748,0.748,0.748,0.748,0.748,0.748,0.748,0.748,0.748,0.748,0.748,0.748,0.748,0.748,0.748,0.748,0.748,0.748,0.748,0.748,0.748,0.748,0.748,0.748,0.748,0.748,0.748,0.748,0.7633,0.7791,0.7944,0.8246,0.8551,0.8551,0.8627,0.8703,-0.2776,-0.0241,-0.0082,0.0,0.0,0.0,0.0,0.0,0.0,0.057,0.1367,0.0,0.1464,0.1298,0.103,0.0548,0.0078,0.0642,0.1055,0.1381,0.1311,0.1315,0.1398,0.1397,0.1311,0.1298,0.1279,0.1264,0.1336,0.1669,0.1827,0.1959,0.2504,0.2778,0.278,0.2837,0.289,0.2843,0.2783,0.3393,0.4557,0.5505,0.6029,0.612,0.6019,0.6248,0.681,0.6927,0.7178,0.7535,0.7614,0.7648,0.7657,0.7593,0.7539,0.7481,0.7519,0.7554,0.7617,0.7561,0.7517,0.7588,0.7568,0.7488,0.7509,0.752,0.7472,0.7538,0.7516,0.7403,0.7358,0.7415,0.746,0.7415,0.7439,0.748,0.748,0.748,0.748,0.748,0.748,0.748,0.748,0.748,0.748,0.748,0.748,0.748,0.748,0.748,0.748,0.748,0.748,0.748,0.748,0.748,0.748,0.748,0.748,0.748,0.748,0.748,0.748,0.748,0.748,0.7561,0.7561,0.7714,0.7868,0.8093,0.8399,0.8551,0.8627,0.8703,0.8703,-0.2841,0.0,0.0,0.0,0.0,0.0,0.0,0.0,0.0,0.0,0.0,0.0,0.0418,0.1094,0.1336,0.1082,0.05,0.1008,0.1264,0.1432,0.1348,0.1352,0.1359,0.1352,0.1353,0.1355,0.1331,0.1318,0.1401,0.1753,0.2,0.1972,0.2631,0.2905,0.2965,0.2945,0.2988,0.2999,0.2888,0.3375,0.4488,0.5869,0.6447,0.6203,0.6117,0.6333,0.6854,0.6782,0.6926,0.7233,0.74,0.7433,0.7437,0.7496,0.7541,0.7485,0.7517,0.7481,0.7529,0.7542,0.75,0.7565,0.7529,0.7526,0.7538,0.7495,0.7472,0.748,0.748,0.748,0.748,0.748,0.748,0.748,0.748,0.748,0.748,0.748,0.748,0.748,0.748,0.748,0.748,0.748,0.748,0.748,0.748,0.748,0.748,0.748,0.748,0.748,0.748,0.748,0.748,0.748,0.748,0.748,0.748,0.748,0.748,0.748,0.748,0.748,0.7557,0.7561,0.7638,0.7791,0.7944,0.8097,0.8322,0.847,0.8551,0.8703,0.8703,-0.0842,0.0,0.0,0.0,0.0,0.0,0.0,0.0,0.0,0.0,0.0,0.0,0.0258,0.0766,0.1207,0.1391,0.1212,0.1026,0.1018,0.1357,0.1356,0.1369,0.1388,0.1368,0.1367,0.1384,0.1362,0.135,0.1348,0.1776,0.2027,0.2105,0.2608,0.291,0.2925,0.291,0.2884,0.282,0.2679,0.2991,0.386,0.5785,0.6486,0.5825,0.6172,0.6416,0.6451,0.643,0.6638,0.6859,0.6964,0.7043,0.7223,0.7416,0.7526,0.7522,0.7544,0.7483,0.7474,0.7512,0.7592,0.7702,0.7621,0.7528,0.7528,0.7472,0.748,0.748,0.748,0.748,0.748,0.748,0.748,0.748,0.748,0.748,0.748,0.748,0.748,0.748,0.748,0.748,0.748,0.748,0.748,0.748,0.748,0.748,0.748,0.748,0.748,0.748,0.748,0.748,0.748,0.748,0.748,0.748,0.748,0.748,0.748,0.748,0.748,0.748,0.748,0.7561,0.7561,0.7714,0.7714,0.7868,0.8093,0.8241,0.8399,0.8475,0.8551,-0.0258,0.0,0.0,0.0,0.0,0.0,0.0,0.0,0.0,0.0,0.0,0.0,0.0266,0.0706,0.1153,0.1423,0.1421,0.1235,0.1232,0.1408,0.1408,0.1411,0.1416,0.1412,0.1401,0.1394,0.1403,0.1397,0.147,0.1921,0.2098,0.2157,0.2582,0.2895,0.2997,0.2953,0.2913,0.281,0.2591,0.2932,0.3819,0.5232,0.5943,0.5953,0.6491,0.6773,0.6605,0.6601,0.6689,0.6749,0.7002,0.7159,0.7351,0.747,0.7479,0.7539,0.7533,0.7484,0.753,0.7546,0.7491,0.7553,0.7557,0.748,0.748,0.748,0.748,0.748,0.748,0.748,0.748,0.748,0.748,0.748,0.748,0.748,0.748,0.748,0.748,0.748,0.748,0.748,0.748,0.748,0.748,0.748,0.748,0.748,0.748,0.748,0.748,0.748,0.748,0.748,0.748,0.748,0.748,0.748,0.748,0.748,0.748,0.748,0.748,0.748,0.748,0.748,0.7557,0.7561,0.7638,0.7642,0.7791,0.794,0.8093,0.8169,0.8246,0.0,0.0,0.0,0.0,0.0,0.0,0.0,0.0,0.0,0.0,0.0,0.0,0.0639,0.0825,0.1285,0.1469,0.1468,0.1458,0.1458,0.1462,0.1442,0.1436,0.1436,0.1436,0.1427,0.1413,0.1426,0.1425,0.1409,0.1959,0.2228,0.2203,0.264,0.2872,0.2983,0.294,0.2902,0.2933,0.2804,0.2915,0.3712,0.4871,0.5631,0.5705,0.6459,0.6859,0.6777,0.6771,0.6739,0.676,0.7022,0.7291,0.7351,0.7434,0.7522,0.7526,0.7538,0.7476,0.748,0.7472,0.748,0.748,0.748,0.748,0.748,0.748,0.748,0.748,0.748,0.748,0.748,0.748,0.748,0.748,0.748,0.748,0.748,0.748,0.748,0.748,0.748,0.748,0.748,0.748,0.748,0.748,0.748,0.748,0.748,0.748,0.748,0.748,0.748,0.748,0.748,0.748,0.748,0.748,0.748,0.748,0.748,0.748,0.748,0.748,0.748,0.748,0.7557,0.748,0.7561,0.7561,0.7561,0.771,0.7787,0.7863,0.794,0.0,0.0,0.0,0.0,0.0,0.0,0.0,0.0,0.0,0.0,0.0,0.13,0.1405,0.1045,0.1615,0.1806,0.152,0.1495,0.1495,0.15,0.1474,0.1448,0.1444,0.1438,0.1433,0.1432,0.1438,0.144,0.1438,0.1892,0.216,0.2257,0.2612,0.2941,0.2979,0.2877,0.2984,0.3055,0.2941,0.2953,0.3147,0.4801,0.5566,0.5064,0.6222,0.6915,0.6944,0.6867,0.6851,0.6761,0.7025,0.7261,0.7261,0.7399,0.7536,0.7524,0.7476,0.748,0.748,0.748,0.748,0.748,0.748,0.748,0.748,0.748,0.748,0.748,0.748,0.748,0.748,0.748,0.748,0.748,0.748,0.748,0.748,0.748,0.748,0.748,0.748,0.748,0.748,0.748,0.748,0.748,0.748,0.748,0.748,0.748,0.748,0.748,0.748,0.748,0.748,0.748,0.748,0.748,0.748,0.748,0.748,0.748,0.748,0.748,0.748,0.748,0.748,0.748,0.748,0.7557,0.7557,0.748,0.7557,0.7633,0.7638,0.0,0.0,0.0,0.0,0.0,0.0,0.1639,0.4072,0.4465,0.2796,0.1118,0.2381,0.2589,0.1625,0.2612,0.2609,0.1722,0.1519,0.1517,0.1522,0.1513,0.1488,0.1467,0.1446,0.1438,0.1441,0.1459,0.1468,0.1469,0.1744,0.2035,0.2252,0.2587,0.2839,0.3,0.3044,0.2986,0.2911,0.2941,0.2964,0.3209,0.4456,0.5266,0.5372,0.6539,0.7162,0.7171,0.7127,0.7102,0.709,0.7159,0.7289,0.7395,0.7456,0.748,0.748,0.748,0.748,0.748,0.748,0.748,0.748,0.748,0.748,0.748,0.748,0.748,0.748,0.748,0.748,0.748,0.748,0.748,0.748,0.748,0.748,0.748,0.748,0.748,0.748,0.748,0.748,0.748,0.748,0.748,0.748,0.748,0.748,0.748,0.748,0.748,0.748,0.748,0.748,0.748,0.748,0.748,0.748,0.748,0.748,0.748,0.748,0.748,0.748,0.748,0.748,0.748,0.748,0.748,0.748,0.748,0.748,0.748,0.7557,0.7557,0.0,0.0,0.0,0.0,0.0,0.0,0.2309,0.5575,0.6156,0.5156,0.3333,0.3871,0.3717,0.2446,0.3257,0.2862,0.1662,0.1551,0.1553,0.1562,0.1551,0.1528,0.1502,0.1479,0.1473,0.1475,0.1491,0.1499,0.15,0.1688,0.1982,0.2183,0.2452,0.2706,0.2951,0.3109,0.3042,0.2964,0.3001,0.3037,0.3058,0.4524,0.5192,0.5562,0.6673,0.7423,0.7342,0.7334,0.7334,0.733,0.7338,0.7382,0.7468,0.748,0.748,0.748,0.748,0.748,0.748,0.748,0.748,0.748,0.748,0.748,0.748,0.748,0.748,0.748,0.748,0.748,0.748,0.748,0.748,0.748,0.748,0.748,0.748,0.748,0.748,0.748,0.748,0.748,0.748,0.748,0.748,0.748,0.748,0.748,0.748,0.748,0.748,0.748,0.748,0.748,0.748,0.748,0.748,0.748,0.748,0.748,0.748,0.748,0.748,0.748,0.748,0.748,0.748,0.748,0.748,0.748,0.748,0.7488,0.7496,0.7484,0.748,0.0,0.0,0.0,0.0,0.0,0.0,0.2155,0.5531,0.6266,0.6316,0.5971,0.5694,0.4858,0.343,0.4012,0.3221,0.1813,0.1684,0.1592,0.1596,0.1587,0.1562,0.1541,0.1521,0.1516,0.1518,0.1622,0.1626,0.1721,0.1818,0.2014,0.2117,0.2399,0.2746,0.2913,0.3078,0.3008,0.3114,0.3098,0.3051,0.3333,0.4491,0.5269,0.5528,0.6749,0.7467,0.7508,0.7488,0.7464,0.7476,0.748,0.7472,0.748,0.748,0.748,0.748,0.748,0.748,0.748,0.748,0.748,0.748,0.748,0.748,0.748,0.748,0.748,0.748,0.748,0.748,0.748,0.748,0.748,0.748,0.748,0.748,0.748,0.748,0.748,0.748,0.748,0.748,0.748,0.748,0.748,0.748,0.748,0.748,0.748,0.748,0.748,0.748,0.748,0.748,0.748,0.748,0.748,0.748,0.748,0.748,0.748,0.748,0.748,0.748,0.748,0.748,0.748,0.748,0.7488,0.7508,0.7529,0.7529,0.7525,0.7496,0.7484,0.0,0.0,0.0,0.0,0.0,0.0,0.1517,0.3919,0.5723,0.635,0.6317,0.6564,0.6014,0.4941,0.5133,0.4526,0.2822,0.2104,0.1609,0.1613,0.1612,0.1605,0.1585,0.1553,0.153,0.1725,0.2518,0.2435,0.2048,0.2439,0.265,0.2182,0.2352,0.2626,0.3,0.3178,0.3067,0.3095,0.317,0.3197,0.329,0.423,0.5104,0.5756,0.6976,0.7624,0.7667,0.7561,0.7488,0.748,0.748,0.748,0.748,0.748,0.748,0.748,0.748,0.748,0.748,0.748,0.748,0.748,0.748,0.748,0.748,0.748,0.748,0.748,0.748,0.748,0.748,0.748,0.748,0.748,0.748,0.748,0.748,0.748,0.748,0.748,0.748,0.748,0.748,0.748,0.748,0.748,0.748,0.748,0.748,0.748,0.748,0.748,0.748,0.748,0.748,0.748,0.748,0.748,0.748,0.748,0.748,0.748,0.748,0.748,0.748,0.748,0.748,0.7516,0.7533,0.7557,0.7602,0.7642,0.7655,0.7581,0.761,0.0,0.0,0.0,0.0,0.0,0.0,0.0674,0.2251,0.5103,0.6337,0.6487,0.6921,0.6537,0.5641,0.6342,0.5837,0.4026,0.2819,0.2016,0.1717,0.1616,0.1616,0.1714,0.2082,0.2349,0.245,0.3452,0.347,0.3275,0.3078,0.2891,0.2315,0.2395,0.2666,0.3241,0.3532,0.3583,0.3339,0.3616,0.3668,0.3424,0.4195,0.5609,0.6652,0.7593,0.784,0.7823,0.7581,0.7496,0.748,0.748,0.748,0.748,0.748,0.748,0.748,0.748,0.748,0.748,0.748,0.748,0.748,0.748,0.748,0.748,0.748,0.748,0.748,0.748,0.748,0.748,0.748,0.748,0.748,0.748,0.748,0.748,0.748,0.748,0.748,0.748,0.748,0.748,0.748,0.748,0.748,0.748,0.748,0.748,0.748,0.748,0.748,0.748,0.748,0.748,0.748,0.748,0.748,0.748,0.748,0.748,0.748,0.748,0.748,0.748,0.748,0.7488,0.7529,0.7618,0.7711,0.7776,0.7813,0.7845,0.7849,0.7906,0.0,0.0,0.0,0.0,0.0,0.0,0.0,0.0703,0.4138,0.5957,0.6461,0.6945,0.6736,0.6339,0.7253,0.6745,0.4929,0.3624,0.252,0.1717,0.1617,0.1617,0.1815,0.2711,0.3404,0.3623,0.4516,0.4916,0.4416,0.3922,0.3214,0.2517,0.242,0.2701,0.3262,0.4132,0.4309,0.3681,0.4442,0.4608,0.3908,0.4412,0.5577,0.7386,0.8058,0.7906,0.7821,0.7655,0.7521,0.7484,0.748,0.748,0.748,0.748,0.748,0.748,0.748,0.748,0.748,0.748,0.748,0.748,0.748,0.748,0.748,0.748,0.748,0.748,0.748,0.748,0.748,0.748,0.748,0.748,0.748,0.748,0.748,0.748,0.748,0.748,0.748,0.748,0.748,0.748,0.748,0.748,0.748,0.748,0.748,0.7484,0.7484,0.748,0.748,0.748,0.748,0.7484,0.7484,0.7537,0.7525,0.7521,0.7508,0.748,0.748,0.748,0.748,0.7484,0.7529,0.7606,0.7711,0.7858,0.7963,0.8012,0.8069,0.8122,0.8187,0.0,0.0,0.0,0.0,0.0,0.0,0.0,0.0,0.272,0.474,0.6358,0.6948,0.7039,0.7138,0.764,0.6734,0.4926,0.3725,0.2622,0.1717,0.1617,0.1617,0.1918,0.3423,0.4325,0.4824,0.5529,0.5732,0.5127,0.4524,0.3621,0.2718,0.242,0.2714,0.3412,0.421,0.4891,0.4757,0.5539,0.5801,0.5354,0.4712,0.5092,0.7358,0.8088,0.8219,0.7983,0.7805,0.7646,0.7504,0.7484,0.7488,0.75,0.75,0.7496,0.748,0.748,0.748,0.748,0.748,0.748,0.748,0.748,0.748,0.748,0.748,0.748,0.748,0.748,0.748,0.748,0.748,0.748,0.748,0.748,0.748,0.748,0.748,0.748,0.748,0.748,0.748,0.748,0.748,0.748,0.748,0.748,0.748,0.748,0.7484,0.7569,0.7488,0.748,0.748,0.748,0.7484,0.7496,0.761,0.7626,0.761,0.7581,0.7504,0.7484,0.7549,0.7537,0.7508,0.7573,0.7675,0.7943,0.8187,0.8219,0.8219,0.8251,0.8296,0.8394,0.0,0.0,0.0,0.0,0.0,0.0,0.0,0.0,0.2317,0.4437,0.6055,0.6851,0.7039,0.7338,0.7746,0.6836,0.4926,0.3725,0.2622,0.1818,0.1617,0.1617,0.1818,0.3823,0.4624,0.5225,0.6331,0.6936,0.6329,0.5225,0.3917,0.2512,0.2317,0.3026,0.3929,0.5227,0.5632,0.5927,0.662,0.6895,0.6522,0.5552,0.6441,0.7573,0.8151,0.8341,0.8187,0.7983,0.7858,0.7784,0.7764,0.7707,0.7655,0.7618,0.7586,0.7516,0.7488,0.7484,0.748,0.748,0.748,0.7484,0.7415,0.7411,0.7484,0.748,0.7488,0.748,0.748,0.748,0.748,0.748,0.748,0.748,0.748,0.748,0.748,0.748,0.748,0.748,0.748,0.748,0.748,0.748,0.748,0.748,0.748,0.748,0.748,0.7512,0.761,0.7672,0.7708,0.7744,0.7732,0.7699,0.7675,0.7748,0.7825,0.7809,0.7711,0.7663,0.7667,0.7707,0.7659,0.763,0.7659,0.7776,0.8146,0.8463,0.843,0.8402,0.8426,0.8479,0.8627,0.0,0.009,0.0917,0.131,0.1145,0.0,0.0,0.0,0.1713,0.3932,0.6271,0.6656,0.6842,0.7241,0.7344,0.6537,0.4321,0.3422,0.2923,0.1818,0.1617,0.1617,0.212,0.3324,0.4526,0.5024,0.6431,0.7739,0.7437,0.6129,0.4214,0.321,0.3119,0.3728,0.483,0.6229,0.6725,0.7123,0.772,0.772,0.7165,0.7314,0.7966,0.8651,0.8432,0.8265,0.8272,0.815,0.8044,0.7996,0.7971,0.7943,0.7837,0.7809,0.774,0.7614,0.7557,0.7525,0.7496,0.7602,0.7626,0.7581,0.7316,0.7328,0.7512,0.7602,0.7537,0.7496,0.748,0.748,0.748,0.748,0.748,0.748,0.748,0.748,0.748,0.748,0.748,0.748,0.748,0.748,0.7557,0.748,0.748,0.748,0.748,0.748,0.7492,0.7573,0.7626,0.7803,0.7914,0.8024,0.8061,0.8024,0.8004,0.8016,0.8117,0.8166,0.8008,0.7854,0.7874,0.789,0.7902,0.7878,0.7874,0.7918,0.8235,0.8463,0.8536,0.8556,0.8519,0.8603,0.8727,0.0,0.036,0.4047,0.5637,0.4977,0.1653,0.0,0.0,0.0605,0.2722,0.6274,0.6456,0.6648,0.6842,0.7235,0.5418,0.3515,0.3417,0.3123,0.1717,0.1617,0.1617,0.1717,0.2722,0.4024,0.4826,0.6032,0.7036,0.7437,0.6734,0.5722,0.4712,0.4818,0.5425,0.5827,0.7027,0.7819,0.8021,0.8825,0.8821,0.8011,0.8164,0.8179,0.7998,0.8033,0.8207,0.8332,0.8304,0.8231,0.8069,0.804,0.8016,0.7983,0.7983,0.7893,0.7744,0.7641,0.7493,0.7577,0.7569,0.7633,0.7537,0.7209,0.7312,0.7511,0.776,0.7638,0.7488,0.7484,0.75,0.7512,0.7508,0.7492,0.75,0.7521,0.7504,0.7488,0.748,0.748,0.748,0.748,0.7557,0.7561,0.7557,0.748,0.748,0.7488,0.7504,0.7639,0.7762,0.774,0.7922,0.8106,0.8219,0.83,0.8276,0.826,0.826,0.8337,0.843,0.8256,0.8081,0.8065,0.8085,0.8105,0.8201,0.8176,0.8262,0.8455,0.8558,0.8636,0.8656,0.8564,0.8656,0.8836,0.1258,0.3429,0.5501,0.6364,0.6045,0.3346,0.1501,0.0906,0.1815,0.343,0.5354,0.6158,0.6453,0.6531,0.6075,0.4579,0.2908,0.2919,0.2622,0.1818,0.1617,0.1617,0.1818,0.2723,0.3725,0.4724,0.5929,0.7039,0.7338,0.7039,0.6331,0.6634,0.6126,0.6124,0.6725,0.7726,0.8425,0.8928,0.9327,0.9324,0.9004,0.8935,0.8817,0.8471,0.8487,0.8539,0.8593,0.8589,0.8503,0.8365,0.8329,0.8272,0.8199,0.8166,0.8154,0.8026,0.7919,0.7841,0.7648,0.7489,0.7535,0.7486,0.7077,0.6796,0.717,0.7504,0.7445,0.6896,0.732,0.7537,0.7642,0.7732,0.7707,0.7679,0.7556,0.7569,0.7541,0.7488,0.748,0.748,0.7557,0.7561,0.7675,0.7688,0.7676,0.7635,0.7638,0.7736,0.7901,0.811,0.8053,0.7967,0.8182,0.8414,0.8463,0.8475,0.8442,0.8434,0.8438,0.8491,0.8414,0.8316,0.8288,0.8316,0.8369,0.8447,0.8483,0.8537,0.857,0.8615,0.8736,0.8769,0.8798,0.9029,0.92,0.1976,0.506,0.5898,0.6281,0.632,0.4847,0.3114,0.1713,0.2623,0.3836,0.4943,0.5851,0.6348,0.6126,0.5174,0.4081,0.2716,0.2219,0.1818,0.1718,0.1617,0.1617,0.1818,0.2521,0.3324,0.4423,0.5329,0.6639,0.7444,0.7441,0.7444,0.8165,0.7335,0.7226,0.7723,0.8425,0.9027,0.9426,0.9525,0.9525,0.9505,0.9213,0.9227,0.9132,0.9029,0.8889,0.8913,0.8816,0.8718,0.8731,0.8568,0.8479,0.8446,0.8394,0.8349,0.8321,0.8231,0.8207,0.7974,0.7722,0.7457,0.7446,0.7262,0.6996,0.6354,0.699,0.7396,0.6695,0.7152,0.756,0.7801,0.8008,0.8004,0.7833,0.7652,0.764,0.7655,0.7663,0.7577,0.748,0.7561,0.7718,0.7794,0.7803,0.7819,0.7733,0.7752,0.7931,0.8135,0.8334,0.8283,0.8178,0.8308,0.8503,0.8532,0.8572,0.8572,0.8572,0.8572,0.8552,0.8479,0.8562,0.8558,0.8615,0.8773,0.8786,0.8772,0.8761,0.8748,0.8937,0.9046,0.9106,0.9123,0.9367,0.9504,0.1166,0.3233,0.5057,0.6095,0.6582,0.5259,0.4067,0.2815,0.2119,0.3029,0.4843,0.5834,0.6331,0.5939,0.5313,0.3904,0.1916,0.272,0.2321,0.1818,0.1617,0.1617,0.1717,0.1918,0.2421,0.3524,0.4726,0.6239,0.7556,0.8141,0.834,0.8641,0.8333,0.873,0.8928,0.913,0.9327,0.9624,0.9624,0.9624,0.943,0.9087,0.8928,0.9107,0.876,0.8489,0.8991,0.8954,0.8901,0.8982,0.8779,0.8694,0.871,0.8641,0.8584,0.854,0.8536,0.8513,0.8316,0.8162,0.8283,0.8247,0.8052,0.7443,0.6181,0.6718,0.6943,0.6682,0.7068,0.7581,0.7906,0.8243,0.8256,0.8026,0.7816,0.776,0.7809,0.7923,0.7813,0.7573,0.7614,0.7791,0.8058,0.8111,0.7971,0.7886,0.7914,0.8089,0.8211,0.8402,0.8476,0.8422,0.8479,0.8556,0.856,0.8572,0.8572,0.8572,0.8572,0.8572,0.8548,0.866,0.8819,0.9034,0.917,0.9164,0.9082,0.92,0.9226,0.9416,0.946,0.9473,0.9677,0.9999,1.0064,0.1089,0.3051,0.4892,0.6018,0.6472,0.4859,0.4159,0.3717,0.2321,0.2927,0.524,0.627,0.647,0.581,0.4973,0.3887,0.2417,0.2119,0.1919,0.1717,0.1617,0.1617,0.1617,0.1818,0.232,0.3524,0.4628,0.6032,0.7846,0.8435,0.8939,0.9137,0.9133,0.9133,0.9236,0.9434,0.9628,0.9624,0.9624,0.9624,0.9525,0.943,0.9296,0.9437,0.9327,0.9135,0.9275,0.9198,0.9145,0.9076,0.8954,0.8942,0.8962,0.8897,0.8816,0.8727,0.8706,0.8705,0.8487,0.8245,0.7857,0.783,0.7998,0.7846,0.6392,0.6919,0.6306,0.6292,0.6757,0.7464,0.7567,0.8131,0.8446,0.826,0.8066,0.8026,0.8022,0.8138,0.8097,0.7878,0.7882,0.8033,0.825,0.8476,0.826,0.805,0.8178,0.8239,0.8373,0.8467,0.8536,0.8528,0.8556,0.8682,0.8702,0.8649,0.858,0.8597,0.8609,0.8609,0.873,0.9024,0.9268,0.9483,0.9717,0.9713,0.9732,0.9757,0.9716,0.9748,0.9853,0.9899,1.0205,1.0538,1.0551,0.1191,0.3165,0.4954,0.5954,0.6222,0.462,0.4025,0.399,0.2416,0.3027,0.5438,0.6254,0.6257,0.5399,0.4281,0.3283,0.2417,0.1919,0.1717,0.1617,0.1617,0.1617,0.1617,0.1717,0.222,0.3524,0.4726,0.6032,0.7132,0.8329,0.9038,0.9343,0.9438,0.9335,0.9335,0.9533,0.9624,0.9624,0.9624,0.9624,0.9624,0.9628,0.9529,0.9612,0.9509,0.9661,0.9631,0.9548,0.9511,0.944,0.9357,0.9129,0.9133,0.9108,0.9003,0.8897,0.8808,0.8743,0.8528,0.8193,0.7796,0.7899,0.8135,0.7793,0.7253,0.6987,0.639,0.4894,0.5934,0.6946,0.6983,0.8055,0.854,0.8377,0.8357,0.8325,0.8304,0.8316,0.8284,0.8199,0.8235,0.826,0.8369,0.8648,0.8528,0.8348,0.8412,0.8536,0.8597,0.8662,0.8678,0.8637,0.8564,0.8718,0.8865,0.8845,0.886,0.8923,0.8906,0.8816,0.8849,0.9254,0.9526,0.9719,0.9978,1.0282,1.0288,1.0176,1.0069,0.9915,1.009,1.0306,1.0575,1.091,1.0915,0.1293,0.3312,0.4982,0.5913,0.6121,0.4438,0.3948,0.4032,0.2704,0.3228,0.5343,0.5819,0.5622,0.5035,0.3812,0.2716,0.1917,0.1617,0.1617,0.1617,0.1617,0.1617,0.1617,0.1818,0.2221,0.2823,0.4327,0.5727,0.6126,0.8226,0.924,0.9541,0.9533,0.9529,0.9632,0.9628,0.9624,0.9624,0.9624,0.9628,0.9426,0.9525,0.9628,0.9229,0.9426,0.9592,0.9747,0.9458,0.9538,0.9959,0.9482,0.9259,0.9332,0.923,0.9088,0.9005,0.8877,0.8775,0.8609,0.8589,0.8492,0.836,0.8495,0.8162,0.7394,0.6949,0.6307,0.4691,0.478,0.5758,0.6773,0.8109,0.8452,0.8532,0.8503,0.8487,0.8459,0.845,0.8414,0.839,0.8479,0.856,0.8617,0.8686,0.8723,0.8739,0.8721,0.8754,0.884,0.8848,0.8852,0.8816,0.8739,0.895,0.9165,0.9116,0.9156,0.915,0.9107,0.8913,0.9117,0.944,0.9681,0.9877,1.0251,1.0668,1.0651,1.0579,1.0468,1.0482,1.0576,1.0763,1.1047,1.1137,1.1099,0.1293,0.3316,0.5167,0.6093,0.6009,0.4432,0.3943,0.4311,0.4088,0.4628,0.5837,0.6137,0.5632,0.483,0.3627,0.2521,0.1717,0.1617,0.1617,0.1617,0.1617,0.1617,0.1718,0.1919,0.2322,0.3327,0.4828,0.6129,0.6833,0.8535,0.9331,0.9632,0.9628,0.9628,0.9628,0.9624,0.9624,0.9624,0.9529,0.9426,0.8931,0.9229,0.913,0.8233,0.8726,0.9221,0.9612,0.9229,0.9457,1.0105,0.9614,0.9458,0.951,0.9417,0.934,0.93,0.9255,0.9096,0.897,0.8905,0.88,0.8682,0.8605,0.8432,0.814,0.7415,0.616,0.4917,0.4391,0.528,0.6428,0.7944,0.8472,0.856,0.8548,0.8548,0.8536,0.854,0.8528,0.8519,0.8568,0.8572,0.8613,0.8771,0.884,0.8982,0.9064,0.9011,0.8986,0.9007,0.9019,0.9011,0.9015,0.923,0.9399,0.9324,0.9288,0.9202,0.9141,0.8987,0.9235,0.9621,0.9975,1.0187,1.0665,1.1042,1.1039,1.0977,1.0957,1.1019,1.1087,1.1091,1.1113,1.1175,1.1165,0.297,0.391,0.5676,0.6215,0.5731,0.4307,0.3725,0.3814,0.436,0.5191,0.5724,0.5832,0.5529,0.4526,0.3323,0.2421,0.1617,0.1617,0.1617,0.1617,0.1617,0.1617,0.1717,0.212,0.2624,0.3629,0.5035,0.6342,0.7516,0.866,0.9232,0.9529,0.9624,0.9624,0.9624,0.9624,0.9624,0.9624,0.9529,0.9229,0.8832,0.863,0.8428,0.7928,0.8028,0.8623,0.8821,0.8924,0.8924,0.962,0.962,0.9327,0.9426,0.9608,0.9535,0.9509,0.9374,0.9206,0.9104,0.9068,0.8942,0.8816,0.8755,0.8727,0.8581,0.7993,0.6972,0.5891,0.4874,0.5523,0.6812,0.8162,0.8633,0.8731,0.8649,0.8653,0.858,0.858,0.8572,0.8572,0.8666,0.8645,0.8609,0.8804,0.8954,0.9137,0.9311,0.9218,0.9137,0.9173,0.9214,0.9226,0.9238,0.9397,0.9514,0.9506,0.9485,0.9295,0.9176,0.9163,0.9374,0.9656,1.0127,1.0563,1.0826,1.1028,1.1239,1.1365,1.1332,1.1405,1.1381,1.1312,1.1184,1.1194,1.1292,0.6112,0.4935,0.634,0.6374,0.517,0.4152,0.3021,0.1961,0.3913,0.4841,0.4914,0.5018,0.4816,0.4416,0.2619,0.1717,0.1617,0.1617,0.1617,0.1617,0.1617,0.1617,0.1818,0.2221,0.2725,0.353,0.474,0.6382,0.8021,0.8449,0.8873,0.9327,0.9529,0.9628,0.9624,0.9624,0.9624,0.9624,0.9525,0.913,0.863,0.823,0.7928,0.7534,0.7534,0.8031,0.8127,0.8127,0.8421,0.8821,0.892,0.9027,0.9229,0.9533,0.9514,0.9384,0.9234,0.9206,0.919,0.9194,0.9141,0.9072,0.9104,0.8922,0.8699,0.8485,0.7713,0.6857,0.6124,0.6713,0.7581,0.8347,0.9027,0.8842,0.8717,0.8641,0.8625,0.8593,0.8576,0.8637,0.88,0.8804,0.8662,0.8783,0.8995,0.9181,0.9311,0.9291,0.9246,0.936,0.9409,0.949,0.951,0.9547,0.9604,0.9575,0.9535,0.9364,0.9381,0.9393,0.9596,0.9757,1.0179,1.0568,1.0775,1.1091,1.1424,1.1678,1.1678,1.175,1.1721,1.1546,1.1487,1.1394,1.1394,0.6478,0.4847,0.634,0.6652,0.5979,0.472,0.3537,0.3025,0.4302,0.5101,0.5816,0.5099,0.4779,0.4447,0.2507,0.1815,0.1616,0.1617,0.1617,0.1617,0.1617,0.1617,0.1919,0.2423,0.2928,0.3732,0.4746,0.5888,0.6371,0.7256,0.831,0.8748,0.9232,0.9426,0.9624,0.9624,0.9624,0.9624,0.9624,0.913,0.863,0.8329,0.7633,0.7039,0.6939,0.7335,0.7431,0.7235,0.773,0.8322,0.8524,0.8432,0.7832,0.8931,0.9575,0.9567,0.9502,0.9482,0.9474,0.947,0.9413,0.9336,0.9376,0.9279,0.9116,0.8818,0.8444,0.7757,0.7563,0.8193,0.8281,0.8764,0.9115,0.9092,0.887,0.8758,0.8739,0.8649,0.8633,0.8674,0.884,0.8869,0.8731,0.8775,0.8986,0.9181,0.939,0.9399,0.9344,0.9453,0.947,0.9543,0.9608,0.9592,0.9514,0.9474,0.9474,0.9466,0.9457,0.9517,0.9587,0.9849,1.0232,1.0687,1.1115,1.154,1.1833,1.1965,1.198,1.1965,1.1945,1.1765,1.1683,1.159,1.159,0.5714,0.4317,0.6311,0.6642,0.5611,0.4369,0.3432,0.3339,0.4204,0.527,0.5898,0.5081,0.4694,0.4279,0.2568,0.1598,0.1598,0.1611,0.1617,0.1617,0.1617,0.1818,0.2222,0.2726,0.323,0.3934,0.4647,0.5588,0.5855,0.6899,0.8076,0.8446,0.9031,0.9327,0.9525,0.9624,0.9624,0.9624,0.9525,0.913,0.8733,0.8333,0.7437,0.6639,0.6642,0.6836,0.6833,0.6539,0.6936,0.7528,0.7637,0.7437,0.7138,0.8134,0.8928,0.8916,0.9008,0.9292,0.9489,0.96,0.9551,0.9522,0.9555,0.9494,0.9417,0.9228,0.8929,0.8472,0.8979,0.9363,0.9209,0.915,0.9148,0.9234,0.9108,0.8982,0.8861,0.8739,0.8723,0.8727,0.8787,0.8857,0.8873,0.8897,0.8995,0.9304,0.9452,0.9493,0.9437,0.9518,0.9462,0.9429,0.9518,0.9567,0.947,0.936,0.9444,0.9493,0.9551,0.96,0.962,0.9817,1.0181,1.0933,1.1676,1.1889,1.1976,1.2247,1.2273,1.2262,1.2257,1.2268,1.2078,1.1883,1.198,0.4353,0.3312,0.6065,0.6333,0.4597,0.3673,0.3319,0.3232,0.4338,0.5113,0.5764,0.5036,0.4571,0.4193,0.252,0.1664,0.1674,0.1692,0.1705,0.1614,0.1617,0.1818,0.2222,0.2927,0.333,0.3932,0.4541,0.5271,0.6055,0.6896,0.7569,0.824,0.8432,0.8832,0.9529,0.9628,0.9624,0.9624,0.9525,0.9327,0.873,0.8333,0.7832,0.6936,0.6836,0.6836,0.6437,0.6237,0.6137,0.6539,0.6742,0.6839,0.7238,0.7138,0.7633,0.8233,0.8531,0.9034,0.943,0.9628,0.9628,0.9608,0.9624,0.96,0.9543,0.9518,0.9202,0.91,0.9489,0.9509,0.9465,0.9351,0.9381,0.9384,0.9279,0.9157,0.9039,0.8865,0.869,0.8723,0.882,0.8877,0.8877,0.8901,0.9088,0.9374,0.9514,0.9579,0.9425,0.9485,0.9225,0.9111,0.9096,0.9041,0.9036,0.8946,0.9304,0.9386,0.949,0.9596,0.962,0.9821,1.0117,1.0872,1.1619,1.191,1.2081,1.219,1.2273,1.2365,1.2462,1.2662,1.257,1.2273,1.2273,0.4555,0.3875,0.6031,0.6305,0.5405,0.5133,0.4999,0.5146,0.5345,0.5559,0.5663,0.4987,0.4422,0.401,0.2471,0.173,0.1934,0.1965,0.1874,0.1794,0.1807,0.1818,0.202,0.2827,0.3229,0.3632,0.4237,0.4947,0.5491,0.6139,0.6859,0.7553,0.7935,0.863,0.9529,0.9624,0.9624,0.9624,0.9525,0.9525,0.9229,0.863,0.8031,0.773,0.7726,0.7723,0.7422,0.7521,0.772,0.7922,0.7932,0.7932,0.8131,0.6936,0.7042,0.7846,0.8137,0.8641,0.9244,0.9438,0.9529,0.9628,0.9624,0.9624,0.962,0.9624,0.9624,0.9624,0.9624,0.9624,0.9624,0.962,0.9608,0.9522,0.9445,0.9328,0.921,0.8962,0.8706,0.8735,0.8836,0.8881,0.8885,0.9095,0.928,0.9448,0.9502,0.9485,0.9292,0.913,0.8718,0.8547,0.8361,0.8332,0.842,0.8619,0.9021,0.939,0.9478,0.9563,0.9624,1.0015,1.0404,1.0895,1.1351,1.1671,1.1844,1.1823,1.1883,1.217,1.2467,1.257,1.2764,1.2565,1.2662,0.4018,0.4326,0.5996,0.6383,0.5805,0.563,0.5638,0.573,0.5633,0.5636,0.5573,0.4847,0.4229,0.3655,0.2143,0.1708,0.2007,0.2432,0.2174,0.1995,0.2,0.2015,0.2322,0.2827,0.333,0.3732,0.4435,0.5041,0.505,0.5473,0.6183,0.7045,0.7736,0.8432,0.9327,0.9624,0.9624,0.9624,0.9624,0.9624,0.9624,0.9126,0.863,0.8428,0.8322,0.8315,0.8018,0.7918,0.7723,0.7325,0.683,0.6531,0.6434,0.5837,0.6039,0.6742,0.7241,0.7839,0.8645,0.9042,0.9232,0.9426,0.9624,0.9624,0.9624,0.9624,0.9624,0.9624,0.9624,0.9624,0.9624,0.9624,0.9624,0.9571,0.9531,0.9458,0.9299,0.9185,0.891,0.8633,0.8775,0.8954,0.8999,0.9153,0.9328,0.9462,0.9608,0.9529,0.9244,0.8847,0.8443,0.8038,0.7829,0.8234,0.8825,0.8775,0.8802,0.9091,0.949,0.9559,0.9727,1.0306,1.0788,1.0895,1.1096,1.1477,1.1575,1.1492,1.1688,1.2078,1.2273,1.2473,1.257,1.2759,1.2759,0.3447,0.4574,0.6126,0.6445,0.5841,0.5755,0.5711,0.5742,0.5714,0.5545,0.5252,0.4698,0.3924,0.2897,0.1925,0.1778,0.1905,0.2703,0.256,0.2394,0.2304,0.2212,0.252,0.2927,0.3531,0.4135,0.4839,0.514,0.5242,0.5457,0.5859,0.6839,0.7534,0.8031,0.9126,0.9624,0.9624,0.9624,0.9624,0.9624,0.9624,0.9628,0.913,0.8829,0.8726,0.8623,0.8226,0.773,0.7428,0.683,0.6234,0.5737,0.5434,0.5236,0.5338,0.5839,0.6239,0.6836,0.7534,0.8237,0.873,0.9229,0.9426,0.9624,0.9624,0.9624,0.9624,0.9624,0.9624,0.9624,0.9624,0.9624,0.9624,0.9624,0.9592,0.9571,0.9497,0.9337,0.9083,0.8714,0.8857,0.906,0.919,0.934,0.9449,0.9583,0.9533,0.945,0.9256,0.8748,0.824,0.7839,0.7437,0.8017,0.8386,0.8679,0.8426,0.915,0.9539,0.9592,0.9924,1.0913,1.1105,1.0605,1.0806,1.1096,1.1194,1.1096,1.1389,1.1785,1.198,1.2181,1.2667,1.2759,1.2759,0.3407,0.5063,0.6251,0.6689,0.6454,0.645,0.6492,0.6642,0.6483,0.5766,0.5,0.5075,0.4427,0.2847,0.1844,0.1775,0.2558,0.3168,0.3494,0.344,0.268,0.2499,0.2514,0.3027,0.3934,0.4638,0.514,0.524,0.534,0.534,0.5636,0.6628,0.7132,0.7932,0.9327,0.9624,0.9624,0.9624,0.9624,0.9624,0.9624,0.9628,0.9529,0.9525,0.9817,1.0019,0.992,0.9316,0.8916,0.812,0.6731,0.5837,0.5336,0.5035,0.5035,0.5238,0.5639,0.5737,0.6434,0.7534,0.823,0.873,0.9126,0.9624,0.9624,0.9624,0.9624,0.9624,0.9624,0.9624,0.9624,0.9624,0.9624,0.9624,0.9608,0.9608,0.9522,0.9458,0.9328,0.9222,0.9242,0.9368,0.9453,0.9543,0.9571,0.9657,0.9644,0.9458,0.8689,0.8368,0.8045,0.7643,0.7247,0.6137,0.5894,0.7648,0.7963,0.8875,0.9674,0.9903,1.0524,1.1825,1.1825,1.111,1.0605,1.0703,1.0703,1.0801,1.1002,1.1394,1.159,1.1986,1.2467,1.2759,1.2759]}]]